Time,TemperatureF,DewpointF,PressureIn,WindDirection,WindDirectionDegrees,WindSpeedMPH,WindSpeedGustMPH,Humidity,HourlyPrecipIn,Conditions,Clouds,dailyrainin,SoftwareType,DateUTC
2013-01-31 00:00:00,54.2,51.9,29.23,SSW,202,7.0,11.0,92,0.19,,---,1.51,VWS V14.01,2013-01-31 05:00:00,
2013-01-31 00:01:00,54.2,51.6,29.24,West,271,8.0,10.0,91,0.19,,---,0.00,VWS V14.01,2013-01-31 05:01:00,
2013-01-31 00:02:00,54.1,51.5,29.24,SSW,209,4.0,11.0,91,0.19,,---,0.00,VWS V14.01,2013-01-31 05:02:00,
2013-01-31 00:03:00,54.1,51.5,29.24,SSW,205,8.0,11.0,91,0.20,,---,0.01,VWS V14.01,2013-01-31 05:03:00,
2013-01-31 00:04:00,53.9,51.0,29.24,West,267,7.0,9.0,90,0.19,,---,0.01,VWS V14.01,2013-01-31 05:04:00,
2013-01-31 00:05:00,53.8,50.9,29.24,West,261,6.0,8.0,90,0.19,,---,0.01,VWS V14.01,2013-01-31 05:05:00,
2013-01-31 00:06:00,53.8,50.9,29.24,WNW,296,8.0,11.0,90,0.18,,---,0.01,VWS V14.01,2013-01-31 05:06:00,
2013-01-31 00:07:00,53.8,50.9,29.24,West,280,7.0,8.0,90,0.18,,---,0.01,VWS V14.01,2013-01-31 05:07:00,
2013-01-31 00:08:00,53.6,50.7,29.24,West,262,6.0,7.0,90,0.18,,---,0.01,VWS V14.01,2013-01-31 05:08:00,
2013-01-31 00:09:00,53.5,50.7,29.24,South,185,2.0,8.0,90,0.19,,---,0.02,VWS V14.01,2013-01-31 05:09:00,
2013-01-31 00:10:00,53.5,50.7,29.24,South,188,6.0,8.0,90,0.18,,---,0.02,VWS V14.01,2013-01-31 05:10:00,
2013-01-31 00:11:00,53.3,50.5,29.24,SW,224,5.0,6.0,90,0.18,,---,0.02,VWS V14.01,2013-01-31 05:11:00,
2013-01-31 00:12:00,53.3,50.5,29.24,WSW,252,5.0,5.0,90,0.17,,---,0.02,VWS V14.01,2013-01-31 05:12:00,
2013-01-31 00:13:00,53.3,50.2,29.24,WNW,300,3.0,5.0,89,0.18,,---,0.03,VWS V14.01,2013-01-31 05:13:00,
2013-01-31 00:14:00,53.2,50.0,29.24,SSW,208,4.0,8.0,89,0.18,,---,0.03,VWS V14.01,2013-01-31 05:14:00,
2013-01-31 00:15:00,53.2,50.0,29.19,South,180,7.0,8.0,89,0.18,,---,0.03,VWS V14.01,2013-01-31 05:15:00,
2013-01-31 00:16:00,53.2,50.0,29.19,SSW,205,8.0,9.0,89,0.17,,---,0.03,VWS V14.01,2013-01-31 05:16:00,
2013-01-31 00:17:00,53.2,50.0,29.19,South,174,7.0,10.0,89,0.17,,---,0.03,VWS V14.01,2013-01-31 05:17:00,
2013-01-31 00:18:00,53.2,49.7,29.19,WSW,241,5.0,10.0,88,0.17,,---,0.04,VWS V14.01,2013-01-31 05:18:00,
2013-01-31 00:19:00,53.1,49.7,29.19,South,173,2.0,9.0,88,0.17,,---,0.04,VWS V14.01,2013-01-31 05:19:00,
2013-01-31 00:20:00,53.1,49.7,29.19,South,181,6.0,6.0,88,0.17,,---,0.04,VWS V14.01,2013-01-31 05:20:00,
2013-01-31 00:21:00,53.1,49.7,29.19,West,259,1.0,9.0,88,0.17,,---,0.04,VWS V14.01,2013-01-31 05:21:00,
2013-01-31 00:22:00,53.1,49.7,29.19,West,259,2.0,2.0,88,0.16,,---,0.04,VWS V14.01,2013-01-31 05:22:00,
2013-01-31 00:23:00,53.1,49.7,29.19,South,177,10.0,12.0,88,0.17,,---,0.05,VWS V14.01,2013-01-31 05:23:00,
2013-01-31 00:24:00,53.1,49.7,29.19,SSW,199,8.0,15.0,88,0.16,,---,0.05,VWS V14.01,2013-01-31 05:24:00,
2013-01-31 00:25:00,53.1,49.3,29.19,WNW,296,5.0,10.0,87,0.16,,---,0.05,VWS V14.01,2013-01-31 05:25:00,
2013-01-31 00:26:00,53.2,49.4,29.19,SSW,201,4.0,10.0,87,0.16,,---,0.05,VWS V14.01,2013-01-31 05:26:00,
2013-01-31 00:27:00,53.2,49.4,29.19,WSW,252,6.0,7.0,87,0.16,,---,0.05,VWS V14.01,2013-01-31 05:27:00,
2013-01-31 00:28:00,53.2,49.4,29.19,SSE,168,13.0,13.0,87,0.15,,---,0.05,VWS V14.01,2013-01-31 05:28:00,
2013-01-31 00:29:00,53.2,49.4,29.19,SW,224,6.0,19.0,87,0.16,,---,0.06,VWS V14.01,2013-01-31 05:29:00,
2013-01-31 00:30:00,53.2,49.4,29.22,South,181,9.0,19.0,87,0.15,,---,0.06,VWS V14.01,2013-01-31 05:30:00,
2013-01-31 00:31:00,53.2,49.4,29.22,SSW,196,11.0,12.0,87,0.15,,---,0.06,VWS V14.01,2013-01-31 05:31:00,
2013-01-31 00:32:00,53.2,49.4,29.22,West,271,6.0,11.0,87,0.15,,---,0.06,VWS V14.01,2013-01-31 05:32:00,
2013-01-31 00:33:00,53.3,49.2,29.22,SSW,203,5.0,18.0,86,0.16,,---,0.07,VWS V14.01,2013-01-31 05:33:00,
2013-01-31 00:34:00,53.5,49.4,29.22,South,188,8.0,13.0,86,0.15,,---,0.07,VWS V14.01,2013-01-31 05:34:00,
2013-01-31 00:35:00,53.3,49.5,29.22,SW,226,4.0,9.0,87,0.15,,---,0.07,VWS V14.01,2013-01-31 05:35:00,
2013-01-31 00:36:00,53.3,49.5,29.22,SSW,196,4.0,11.0,87,0.14,,---,0.07,VWS V14.01,2013-01-31 05:36:00,
2013-01-31 00:37:00,53.3,49.5,29.22,SSW,196,10.0,10.0,87,0.14,,---,0.07,VWS V14.01,2013-01-31 05:37:00,
2013-01-31 00:38:00,53.2,49.4,29.22,WSW,241,4.0,8.0,87,0.14,,---,0.07,VWS V14.01,2013-01-31 05:38:00,
2013-01-31 00:39:00,53.2,49.4,29.22,SSW,196,6.0,22.0,87,0.14,,---,0.07,VWS V14.01,2013-01-31 05:39:00,
2013-01-31 00:40:00,53.2,49.4,29.22,SSW,201,9.0,10.0,87,0.13,,---,0.07,VWS V14.01,2013-01-31 05:40:00,
2013-01-31 00:41:00,53.2,49.4,29.22,South,173,7.0,14.0,87,0.14,,---,0.08,VWS V14.01,2013-01-31 05:41:00,
2013-01-31 00:42:00,53.2,49.4,29.22,SSW,212,6.0,7.0,87,0.13,,---,0.08,VWS V14.01,2013-01-31 05:42:00,
2013-01-31 00:43:00,53.1,49.3,29.22,South,178,6.0,12.0,87,0.13,,---,0.08,VWS V14.01,2013-01-31 05:43:00,
2013-01-31 00:44:00,53.1,49.7,29.22,South,181,9.0,12.0,88,0.13,,---,0.08,VWS V14.01,2013-01-31 05:44:00,
2013-01-31 00:45:00,53.1,49.7,29.23,WNW,287,7.0,13.0,88,0.13,,---,0.08,VWS V14.01,2013-01-31 05:45:00,
2013-01-31 00:46:00,52.9,49.5,29.23,SE,142,1.0,10.0,88,0.14,,---,0.09,VWS V14.01,2013-01-31 05:46:00,
2013-01-31 00:47:00,52.9,49.5,29.23,SE,142,0.0,1.0,88,0.13,,---,0.09,VWS V14.01,2013-01-31 05:47:00,
2013-01-31 00:48:00,52.9,49.5,29.23,SSE,165,3.0,8.0,88,0.13,,---,0.09,VWS V14.01,2013-01-31 05:48:00,
2013-01-31 00:49:00,52.9,49.5,29.23,South,190,4.0,9.0,88,0.12,,---,0.09,VWS V14.01,2013-01-31 05:49:00,
2013-01-31 00:50:00,52.8,49.3,29.23,South,185,2.0,6.0,88,0.12,,---,0.09,VWS V14.01,2013-01-31 05:50:00,
2013-01-31 00:51:00,52.8,49.3,29.23,SSW,194,7.0,12.0,88,0.12,,---,0.09,VWS V14.01,2013-01-31 05:51:00,
2013-01-31 00:52:00,52.8,49.7,29.23,South,173,7.0,7.0,89,0.12,,---,0.09,VWS V14.01,2013-01-31 05:52:00,
2013-01-31 00:53:00,52.8,49.3,29.23,SSW,202,6.0,9.0,88,0.12,,---,0.09,VWS V14.01,2013-01-31 05:53:00,
2013-01-31 00:54:00,52.8,49.3,29.23,South,183,6.0,10.0,88,0.12,,---,0.10,VWS V14.01,2013-01-31 05:54:00,
2013-01-31 00:55:00,52.8,49.3,29.23,South,172,0.0,7.0,88,0.12,,---,0.10,VWS V14.01,2013-01-31 05:55:00,
2013-01-31 00:56:00,52.8,49.3,29.23,SSE,167,6.0,6.0,88,0.11,,---,0.10,VWS V14.01,2013-01-31 05:56:00,
2013-01-31 00:57:00,52.8,49.3,29.23,SSE,155,4.0,6.0,88,0.11,,---,0.10,VWS V14.01,2013-01-31 05:57:00,
2013-01-31 00:58:00,52.8,49.3,29.23,SSE,159,3.0,6.0,88,0.11,,---,0.10,VWS V14.01,2013-01-31 05:58:00,
2013-01-31 00:59:00,52.8,49.3,29.23,South,188,7.0,13.0,88,0.12,,---,0.11,VWS V14.01,2013-01-31 05:59:00,
2013-01-31 01:00:00,52.8,49.3,29.21,South,186,2.0,13.0,88,0.12,,---,0.11,VWS V14.01,2013-01-31 06:00:00,
2013-01-31 01:01:00,52.8,49.3,29.21,SSW,199,2.0,9.0,88,0.11,,---,0.11,VWS V14.01,2013-01-31 06:01:00,
2013-01-31 01:02:00,52.8,49.3,29.21,SSW,199,4.0,4.0,88,0.11,,---,0.11,VWS V14.01,2013-01-31 06:02:00,
2013-01-31 01:03:00,52.6,49.2,29.21,South,175,7.0,11.0,88,0.11,,---,0.11,VWS V14.01,2013-01-31 06:03:00,
2013-01-31 01:04:00,52.6,49.2,29.21,West,259,2.0,9.0,88,0.10,,---,0.11,VWS V14.01,2013-01-31 06:04:00,
2013-01-31 01:05:00,52.6,49.2,29.21,SSW,203,1.0,5.0,88,0.10,,---,0.11,VWS V14.01,2013-01-31 06:05:00,
2013-01-31 01:06:00,52.6,49.2,29.21,SSW,195,5.0,8.0,88,0.10,,---,0.11,VWS V14.01,2013-01-31 06:06:00,
2013-01-31 01:07:00,52.6,49.2,29.21,SE,142,5.0,5.0,88,0.10,,---,0.11,VWS V14.01,2013-01-31 06:07:00,
2013-01-31 01:08:00,52.5,49.1,29.21,SSW,198,1.0,7.0,88,0.10,,---,0.11,VWS V14.01,2013-01-31 06:08:00,
2013-01-31 01:09:00,52.5,49.1,29.21,South,178,0.0,4.0,88,0.11,,---,0.12,VWS V14.01,2013-01-31 06:09:00,
2013-01-31 01:10:00,52.5,49.1,29.21,SSW,200,7.0,9.0,88,0.10,,---,0.12,VWS V14.01,2013-01-31 06:10:00,
2013-01-31 01:11:00,52.5,49.1,29.21,SSE,159,7.0,7.0,88,0.10,,---,0.12,VWS V14.01,2013-01-31 06:11:00,
2013-01-31 01:12:00,52.5,49.0,29.21,SSE,158,11.0,11.0,88,0.10,,---,0.12,VWS V14.01,2013-01-31 06:12:00,
2013-01-31 01:13:00,52.5,49.1,29.21,South,179,5.0,7.0,88,0.09,,---,0.12,VWS V14.01,2013-01-31 06:13:00,
2013-01-31 01:14:00,52.3,48.9,29.21,South,182,2.0,6.0,88,0.09,,---,0.12,VWS V14.01,2013-01-31 06:14:00,
2013-01-31 01:15:00,52.3,48.9,29.21,SW,215,5.0,5.0,88,0.10,,---,0.13,VWS V14.01,2013-01-31 06:15:00,
2013-01-31 01:16:00,52.3,48.9,29.21,SSW,202,1.0,7.0,88,0.10,,---,0.13,VWS V14.01,2013-01-31 06:16:00,
2013-01-31 01:17:00,52.3,48.9,29.21,SSW,202,0.0,1.0,88,0.10,,---,0.13,VWS V14.01,2013-01-31 06:17:00,
2013-01-31 01:19:00,52.2,48.8,29.21,West,277,5.0,6.0,88,0.09,,---,0.13,VWS V14.01,2013-01-31 06:19:00,
2013-01-31 01:20:00,52.2,48.8,29.21,South,169,5.0,7.0,88,0.09,,---,0.13,VWS V14.01,2013-01-31 06:20:00,
2013-01-31 01:22:00,52.2,48.5,29.21,SSE,167,9.0,9.0,87,0.09,,---,0.13,VWS V14.01,2013-01-31 06:22:00,
2013-01-31 01:23:00,52.2,48.5,29.21,South,184,4.0,12.0,87,0.08,,---,0.13,VWS V14.01,2013-01-31 06:23:00,
2013-01-31 01:24:00,52.2,48.5,29.21,SSW,194,9.0,9.0,87,0.08,,---,0.13,VWS V14.01,2013-01-31 06:24:00,
2013-01-31 01:25:00,52.2,48.5,29.21,South,169,4.0,11.0,87,0.09,,---,0.14,VWS V14.01,2013-01-31 06:25:00,
2013-01-31 01:27:00,52.2,48.2,29.21,South,175,4.0,6.0,86,0.09,,---,0.14,VWS V14.01,2013-01-31 06:27:00,
2013-01-31 01:28:00,52.0,48.0,29.21,South,190,6.0,11.0,86,0.09,,---,0.14,VWS V14.01,2013-01-31 06:28:00,
2013-01-31 01:29:00,52.0,48.0,29.21,SSW,203,4.0,8.0,86,0.09,,---,0.14,VWS V14.01,2013-01-31 06:29:00,
2013-01-31 01:30:00,52.0,48.0,29.16,SW,217,2.0,5.0,86,0.08,,---,0.14,VWS V14.01,2013-01-31 06:30:00,
2013-01-31 01:31:00,52.0,48.0,29.16,SW,229,4.0,5.0,86,0.09,,---,0.15,VWS V14.01,2013-01-31 06:31:00,
2013-01-31 01:32:00,52.0,48.0,29.16,SW,220,2.0,4.0,86,0.09,,---,0.15,VWS V14.01,2013-01-31 06:32:00,
2013-01-31 01:33:00,51.9,47.8,29.16,South,180,9.0,10.0,86,0.09,,---,0.15,VWS V14.01,2013-01-31 06:33:00,
2013-01-31 01:34:00,51.7,47.7,29.16,South,185,4.0,15.0,86,0.08,,---,0.15,VWS V14.01,2013-01-31 06:34:00,
2013-01-31 01:35:00,51.7,47.7,29.16,SSW,197,8.0,12.0,86,0.08,,---,0.15,VWS V14.01,2013-01-31 06:35:00,
2013-01-31 01:36:00,51.7,47.7,29.16,South,176,8.0,9.0,86,0.08,,---,0.15,VWS V14.01,2013-01-31 06:36:00,
2013-01-31 01:37:00,51.7,47.7,29.16,SSW,194,7.0,9.0,86,0.08,,---,0.15,VWS V14.01,2013-01-31 06:37:00,
2013-01-31 01:38:00,51.7,47.7,29.16,SW,215,0.0,4.0,86,0.08,,---,0.15,VWS V14.01,2013-01-31 06:38:00,
2013-01-31 01:39:00,51.7,47.7,29.16,SW,221,0.0,1.0,86,0.08,,---,0.15,VWS V14.01,2013-01-31 06:39:00,
2013-01-31 01:40:00,51.6,47.9,29.16,SSW,198,4.0,4.0,87,0.08,,---,0.15,VWS V14.01,2013-01-31 06:40:00,
2013-01-31 01:41:00,51.6,47.9,29.16,SSW,194,4.0,7.0,87,0.08,,---,0.15,VWS V14.01,2013-01-31 06:41:00,
2013-01-31 01:42:00,51.6,47.9,29.16,SSW,194,1.0,4.0,87,0.07,,---,0.15,VWS V14.01,2013-01-31 06:42:00,
2013-01-31 01:43:00,51.4,47.7,29.16,SW,217,5.0,11.0,87,0.08,,---,0.16,VWS V14.01,2013-01-31 06:43:00,
2013-01-31 01:44:00,51.4,47.4,29.16,SSW,192,2.0,14.0,86,0.08,,---,0.16,VWS V14.01,2013-01-31 06:44:00,
2013-01-31 01:45:00,51.4,47.4,29.19,SW,220,7.0,7.0,86,0.08,,---,0.16,VWS V14.01,2013-01-31 06:45:00,
2013-01-31 01:46:00,51.4,47.4,29.19,SSW,196,6.0,9.0,86,0.08,,---,0.16,VWS V14.01,2013-01-31 06:46:00,
2013-01-31 01:47:00,51.3,47.3,29.19,SW,214,11.0,11.0,86,0.07,,---,0.16,VWS V14.01,2013-01-31 06:47:00,
2013-01-31 01:48:00,51.3,47.3,29.19,South,181,6.0,7.0,86,0.07,,---,0.16,VWS V14.01,2013-01-31 06:48:00,
2013-01-31 01:49:00,51.3,47.3,29.19,SSE,161,11.0,13.0,86,0.08,,---,0.17,VWS V14.01,2013-01-31 06:49:00,
2013-01-31 01:50:00,51.1,46.4,29.19,SSW,205,13.0,25.0,84,0.08,,---,0.17,VWS V14.01,2013-01-31 06:50:00,
2013-01-31 01:51:00,51.1,46.4,29.19,SSW,200,4.0,13.0,84,0.08,,---,0.17,VWS V14.01,2013-01-31 06:51:00,
2013-01-31 01:52:00,51.1,46.4,29.19,SSW,196,13.0,13.0,84,0.08,,---,0.17,VWS V14.01,2013-01-31 06:52:00,
2013-01-31 01:53:00,51.1,46.4,29.19,West,262,4.0,11.0,84,0.08,,---,0.17,VWS V14.01,2013-01-31 06:53:00,
2013-01-31 01:54:00,51.0,46.0,29.19,South,177,8.0,10.0,83,0.08,,---,0.17,VWS V14.01,2013-01-31 06:54:00,
2013-01-31 01:55:00,51.0,46.0,29.19,SSW,196,9.0,16.0,83,0.07,,---,0.17,VWS V14.01,2013-01-31 06:55:00,
2013-01-31 01:56:00,51.0,46.0,29.19,ESE,112,5.0,9.0,83,0.07,,---,0.17,VWS V14.01,2013-01-31 06:56:00,
2013-01-31 01:57:00,51.0,46.0,29.19,ESE,112,2.0,5.0,83,0.07,,---,0.17,VWS V14.01,2013-01-31 06:57:00,
2013-01-31 01:58:00,50.8,45.8,29.19,South,181,6.0,15.0,83,0.07,,---,0.17,VWS V14.01,2013-01-31 06:58:00,
2013-01-31 01:59:00,50.8,45.5,29.19,South,186,9.0,15.0,82,0.07,,---,0.17,VWS V14.01,2013-01-31 06:59:00,
2013-01-31 02:00:00,50.8,45.2,29.23,West,271,5.0,9.0,81,0.06,,---,0.17,VWS V14.01,2013-01-31 07:00:00,
2013-01-31 02:01:00,50.8,45.2,29.23,SSW,202,6.0,12.0,81,0.06,,---,0.17,VWS V14.01,2013-01-31 07:01:00,
2013-01-31 02:02:00,50.8,45.2,29.23,West,259,8.0,8.0,81,0.06,,---,0.17,VWS V14.01,2013-01-31 07:02:00,
2013-01-31 02:03:00,50.7,45.1,29.23,WSW,240,3.0,10.0,81,0.07,,---,0.18,VWS V14.01,2013-01-31 07:03:00,
2013-01-31 02:04:00,50.5,44.9,29.23,SSW,210,2.0,5.0,81,0.07,,---,0.18,VWS V14.01,2013-01-31 07:04:00,
2013-01-31 02:05:00,50.5,44.9,29.23,SW,235,3.0,5.0,81,0.07,,---,0.18,VWS V14.01,2013-01-31 07:05:00,
2013-01-31 02:06:00,50.4,44.8,29.23,WSW,253,5.0,8.0,81,0.07,,---,0.18,VWS V14.01,2013-01-31 07:06:00,
2013-01-31 02:07:00,50.4,44.8,29.23,South,182,5.0,6.0,81,0.07,,---,0.18,VWS V14.01,2013-01-31 07:07:00,
2013-01-31 02:08:00,50.2,44.6,29.23,South,182,13.0,13.0,81,0.07,,---,0.18,VWS V14.01,2013-01-31 07:08:00,
2013-01-31 02:09:00,50.2,44.3,29.23,SSW,200,7.0,13.0,80,0.07,,---,0.18,VWS V14.01,2013-01-31 07:09:00,
2013-01-31 02:10:00,50.2,44.3,29.23,South,178,5.0,10.0,80,0.06,,---,0.18,VWS V14.01,2013-01-31 07:10:00,
2013-01-31 02:11:00,50.1,44.2,29.23,South,178,5.0,10.0,80,0.06,,---,0.18,VWS V14.01,2013-01-31 07:11:00,
2013-01-31 02:12:00,50.1,44.2,29.23,SSW,211,5.0,7.0,80,0.06,,---,0.18,VWS V14.01,2013-01-31 07:12:00,
2013-01-31 02:13:00,50.1,44.2,29.23,WSW,244,11.0,11.0,80,0.07,,---,0.19,VWS V14.01,2013-01-31 07:13:00,
2013-01-31 02:14:00,49.9,43.7,29.23,South,184,10.0,12.0,79,0.07,,---,0.19,VWS V14.01,2013-01-31 07:14:00,
2013-01-31 02:15:00,49.9,43.7,29.21,SW,236,7.0,12.0,79,0.07,,---,0.19,VWS V14.01,2013-01-31 07:15:00,
2013-01-31 02:16:00,49.9,43.3,29.21,SSW,192,2.0,7.0,78,0.06,,---,0.19,VWS V14.01,2013-01-31 07:16:00,
2013-01-31 02:17:00,49.9,43.3,29.21,SSW,196,4.0,4.0,78,0.06,,---,0.19,VWS V14.01,2013-01-31 07:17:00,
2013-01-31 02:18:00,49.9,43.3,29.21,South,182,8.0,12.0,78,0.06,,---,0.19,VWS V14.01,2013-01-31 07:18:00,
2013-01-31 02:19:00,49.8,43.2,29.21,SW,230,11.0,11.0,78,0.06,,---,0.19,VWS V14.01,2013-01-31 07:19:00,
2013-01-31 02:20:00,49.8,42.9,29.21,WSW,251,7.0,11.0,77,0.06,,---,0.19,VWS V14.01,2013-01-31 07:20:00,
2013-01-31 02:21:00,49.8,42.9,29.21,West,261,5.0,13.0,77,0.06,,---,0.19,VWS V14.01,2013-01-31 07:21:00,
2013-01-31 02:22:00,49.8,42.9,29.21,SW,235,7.0,10.0,77,0.06,,---,0.19,VWS V14.01,2013-01-31 07:22:00,
2013-01-31 02:23:00,49.8,42.5,29.21,WSW,240,4.0,10.0,76,0.06,,---,0.19,VWS V14.01,2013-01-31 07:23:00,
2013-01-31 02:24:00,49.8,42.5,29.21,WSW,242,4.0,7.0,76,0.06,,---,0.19,VWS V14.01,2013-01-31 07:24:00,
2013-01-31 02:25:00,49.6,42.7,29.21,South,182,1.0,6.0,77,0.06,,---,0.19,VWS V14.01,2013-01-31 07:25:00,
2013-01-31 02:26:00,49.6,42.7,29.21,West,273,7.0,9.0,77,0.05,,---,0.19,VWS V14.01,2013-01-31 07:26:00,
2013-01-31 02:27:00,49.6,42.7,29.21,WSW,247,5.0,8.0,77,0.05,,---,0.19,VWS V14.01,2013-01-31 07:27:00,
2013-01-31 02:28:00,49.6,42.7,29.21,South,178,6.0,9.0,77,0.06,,---,0.20,VWS V14.01,2013-01-31 07:28:00,
2013-01-31 02:29:00,49.5,42.6,29.21,SSW,205,7.0,7.0,77,0.06,,---,0.20,VWS V14.01,2013-01-31 07:29:00,
2013-01-31 02:30:00,49.5,42.6,29.22,SSW,202,6.0,9.0,77,0.06,,---,0.20,VWS V14.01,2013-01-31 07:30:00,
2013-01-31 02:31:00,49.5,42.6,29.22,WNW,289,4.0,7.0,77,0.06,,---,0.20,VWS V14.01,2013-01-31 07:31:00,
2013-01-31 02:32:00,49.5,42.6,29.22,West,264,5.0,5.0,77,0.05,,---,0.20,VWS V14.01,2013-01-31 07:32:00,
2013-01-31 02:33:00,49.5,42.3,29.22,WSW,248,7.0,14.0,76,0.05,,---,0.20,VWS V14.01,2013-01-31 07:33:00,
2013-01-31 02:34:00,49.5,42.3,29.22,WSW,239,4.0,10.0,76,0.05,,---,0.20,VWS V14.01,2013-01-31 07:34:00,
2013-01-31 02:35:00,49.5,42.3,29.22,WSW,240,6.0,7.0,76,0.05,,---,0.20,VWS V14.01,2013-01-31 07:35:00,
2013-01-31 02:36:00,49.5,42.3,29.22,West,275,7.0,10.0,76,0.05,,---,0.20,VWS V14.01,2013-01-31 07:36:00,
2013-01-31 02:37:00,49.5,42.3,29.22,West,270,7.0,10.0,76,0.05,,---,0.20,VWS V14.01,2013-01-31 07:37:00,
2013-01-31 02:38:00,49.5,42.3,29.22,SW,223,4.0,16.0,76,0.06,,---,0.21,VWS V14.01,2013-01-31 07:38:00,
2013-01-31 02:39:00,49.4,42.2,29.22,South,184,16.0,16.0,76,0.06,,---,0.21,VWS V14.01,2013-01-31 07:39:00,
2013-01-31 02:40:00,49.5,42.3,29.22,South,171,12.0,19.0,76,0.06,,---,0.21,VWS V14.01,2013-01-31 07:40:00,
2013-01-31 02:41:00,49.5,42.3,29.22,South,191,7.0,13.0,76,0.06,,---,0.21,VWS V14.01,2013-01-31 07:41:00,
2013-01-31 02:42:00,49.5,42.3,29.22,South,181,4.0,8.0,76,0.06,,---,0.21,VWS V14.01,2013-01-31 07:42:00,
2013-01-31 02:43:00,49.5,42.3,29.22,SSW,194,4.0,7.0,76,0.05,,---,0.21,VWS V14.01,2013-01-31 07:43:00,
2013-01-31 02:44:00,49.5,42.3,29.22,SSW,196,5.0,8.0,76,0.05,,---,0.21,VWS V14.01,2013-01-31 07:44:00,
2013-01-31 02:45:00,49.5,42.6,29.23,SSW,200,3.0,5.0,77,0.05,,---,0.21,VWS V14.01,2013-01-31 07:45:00,
2013-01-31 02:46:00,49.4,42.5,29.23,SW,236,8.0,13.0,77,0.05,,---,0.21,VWS V14.01,2013-01-31 07:46:00,
2013-01-31 02:47:00,49.4,42.5,29.23,West,267,8.0,8.0,77,0.05,,---,0.21,VWS V14.01,2013-01-31 07:47:00,
2013-01-31 02:48:00,49.2,42.3,29.23,South,189,6.0,10.0,77,0.05,,---,0.21,VWS V14.01,2013-01-31 07:48:00,
2013-01-31 02:49:00,49.2,42.6,29.23,SW,231,5.0,9.0,78,0.05,,---,0.21,VWS V14.01,2013-01-31 07:49:00,
2013-01-31 02:50:00,49.1,42.5,29.23,South,171,12.0,12.0,78,0.04,,---,0.21,VWS V14.01,2013-01-31 07:50:00,
2013-01-31 02:51:00,49.1,42.2,29.23,SW,218,11.0,19.0,77,0.04,,---,0.21,VWS V14.01,2013-01-31 07:51:00,
2013-01-31 02:52:00,49.1,42.2,29.23,West,268,7.0,11.0,77,0.04,,---,0.21,VWS V14.01,2013-01-31 07:52:00,
2013-01-31 02:53:00,49.1,42.2,29.23,SSW,200,8.0,12.0,77,0.04,,---,0.21,VWS V14.01,2013-01-31 07:53:00,
2013-01-31 02:54:00,49.1,42.2,29.23,WSW,257,8.0,16.0,77,0.04,,---,0.21,VWS V14.01,2013-01-31 07:54:00,
2013-01-31 02:55:00,49.1,41.5,29.23,WNW,292,10.0,15.0,75,0.04,,---,0.21,VWS V14.01,2013-01-31 07:55:00,
2013-01-31 02:56:00,48.9,41.3,29.23,SSW,199,16.0,20.0,75,0.04,,---,0.21,VWS V14.01,2013-01-31 07:56:00,
2013-01-31 02:57:00,48.9,41.3,29.23,WSW,247,10.0,16.0,75,0.05,,---,0.22,VWS V14.01,2013-01-31 07:57:00,
2013-01-31 02:58:00,48.8,39.1,29.23,West,274,10.0,16.0,69,0.05,,---,0.22,VWS V14.01,2013-01-31 07:58:00,
2013-01-31 02:59:00,48.8,39.1,29.23,WNW,302,10.0,13.0,69,0.05,,---,0.22,VWS V14.01,2013-01-31 07:59:00,
2013-01-31 03:00:00,48.6,38.9,29.25,WSW,240,6.0,14.0,69,0.05,,---,0.22,VWS V14.01,2013-01-31 08:00:00,
2013-01-31 03:01:00,48.5,38.1,29.25,SW,216,8.0,12.0,67,0.05,,---,0.22,VWS V14.01,2013-01-31 08:01:00,
2013-01-31 03:02:00,48.3,37.9,29.25,West,270,13.0,15.0,67,0.05,,---,0.22,VWS V14.01,2013-01-31 08:02:00,
2013-01-31 03:03:00,48.0,37.6,29.25,WNW,298,11.0,18.0,67,0.05,,---,0.22,VWS V14.01,2013-01-31 08:03:00,
2013-01-31 03:04:00,47.9,35.5,29.25,WSW,249,15.0,19.0,62,0.04,,---,0.22,VWS V14.01,2013-01-31 08:04:00,
2013-01-31 03:05:00,47.7,34.5,29.25,SW,226,12.0,16.0,60,0.04,,---,0.22,VWS V14.01,2013-01-31 08:05:00,
2013-01-31 03:06:00,47.7,34.9,29.25,WNW,301,12.0,15.0,61,0.04,,---,0.22,VWS V14.01,2013-01-31 08:06:00,
2013-01-31 03:07:00,47.6,34.8,29.25,WNW,296,8.0,13.0,61,0.04,,---,0.22,VWS V14.01,2013-01-31 08:07:00,
2013-01-31 03:08:00,47.4,35.0,29.25,WSW,258,5.0,18.0,62,0.04,,---,0.22,VWS V14.01,2013-01-31 08:08:00,
2013-01-31 03:09:00,47.3,35.0,29.25,WNW,282,12.0,14.0,62,0.04,,---,0.22,VWS V14.01,2013-01-31 08:09:00,
2013-01-31 03:10:00,47.3,34.5,29.25,West,261,6.0,12.0,61,0.04,,---,0.22,VWS V14.01,2013-01-31 08:10:00,
2013-01-31 03:11:00,47.1,34.4,29.25,NW,304,11.0,12.0,61,0.04,,---,0.22,VWS V14.01,2013-01-31 08:11:00,
2013-01-31 03:12:00,47.1,34.8,29.25,WNW,298,3.0,11.0,62,0.04,,---,0.22,VWS V14.01,2013-01-31 08:12:00,
2013-01-31 03:13:00,47.0,34.7,29.25,SSW,208,6.0,8.0,62,0.03,,---,0.22,VWS V14.01,2013-01-31 08:13:00,
2013-01-31 03:14:00,46.8,34.5,29.25,WNW,303,5.0,19.0,62,0.03,,---,0.22,VWS V14.01,2013-01-31 08:14:00,
2013-01-31 03:15:00,46.8,34.5,29.26,WSW,250,11.0,15.0,62,0.03,,---,0.22,VWS V14.01,2013-01-31 08:15:00,
2013-01-31 03:16:00,46.7,34.4,29.26,WSW,256,8.0,13.0,62,0.03,,---,0.22,VWS V14.01,2013-01-31 08:16:00,
2013-01-31 03:17:00,46.7,34.4,29.26,WNW,302,13.0,13.0,62,0.03,,---,0.22,VWS V14.01,2013-01-31 08:17:00,
2013-01-31 03:18:00,46.7,34.4,29.26,WSW,247,8.0,16.0,62,0.03,,---,0.22,VWS V14.01,2013-01-31 08:18:00,
2013-01-31 03:19:00,46.5,34.2,29.26,West,269,15.0,16.0,62,0.03,,---,0.22,VWS V14.01,2013-01-31 08:19:00,
2013-01-31 03:20:00,46.5,34.2,29.26,SW,217,12.0,16.0,62,0.03,,---,0.22,VWS V14.01,2013-01-31 08:20:00,
2013-01-31 03:21:00,46.5,34.2,29.26,SW,221,12.0,13.0,62,0.03,,---,0.22,VWS V14.01,2013-01-31 08:21:00,
2013-01-31 03:22:00,46.5,34.2,29.26,SSW,207,7.0,12.0,62,0.03,,---,0.22,VWS V14.01,2013-01-31 08:22:00,
2013-01-31 03:23:00,46.5,34.6,29.26,West,276,4.0,9.0,63,0.03,,---,0.22,VWS V14.01,2013-01-31 08:23:00,
2013-01-31 03:24:00,46.5,34.6,29.26,WSW,257,4.0,12.0,63,0.03,,---,0.22,VWS V14.01,2013-01-31 08:24:00,
2013-01-31 03:25:00,46.4,34.5,29.26,WSW,257,4.0,10.0,63,0.03,,---,0.22,VWS V14.01,2013-01-31 08:25:00,
2013-01-31 03:26:00,46.4,34.5,29.26,West,261,5.0,13.0,63,0.03,,---,0.22,VWS V14.01,2013-01-31 08:26:00,
2013-01-31 03:27:00,46.4,34.5,29.26,WNW,290,4.0,8.0,63,0.03,,---,0.22,VWS V14.01,2013-01-31 08:27:00,
2013-01-31 03:28:00,46.2,34.3,29.26,West,270,5.0,15.0,63,0.04,,---,0.23,VWS V14.01,2013-01-31 08:28:00,
2013-01-31 03:29:00,46.2,33.9,29.26,WSW,251,6.0,14.0,62,0.03,,---,0.23,VWS V14.01,2013-01-31 08:29:00,
2013-01-31 03:30:00,46.2,33.9,29.27,WSW,257,9.0,13.0,62,0.03,,---,0.23,VWS V14.01,2013-01-31 08:30:00,
2013-01-31 03:31:00,46.1,33.8,29.27,SW,232,9.0,12.0,62,0.03,,---,0.23,VWS V14.01,2013-01-31 08:31:00,
2013-01-31 03:32:00,46.1,33.8,29.27,SW,227,11.0,11.0,62,0.03,,---,0.23,VWS V14.01,2013-01-31 08:32:00,
2013-01-31 03:33:00,46.2,33.5,29.27,South,185,8.0,12.0,61,0.03,,---,0.23,VWS V14.01,2013-01-31 08:33:00,
2013-01-31 03:34:00,46.1,33.8,29.27,West,277,13.0,13.0,62,0.03,,---,0.23,VWS V14.01,2013-01-31 08:34:00,
2013-01-31 03:35:00,46.1,33.8,29.27,West,269,5.0,13.0,62,0.03,,---,0.23,VWS V14.01,2013-01-31 08:35:00,
2013-01-31 03:36:00,46.1,33.8,29.27,WNW,282,5.0,11.0,62,0.03,,---,0.23,VWS V14.01,2013-01-31 08:36:00,
2013-01-31 03:37:00,46.1,33.8,29.27,NW,312,5.0,6.0,62,0.03,,---,0.23,VWS V14.01,2013-01-31 08:37:00,
2013-01-31 03:38:00,46.1,33.8,29.27,West,271,6.0,13.0,62,0.03,,---,0.23,VWS V14.01,2013-01-31 08:38:00,
2013-01-31 03:39:00,46.0,33.3,29.27,WNW,289,6.0,11.0,61,0.02,,---,0.23,VWS V14.01,2013-01-31 08:39:00,
2013-01-31 03:40:00,46.0,33.3,29.27,WNW,292,7.0,9.0,61,0.02,,---,0.23,VWS V14.01,2013-01-31 08:40:00,
2013-01-31 03:41:00,46.0,33.7,29.27,WSW,242,9.0,19.0,62,0.02,,---,0.23,VWS V14.01,2013-01-31 08:41:00,
2013-01-31 03:42:00,46.0,32.9,29.27,WSW,248,9.0,10.0,60,0.02,,---,0.23,VWS V14.01,2013-01-31 08:42:00,
2013-01-31 03:43:00,46.0,33.3,29.27,WNW,294,11.0,15.0,61,0.02,,---,0.23,VWS V14.01,2013-01-31 08:43:00,
2013-01-31 03:44:00,46.0,32.9,29.27,SW,231,10.0,11.0,60,0.02,,---,0.23,VWS V14.01,2013-01-31 08:44:00,
2013-01-31 03:45:00,46.0,33.3,29.29,West,259,8.0,13.0,61,0.02,,---,0.23,VWS V14.01,2013-01-31 08:45:00,
2013-01-31 03:46:00,46.0,32.9,29.29,SW,219,9.0,13.0,60,0.02,,---,0.23,VWS V14.01,2013-01-31 08:46:00,
2013-01-31 03:47:00,46.0,32.5,29.29,SSW,203,7.0,9.0,59,0.02,,---,0.23,VWS V14.01,2013-01-31 08:47:00,
2013-01-31 03:48:00,45.8,32.7,29.29,WSW,256,6.0,15.0,60,0.02,,---,0.23,VWS V14.01,2013-01-31 08:48:00,
2013-01-31 03:49:00,45.7,32.6,29.29,SW,218,6.0,11.0,60,0.02,,---,0.23,VWS V14.01,2013-01-31 08:49:00,
2013-01-31 03:50:00,45.7,32.6,29.29,SSW,207,6.0,10.0,60,0.02,,---,0.23,VWS V14.01,2013-01-31 08:50:00,
2013-01-31 03:51:00,45.5,32.8,29.29,SSW,209,9.0,14.0,61,0.02,,---,0.23,VWS V14.01,2013-01-31 08:51:00,
2013-01-31 03:52:00,45.5,32.8,29.29,South,185,8.0,13.0,61,0.02,,---,0.23,VWS V14.01,2013-01-31 08:52:00,
2013-01-31 03:53:00,45.4,32.3,29.29,SSW,196,7.0,16.0,60,0.02,,---,0.23,VWS V14.01,2013-01-31 08:53:00,
2013-01-31 03:54:00,45.4,31.9,29.29,SW,233,10.0,14.0,59,0.02,,---,0.23,VWS V14.01,2013-01-31 08:54:00,
2013-01-31 03:55:00,45.4,32.3,29.29,SW,228,4.0,10.0,60,0.02,,---,0.23,VWS V14.01,2013-01-31 08:55:00,
2013-01-31 03:56:00,45.2,32.6,29.29,SW,225,6.0,7.0,61,0.02,,---,0.23,VWS V14.01,2013-01-31 08:56:00,
2013-01-31 03:57:00,45.2,32.6,29.29,WSW,238,6.0,8.0,61,0.02,,---,0.23,VWS V14.01,2013-01-31 08:57:00,
2013-01-31 03:58:00,45.1,32.1,29.29,West,267,9.0,14.0,60,0.01,,---,0.23,VWS V14.01,2013-01-31 08:58:00,
2013-01-31 03:59:00,45.1,32.1,29.29,SSW,213,5.0,10.0,60,0.01,,---,0.23,VWS V14.01,2013-01-31 08:59:00,
2013-01-31 04:00:00,44.9,31.9,29.30,WSW,238,11.0,19.0,60,0.01,,---,0.23,VWS V14.01,2013-01-31 09:00:00,
2013-01-31 04:01:00,44.9,31.9,29.30,WSW,237,7.0,13.0,60,0.01,,---,0.23,VWS V14.01,2013-01-31 09:01:00,
2013-01-31 04:02:00,44.9,31.9,29.30,SW,236,6.0,7.0,60,0.01,,---,0.23,VWS V14.01,2013-01-31 09:02:00,
2013-01-31 04:03:00,44.9,31.9,29.30,WNW,298,9.0,10.0,60,0.01,,---,0.23,VWS V14.01,2013-01-31 09:03:00,
2013-01-31 04:04:00,44.9,31.9,29.30,West,269,5.0,9.0,60,0.01,,---,0.23,VWS V14.01,2013-01-31 09:04:00,
2013-01-31 04:05:00,44.9,31.9,29.30,West,259,1.0,9.0,60,0.01,,---,0.23,VWS V14.01,2013-01-31 09:05:00,
2013-01-31 04:06:00,44.8,32.2,29.30,West,281,4.0,5.0,61,0.01,,---,0.23,VWS V14.01,2013-01-31 09:06:00,
2013-01-31 04:07:00,44.8,32.2,29.30,WNW,298,7.0,7.0,61,0.01,,---,0.23,VWS V14.01,2013-01-31 09:07:00,
2013-01-31 04:08:00,44.6,32.0,29.30,NW,311,0.0,6.0,61,0.01,,---,0.23,VWS V14.01,2013-01-31 09:08:00,
2013-01-31 04:09:00,44.6,32.4,29.30,WNW,297,4.0,6.0,62,0.01,,---,0.23,VWS V14.01,2013-01-31 09:09:00,
2013-01-31 04:10:00,44.5,32.3,29.30,SW,214,6.0,9.0,62,0.01,,---,0.23,VWS V14.01,2013-01-31 09:10:00,
2013-01-31 04:11:00,44.3,32.1,29.30,SW,219,4.0,8.0,62,0.01,,---,0.23,VWS V14.01,2013-01-31 09:11:00,
2013-01-31 04:12:00,44.3,32.1,29.30,SW,219,4.0,4.0,62,0.01,,---,0.23,VWS V14.01,2013-01-31 09:12:00,
2013-01-31 04:13:00,44.3,32.1,29.30,SSW,195,4.0,6.0,62,0.01,,---,0.23,VWS V14.01,2013-01-31 09:13:00,
2013-01-31 04:14:00,44.2,32.0,29.30,South,189,1.0,5.0,62,0.01,,---,0.23,VWS V14.01,2013-01-31 09:14:00,
2013-01-31 04:15:00,44.2,32.0,29.33,South,182,6.0,9.0,62,0.01,,---,0.23,VWS V14.01,2013-01-31 09:15:00,
2013-01-31 04:16:00,44.2,32.0,29.33,SSW,211,5.0,9.0,62,0.01,,---,0.23,VWS V14.01,2013-01-31 09:16:00,
2013-01-31 04:17:00,44.2,32.0,29.33,SSW,211,6.0,6.0,62,0.01,,---,0.23,VWS V14.01,2013-01-31 09:17:00,
2013-01-31 04:18:00,44.2,32.0,29.33,West,272,4.0,7.0,62,0.01,,---,0.23,VWS V14.01,2013-01-31 09:18:00,
2013-01-31 04:19:00,44.2,32.0,29.33,WSW,254,6.0,8.0,62,0.01,,---,0.23,VWS V14.01,2013-01-31 09:19:00,
2013-01-31 04:20:00,44.2,32.0,29.33,SW,217,5.0,9.0,62,0.01,,---,0.23,VWS V14.01,2013-01-31 09:20:00,
2013-01-31 04:21:00,44.2,32.0,29.33,SSW,205,4.0,5.0,62,0.01,,---,0.23,VWS V14.01,2013-01-31 09:21:00,
2013-01-31 04:22:00,44.2,32.0,29.33,SSW,205,2.0,4.0,62,0.01,,---,0.23,VWS V14.01,2013-01-31 09:22:00,
2013-01-31 04:23:00,44.1,32.3,29.33,WSW,248,2.0,7.0,63,0.01,,---,0.23,VWS V14.01,2013-01-31 09:23:00,
2013-01-31 04:24:00,44.1,32.3,29.33,SSW,207,5.0,6.0,63,0.01,,---,0.23,VWS V14.01,2013-01-31 09:24:00,
2013-01-31 04:25:00,44.1,31.9,29.33,SW,232,2.0,6.0,62,0.01,,---,0.23,VWS V14.01,2013-01-31 09:25:00,
2013-01-31 04:26:00,43.9,32.1,29.33,WSW,238,5.0,7.0,63,0.01,,---,0.23,VWS V14.01,2013-01-31 09:26:00,
2013-01-31 04:27:00,43.9,32.1,29.33,WSW,238,4.0,5.0,63,0.01,,---,0.23,VWS V14.01,2013-01-31 09:27:00,
2013-01-31 04:28:00,43.9,32.1,29.33,SW,218,2.0,5.0,63,0.00,,---,0.23,VWS V14.01,2013-01-31 09:28:00,
2013-01-31 04:29:00,43.8,32.4,29.33,WSW,250,0.0,5.0,64,0.00,,---,0.23,VWS V14.01,2013-01-31 09:29:00,
2013-01-31 04:30:00,43.8,32.4,29.34,West,269,5.0,9.0,64,0.00,,---,0.23,VWS V14.01,2013-01-31 09:30:00,
2013-01-31 04:31:00,43.6,32.2,29.34,WSW,255,6.0,8.0,64,0.00,,---,0.23,VWS V14.01,2013-01-31 09:31:00,
2013-01-31 04:32:00,43.6,32.2,29.34,WSW,256,4.0,6.0,64,0.00,,---,0.23,VWS V14.01,2013-01-31 09:32:00,
2013-01-31 04:33:00,43.5,32.2,29.34,SW,224,9.0,13.0,64,0.00,,---,0.23,VWS V14.01,2013-01-31 09:33:00,
2013-01-31 04:34:00,43.5,31.8,29.34,WNW,292,18.0,19.0,63,0.00,,---,0.23,VWS V14.01,2013-01-31 09:34:00,
2013-01-31 04:35:00,43.5,31.4,29.34,WNW,299,14.0,18.0,62,0.00,,---,0.23,VWS V14.01,2013-01-31 09:35:00,
2013-01-31 04:36:00,43.6,31.0,29.34,WSW,252,8.0,19.0,61,0.00,,---,0.23,VWS V14.01,2013-01-31 09:36:00,
2013-01-31 04:37:00,43.6,31.0,29.34,SW,223,8.0,8.0,61,0.00,,---,0.23,VWS V14.01,2013-01-31 09:37:00,
2013-01-31 04:38:00,43.6,31.5,29.34,SW,225,13.0,13.0,62,0.00,,---,0.23,VWS V14.01,2013-01-31 09:38:00,
2013-01-31 04:39:00,43.5,31.4,29.34,SSW,204,13.0,15.0,62,0.00,,---,0.23,VWS V14.01,2013-01-31 09:39:00,
2013-01-31 04:40:00,43.5,31.0,29.34,SW,235,10.0,19.0,61,0.00,,---,0.23,VWS V14.01,2013-01-31 09:40:00,
2013-01-31 04:41:00,43.5,30.5,29.34,SSW,200,8.0,14.0,60,0.00,,---,0.23,VWS V14.01,2013-01-31 09:41:00,
2013-01-31 04:42:00,43.5,30.5,29.34,SSW,202,7.0,8.0,60,0.00,,---,0.23,VWS V14.01,2013-01-31 09:42:00,
2013-01-31 04:43:00,43.3,30.0,29.34,WSW,245,10.0,24.0,59,0.00,,---,0.23,VWS V14.01,2013-01-31 09:43:00,
2013-01-31 04:44:00,43.3,30.4,29.34,NW,325,11.0,14.0,60,0.00,,---,0.23,VWS V14.01,2013-01-31 09:44:00,
2013-01-31 04:45:00,43.2,30.3,29.36,West,265,6.0,12.0,60,0.00,,---,0.23,VWS V14.01,2013-01-31 09:45:00,
2013-01-31 04:46:00,43.1,30.2,29.36,WSW,250,9.0,18.0,60,0.00,,---,0.23,VWS V14.01,2013-01-31 09:46:00,
2013-01-31 04:47:00,43.1,30.2,29.36,WSW,250,9.0,9.0,60,0.00,,---,0.23,VWS V14.01,2013-01-31 09:47:00,
2013-01-31 04:48:00,42.9,30.0,29.36,WSW,249,9.0,12.0,60,0.00,,---,0.23,VWS V14.01,2013-01-31 09:48:00,
2013-01-31 04:49:00,42.9,30.0,29.36,WSW,252,4.0,14.0,60,0.00,,---,0.23,VWS V14.01,2013-01-31 09:49:00,
2013-01-31 04:50:00,42.9,30.4,29.36,WSW,242,7.0,14.0,61,0.00,,---,0.23,VWS V14.01,2013-01-31 09:50:00,
2013-01-31 04:51:00,42.9,30.4,29.36,SW,225,9.0,10.0,61,0.00,,---,0.23,VWS V14.01,2013-01-31 09:51:00,
2013-01-31 04:52:00,42.9,30.4,29.36,SW,225,9.0,9.0,61,0.00,,---,0.23,VWS V14.01,2013-01-31 09:52:00,
2013-01-31 04:53:00,42.8,30.7,29.36,West,259,8.0,20.0,62,0.00,,---,0.23,VWS V14.01,2013-01-31 09:53:00,
2013-01-31 04:54:00,42.8,30.7,29.36,WSW,246,10.0,10.0,62,0.00,,---,0.23,VWS V14.01,2013-01-31 09:54:00,
2013-01-31 04:55:00,42.6,30.5,29.36,SW,223,14.0,14.0,62,0.00,,---,0.23,VWS V14.01,2013-01-31 09:55:00,
2013-01-31 04:56:00,42.6,29.7,29.36,West,269,6.0,18.0,60,0.00,,---,0.23,VWS V14.01,2013-01-31 09:56:00,
2013-01-31 04:57:00,42.6,29.7,29.36,West,269,6.0,18.0,60,0.00,,---,0.23,VWS V14.01,2013-01-31 09:57:00,
2013-01-31 04:58:00,42.6,29.3,29.36,WNW,288,10.0,18.0,59,0.00,,---,0.23,VWS V14.01,2013-01-31 09:58:00,
2013-01-31 04:59:00,42.6,29.7,29.36,West,269,8.0,15.0,60,0.00,,---,0.23,VWS V14.01,2013-01-31 09:59:00,
2013-01-31 05:00:00,42.6,29.7,29.40,West,275,11.0,21.0,60,0.00,,---,0.23,VWS V14.01,2013-01-31 10:00:00,
2013-01-31 05:01:00,42.5,30.0,29.40,West,267,13.0,20.0,61,0.00,,---,0.23,VWS V14.01,2013-01-31 10:01:00,
2013-01-31 05:02:00,42.5,30.0,29.40,West,267,13.0,20.0,61,0.00,,---,0.23,VWS V14.01,2013-01-31 10:02:00,
2013-01-31 05:03:00,42.1,30.8,29.40,WNW,290,6.0,18.0,64,0.00,,---,0.23,VWS V14.01,2013-01-31 10:03:00,
2013-01-31 05:04:00,41.8,31.3,29.40,WSW,255,8.0,12.0,66,0.00,,---,0.23,VWS V14.01,2013-01-31 10:04:00,
2013-01-31 05:05:00,41.6,31.1,29.40,WNW,296,19.0,19.0,66,0.00,,---,0.23,VWS V14.01,2013-01-31 10:05:00,
2013-01-31 05:06:00,41.3,31.2,29.40,SW,219,10.0,19.0,67,0.00,,---,0.23,VWS V14.01,2013-01-31 10:06:00,
2013-01-31 05:07:00,41.3,31.2,29.40,SW,219,10.0,19.0,67,0.00,,---,0.23,VWS V14.01,2013-01-31 10:07:00,
2013-01-31 05:08:00,40.8,31.1,29.40,SSE,167,8.0,12.0,68,0.00,,---,0.23,VWS V14.01,2013-01-31 10:08:00,
2013-01-31 05:09:00,40.5,31.1,29.40,WSW,240,8.0,15.0,69,0.00,,---,0.23,VWS V14.01,2013-01-31 10:09:00,
2013-01-31 05:10:00,40.3,31.3,29.40,SW,226,7.0,10.0,70,0.00,,---,0.23,VWS V14.01,2013-01-31 10:10:00,
2013-01-31 05:11:00,40.1,31.1,29.40,SW,225,11.0,11.0,70,0.00,,---,0.23,VWS V14.01,2013-01-31 10:11:00,
2013-01-31 05:12:00,40.1,31.1,29.40,SW,225,11.0,11.0,70,0.00,,---,0.23,VWS V14.01,2013-01-31 10:12:00,
2013-01-31 05:13:00,39.8,30.8,29.40,SSW,212,9.0,13.0,70,0.00,,---,0.23,VWS V14.01,2013-01-31 10:13:00,
2013-01-31 05:14:00,39.6,30.6,29.40,West,261,7.0,10.0,70,0.00,,---,0.23,VWS V14.01,2013-01-31 10:14:00,
2013-01-31 05:15:00,39.5,30.5,29.41,WSW,242,5.0,9.0,70,0.00,,---,0.23,VWS V14.01,2013-01-31 10:15:00,
2013-01-31 05:16:00,39.5,30.2,29.41,West,263,6.0,14.0,69,0.00,,---,0.23,VWS V14.01,2013-01-31 10:16:00,
2013-01-31 05:17:00,39.5,30.2,29.41,West,263,8.0,14.0,69,0.00,,---,0.23,VWS V14.01,2013-01-31 10:17:00,
2013-01-31 05:18:00,39.5,29.8,29.41,SSW,213,7.0,9.0,68,0.00,,---,0.23,VWS V14.01,2013-01-31 10:18:00,
2013-01-31 05:19:00,39.5,29.8,29.41,SSW,192,13.0,15.0,68,0.00,,---,0.23,VWS V14.01,2013-01-31 10:19:00,
2013-01-31 05:20:00,39.5,29.5,29.41,SSW,205,12.0,18.0,67,0.01,,---,0.24,VWS V14.01,2013-01-31 10:20:00,
2013-01-31 05:21:00,39.5,29.1,29.41,SSW,207,4.0,12.0,66,0.01,,---,0.24,VWS V14.01,2013-01-31 10:21:00,
2013-01-31 05:22:00,39.5,29.1,29.41,SSW,207,5.0,12.0,66,0.01,,---,0.24,VWS V14.01,2013-01-31 10:22:00,
2013-01-31 05:23:00,39.6,28.8,29.41,WSW,253,6.0,18.0,65,0.01,,---,0.24,VWS V14.01,2013-01-31 10:23:00,
2013-01-31 05:24:00,39.6,28.8,29.41,South,190,13.0,14.0,65,0.01,,---,0.24,VWS V14.01,2013-01-31 10:24:00,
2013-01-31 05:25:00,39.6,28.4,29.41,SW,214,5.0,14.0,64,0.01,,---,0.24,VWS V14.01,2013-01-31 10:25:00,
2013-01-31 05:26:00,39.6,28.8,29.41,WSW,257,8.0,21.0,65,0.01,,---,0.24,VWS V14.01,2013-01-31 10:26:00,
2013-01-31 05:27:00,39.6,28.8,29.41,SW,229,12.0,21.0,65,0.01,,---,0.24,VWS V14.01,2013-01-31 10:27:00,
2013-01-31 05:28:00,39.6,28.1,29.41,WSW,253,9.0,11.0,63,0.01,,---,0.24,VWS V14.01,2013-01-31 10:28:00,
2013-01-31 05:29:00,39.6,28.1,29.41,SW,228,8.0,9.0,63,0.01,,---,0.24,VWS V14.01,2013-01-31 10:29:00,
2013-01-31 05:30:00,39.6,28.1,29.42,WSW,258,8.0,10.0,63,0.01,,---,0.24,VWS V14.01,2013-01-31 10:30:00,
2013-01-31 05:31:00,39.6,28.1,29.42,WNW,287,12.0,13.0,63,0.01,,---,0.24,VWS V14.01,2013-01-31 10:31:00,
2013-01-31 05:32:00,39.6,28.1,29.42,WNW,298,10.0,13.0,63,0.01,,---,0.24,VWS V14.01,2013-01-31 10:32:00,
2013-01-31 05:33:00,39.6,27.3,29.42,SSW,197,10.0,12.0,61,0.01,,---,0.24,VWS V14.01,2013-01-31 10:33:00,
2013-01-31 05:34:00,39.8,27.5,29.42,West,269,2.0,14.0,61,0.01,,---,0.24,VWS V14.01,2013-01-31 10:34:00,
2013-01-31 05:35:00,39.8,27.5,29.42,SSW,196,19.0,19.0,61,0.01,,---,0.24,VWS V14.01,2013-01-31 10:35:00,
2013-01-31 05:36:00,39.8,27.5,29.42,SW,226,10.0,19.0,61,0.01,,---,0.24,VWS V14.01,2013-01-31 10:36:00,
2013-01-31 05:37:00,39.8,27.5,29.42,WSW,241,15.0,19.0,61,0.01,,---,0.24,VWS V14.01,2013-01-31 10:37:00,
2013-01-31 05:38:00,39.8,27.5,29.42,WSW,242,11.0,14.0,61,0.01,,---,0.24,VWS V14.01,2013-01-31 10:38:00,
2013-01-31 05:39:00,39.8,27.9,29.42,SSW,205,10.0,16.0,62,0.01,,---,0.24,VWS V14.01,2013-01-31 10:39:00,
2013-01-31 05:40:00,39.8,27.9,29.42,WSW,252,8.0,13.0,62,0.01,,---,0.24,VWS V14.01,2013-01-31 10:40:00,
2013-01-31 05:41:00,39.6,28.1,29.42,WSW,242,5.0,16.0,63,0.01,,---,0.24,VWS V14.01,2013-01-31 10:41:00,
2013-01-31 05:42:00,39.6,28.1,29.42,NW,319,7.0,16.0,63,0.01,,---,0.24,VWS V14.01,2013-01-31 10:42:00,
2013-01-31 05:43:00,39.5,28.4,29.42,WSW,254,9.0,13.0,64,0.01,,---,0.24,VWS V14.01,2013-01-31 10:43:00,
2013-01-31 05:44:00,39.3,28.2,29.42,WNW,292,1.0,12.0,64,0.01,,---,0.24,VWS V14.01,2013-01-31 10:44:00,
2013-01-31 05:45:00,39.2,28.1,29.44,WSW,246,7.0,10.0,64,0.01,,---,0.24,VWS V14.01,2013-01-31 10:45:00,
2013-01-31 05:46:00,39.1,28.0,29.44,WSW,242,6.0,12.0,64,0.01,,---,0.24,VWS V14.01,2013-01-31 10:46:00,
2013-01-31 05:47:00,39.1,28.0,29.44,WSW,244,8.0,12.0,64,0.01,,---,0.24,VWS V14.01,2013-01-31 10:47:00,
2013-01-31 05:48:00,38.9,27.8,29.44,WNW,296,8.0,13.0,64,0.01,,---,0.24,VWS V14.01,2013-01-31 10:48:00,
2013-01-31 05:49:00,38.8,27.7,29.44,SSW,211,10.0,16.0,64,0.01,,---,0.24,VWS V14.01,2013-01-31 10:49:00,
2013-01-31 05:50:00,38.8,26.9,29.44,WSW,252,5.0,15.0,62,0.01,,---,0.24,VWS V14.01,2013-01-31 10:50:00,
2013-01-31 05:51:00,38.6,26.3,29.44,SW,234,7.0,13.0,61,0.01,,---,0.24,VWS V14.01,2013-01-31 10:51:00,
2013-01-31 05:52:00,38.6,26.3,29.44,SW,228,6.0,13.0,61,0.01,,---,0.24,VWS V14.01,2013-01-31 10:52:00,
2013-01-31 05:53:00,38.5,25.8,29.44,West,263,10.0,12.0,60,0.01,,---,0.24,VWS V14.01,2013-01-31 10:53:00,
2013-01-31 05:54:00,38.5,25.0,29.44,WSW,256,10.0,14.0,58,0.01,,---,0.24,VWS V14.01,2013-01-31 10:54:00,
2013-01-31 05:55:00,38.5,24.2,29.44,West,265,6.0,15.0,56,0.01,,---,0.24,VWS V14.01,2013-01-31 10:55:00,
2013-01-31 05:56:00,38.5,25.0,29.44,WSW,251,7.0,8.0,58,0.01,,---,0.24,VWS V14.01,2013-01-31 10:56:00,
2013-01-31 05:57:00,38.5,24.2,29.44,WSW,251,5.0,8.0,56,0.01,,---,0.24,VWS V14.01,2013-01-31 10:57:00,
2013-01-31 05:58:00,38.3,24.0,29.44,West,263,10.0,13.0,56,0.01,,---,0.24,VWS V14.01,2013-01-31 10:58:00,
2013-01-31 05:59:00,38.3,24.0,29.44,West,276,13.0,14.0,56,0.01,,---,0.24,VWS V14.01,2013-01-31 10:59:00,
2013-01-31 06:00:00,38.3,24.0,29.46,West,269,6.0,13.0,56,0.01,,---,0.24,VWS V14.01,2013-01-31 11:00:00,
2013-01-31 06:01:00,38.3,24.0,29.46,South,190,7.0,9.0,56,0.01,,---,0.24,VWS V14.01,2013-01-31 11:01:00,
2013-01-31 06:02:00,38.3,24.0,29.46,WSW,244,2.0,9.0,56,0.01,,---,0.24,VWS V14.01,2013-01-31 11:02:00,
2013-01-31 06:03:00,38.3,23.1,29.46,WSW,258,22.0,22.0,54,0.01,,---,0.24,VWS V14.01,2013-01-31 11:03:00,
2013-01-31 06:04:00,38.3,23.1,29.46,West,263,6.0,22.0,54,0.01,,---,0.24,VWS V14.01,2013-01-31 11:04:00,
2013-01-31 06:05:00,38.3,23.1,29.46,SSW,202,9.0,13.0,54,0.01,,---,0.24,VWS V14.01,2013-01-31 11:05:00,
2013-01-31 06:06:00,38.3,23.1,29.46,South,186,11.0,14.0,54,0.01,,---,0.24,VWS V14.01,2013-01-31 11:06:00,
2013-01-31 06:07:00,38.3,23.1,29.46,South,186,14.0,14.0,54,0.01,,---,0.24,VWS V14.01,2013-01-31 11:07:00,
2013-01-31 06:08:00,38.3,22.2,29.46,WSW,239,7.0,20.0,52,0.01,,---,0.24,VWS V14.01,2013-01-31 11:08:00,
2013-01-31 06:09:00,38.5,22.4,29.46,SW,236,7.0,10.0,52,0.01,,---,0.24,VWS V14.01,2013-01-31 11:09:00,
2013-01-31 06:10:00,38.5,22.9,29.46,SSW,205,6.0,11.0,53,0.01,,---,0.24,VWS V14.01,2013-01-31 11:10:00,
2013-01-31 06:11:00,38.5,22.9,29.46,South,186,8.0,11.0,53,0.01,,---,0.24,VWS V14.01,2013-01-31 11:11:00,
2013-01-31 06:12:00,38.5,22.9,29.46,South,176,8.0,11.0,53,0.01,,---,0.24,VWS V14.01,2013-01-31 11:12:00,
2013-01-31 06:13:00,38.3,22.7,29.46,SW,225,6.0,8.0,53,0.01,,---,0.24,VWS V14.01,2013-01-31 11:13:00,
2013-01-31 06:14:00,38.3,22.7,29.46,WNW,292,8.0,11.0,53,0.01,,---,0.24,VWS V14.01,2013-01-31 11:14:00,
2013-01-31 06:15:00,38.3,22.2,29.47,SSW,213,7.0,14.0,52,0.01,,---,0.24,VWS V14.01,2013-01-31 11:15:00,
2013-01-31 06:16:00,38.5,22.9,29.47,South,172,11.0,11.0,53,0.01,,---,0.24,VWS V14.01,2013-01-31 11:16:00,
2013-01-31 06:17:00,38.5,22.9,29.47,South,173,9.0,10.0,53,0.01,,---,0.24,VWS V14.01,2013-01-31 11:17:00,
2013-01-31 06:18:00,38.5,22.9,29.47,SSW,213,8.0,11.0,53,0.01,,---,0.24,VWS V14.01,2013-01-31 11:18:00,
2013-01-31 06:19:00,38.5,22.4,29.47,SW,215,8.0,14.0,52,0.01,,---,0.24,VWS V14.01,2013-01-31 11:19:00,
2013-01-31 06:20:00,38.5,22.4,29.47,NW,311,10.0,16.0,52,0.01,,---,0.24,VWS V14.01,2013-01-31 11:20:00,
2013-01-31 06:21:00,38.5,22.4,29.47,WNW,285,5.0,10.0,52,0.00,,---,0.24,VWS V14.01,2013-01-31 11:21:00,
2013-01-31 06:22:00,38.5,22.4,29.47,WNW,285,9.0,10.0,52,0.00,,---,0.24,VWS V14.01,2013-01-31 11:22:00,
2013-01-31 06:23:00,38.5,23.3,29.47,WSW,238,8.0,9.0,54,0.00,,---,0.24,VWS V14.01,2013-01-31 11:23:00,
2013-01-31 06:24:00,38.5,22.9,29.47,WNW,282,5.0,8.0,53,0.00,,---,0.24,VWS V14.01,2013-01-31 11:24:00,
2013-01-31 06:25:00,38.3,23.1,29.47,SW,232,9.0,12.0,54,0.00,,---,0.24,VWS V14.01,2013-01-31 11:25:00,
2013-01-31 06:26:00,38.3,22.7,29.47,WSW,248,2.0,13.0,53,0.00,,---,0.24,VWS V14.01,2013-01-31 11:26:00,
2013-01-31 06:27:00,38.3,22.7,29.47,WSW,249,5.0,13.0,53,0.00,,---,0.24,VWS V14.01,2013-01-31 11:27:00,
2013-01-31 06:28:00,38.3,22.7,29.47,SW,232,5.0,13.0,53,0.00,,---,0.24,VWS V14.01,2013-01-31 11:28:00,
2013-01-31 06:29:00,38.3,22.7,29.47,NW,313,6.0,10.0,53,0.00,,---,0.24,VWS V14.01,2013-01-31 11:29:00,
2013-01-31 06:30:00,38.3,22.7,29.49,NW,304,10.0,10.0,53,0.00,,---,0.24,VWS V14.01,2013-01-31 11:30:00,
2013-01-31 06:31:00,38.3,23.6,29.49,WNW,290,10.0,15.0,55,0.00,,---,0.24,VWS V14.01,2013-01-31 11:31:00,
2013-01-31 06:32:00,38.3,23.6,29.49,WNW,301,12.0,15.0,55,0.00,,---,0.24,VWS V14.01,2013-01-31 11:32:00,
2013-01-31 06:33:00,38.3,23.1,29.49,West,261,9.0,10.0,54,0.00,,---,0.24,VWS V14.01,2013-01-31 11:33:00,
2013-01-31 06:34:00,38.3,23.1,29.49,SW,218,13.0,16.0,54,0.00,,---,0.24,VWS V14.01,2013-01-31 11:34:00,
2013-01-31 06:35:00,38.2,23.5,29.49,WSW,257,11.0,14.0,55,0.00,,---,0.24,VWS V14.01,2013-01-31 11:35:00,
2013-01-31 06:36:00,38.2,23.5,29.49,SW,229,9.0,11.0,55,0.00,,---,0.24,VWS V14.01,2013-01-31 11:36:00,
2013-01-31 06:37:00,38.2,23.5,29.49,SSW,209,8.0,11.0,55,0.00,,---,0.24,VWS V14.01,2013-01-31 11:37:00,
2013-01-31 06:38:00,37.9,24.0,29.49,WNW,294,5.0,13.0,57,0.00,,---,0.24,VWS V14.01,2013-01-31 11:38:00,
2013-01-31 06:39:00,37.9,24.5,29.49,NW,310,10.0,12.0,58,0.00,,---,0.24,VWS V14.01,2013-01-31 11:39:00,
2013-01-31 06:40:00,37.8,24.8,29.49,WSW,237,10.0,14.0,59,0.00,,---,0.24,VWS V14.01,2013-01-31 11:40:00,
2013-01-31 06:41:00,37.6,24.6,29.49,SSW,209,9.0,14.0,59,0.00,,---,0.24,VWS V14.01,2013-01-31 11:41:00,
2013-01-31 06:42:00,37.6,24.6,29.49,South,170,12.0,14.0,59,0.00,,---,0.24,VWS V14.01,2013-01-31 11:42:00,
2013-01-31 06:43:00,37.3,25.1,29.49,WSW,251,7.0,13.0,61,0.00,,---,0.24,VWS V14.01,2013-01-31 11:43:00,
2013-01-31 06:44:00,37.2,25.4,29.49,WSW,251,5.0,12.0,62,0.00,,---,0.24,VWS V14.01,2013-01-31 11:44:00,
2013-01-31 06:45:00,37.2,25.4,29.50,WSW,243,6.0,9.0,62,0.00,,---,0.24,VWS V14.01,2013-01-31 11:45:00,
2013-01-31 06:46:00,37.0,25.2,29.50,West,270,4.0,14.0,62,0.00,,---,0.24,VWS V14.01,2013-01-31 11:46:00,
2013-01-31 06:47:00,37.0,25.2,29.50,West,269,4.0,14.0,62,0.00,,---,0.24,VWS V14.01,2013-01-31 11:47:00,
2013-01-31 06:48:00,36.9,25.9,29.50,SW,232,6.0,12.0,64,0.00,,---,0.24,VWS V14.01,2013-01-31 11:48:00,
2013-01-31 06:49:00,36.8,25.4,29.50,SW,219,11.0,15.0,63,0.00,,---,0.24,VWS V14.01,2013-01-31 11:49:00,
2013-01-31 06:50:00,36.6,25.2,29.50,SW,223,8.0,12.0,63,0.00,,---,0.24,VWS V14.01,2013-01-31 11:50:00,
2013-01-31 06:51:00,36.6,25.6,29.50,SW,233,7.0,11.0,64,0.00,,---,0.24,VWS V14.01,2013-01-31 11:51:00,
2013-01-31 06:52:00,36.6,25.6,29.50,SW,230,5.0,11.0,64,0.00,,---,0.24,VWS V14.01,2013-01-31 11:52:00,
2013-01-31 06:53:00,36.5,25.5,29.50,West,278,6.0,15.0,64,0.00,,---,0.24,VWS V14.01,2013-01-31 11:53:00,
2013-01-31 06:54:00,36.5,25.9,29.50,West,276,7.0,13.0,65,0.00,,---,0.24,VWS V14.01,2013-01-31 11:54:00,
2013-01-31 06:55:00,36.3,26.0,29.50,West,275,7.0,10.0,66,0.00,,---,0.24,VWS V14.01,2013-01-31 11:55:00,
2013-01-31 06:56:00,36.2,26.0,29.50,WSW,245,5.0,8.0,66,0.00,,---,0.24,VWS V14.01,2013-01-31 11:56:00,
2013-01-31 06:57:00,36.2,26.0,29.50,WSW,245,5.0,8.0,66,0.00,,---,0.24,VWS V14.01,2013-01-31 11:57:00,
2013-01-31 06:58:00,36.0,25.8,29.50,SSW,211,9.0,15.0,66,0.00,,---,0.24,VWS V14.01,2013-01-31 11:58:00,
2013-01-31 06:59:00,35.9,25.3,29.50,WNW,283,13.0,15.0,65,0.00,,---,0.24,VWS V14.01,2013-01-31 11:59:00,
2013-01-31 07:00:00,35.9,25.3,29.52,West,269,7.0,15.0,65,0.00,,---,0.24,VWS V14.01,2013-01-31 12:00:00,
2013-01-31 07:01:00,35.8,25.2,29.52,WNW,286,5.0,15.0,65,0.00,,---,0.24,VWS V14.01,2013-01-31 12:01:00,
2013-01-31 07:02:00,35.9,25.3,29.52,NW,306,10.0,15.0,65,0.00,,---,0.24,VWS V14.01,2013-01-31 12:02:00,
2013-01-31 07:03:00,35.8,25.2,29.52,West,265,13.0,13.0,65,0.00,,---,0.24,VWS V14.01,2013-01-31 12:03:00,
2013-01-31 07:04:00,35.6,25.4,29.52,SW,220,13.0,15.0,66,0.00,,---,0.24,VWS V14.01,2013-01-31 12:04:00,
2013-01-31 07:05:00,35.6,25.0,29.52,West,259,7.0,13.0,65,0.00,,---,0.24,VWS V14.01,2013-01-31 12:05:00,
2013-01-31 07:06:00,35.5,25.3,29.52,SSW,203,11.0,11.0,66,0.00,,---,0.24,VWS V14.01,2013-01-31 12:06:00,
2013-01-31 07:07:00,35.5,25.3,29.52,West,269,5.0,9.0,66,0.00,,---,0.24,VWS V14.01,2013-01-31 12:07:00,
2013-01-31 07:08:00,35.5,25.3,29.52,SW,231,5.0,11.0,66,0.00,,---,0.24,VWS V14.01,2013-01-31 12:08:00,
2013-01-31 07:09:00,35.5,25.3,29.52,SW,234,8.0,12.0,66,0.00,,---,0.24,VWS V14.01,2013-01-31 12:09:00,
2013-01-31 07:10:00,35.3,25.1,29.52,SW,224,4.0,8.0,66,0.00,,---,0.24,VWS V14.01,2013-01-31 12:10:00,
2013-01-31 07:11:00,35.3,25.1,29.52,SW,217,5.0,5.0,66,0.00,,---,0.24,VWS V14.01,2013-01-31 12:11:00,
2013-01-31 07:12:00,35.3,25.1,29.52,SW,225,2.0,5.0,66,0.00,,---,0.24,VWS V14.01,2013-01-31 12:12:00,
2013-01-31 07:13:00,35.3,24.7,29.52,SW,225,4.0,11.0,65,0.00,,---,0.24,VWS V14.01,2013-01-31 12:13:00,
2013-01-31 07:14:00,35.3,24.7,29.52,SSW,205,7.0,8.0,65,0.00,,---,0.24,VWS V14.01,2013-01-31 12:14:00,
2013-01-31 07:15:00,35.2,25.0,29.53,West,275,5.0,8.0,66,0.00,,---,0.24,VWS V14.01,2013-01-31 12:15:00,
2013-01-31 07:16:00,35.2,25.0,29.53,SW,219,5.0,8.0,66,0.00,,---,0.24,VWS V14.01,2013-01-31 12:16:00,
2013-01-31 07:17:00,35.2,25.0,29.53,West,259,7.0,8.0,66,0.00,,---,0.24,VWS V14.01,2013-01-31 12:17:00,
2013-01-31 07:18:00,35.2,23.1,29.53,SW,223,7.0,10.0,61,0.00,,---,0.24,VWS V14.01,2013-01-31 12:18:00,
2013-01-31 07:19:00,35.3,24.4,29.53,WSW,250,0.0,7.0,64,0.00,,---,0.24,VWS V14.01,2013-01-31 12:19:00,
2013-01-31 07:20:00,35.3,24.4,29.53,West,269,4.0,7.0,64,0.00,,---,0.24,VWS V14.01,2013-01-31 12:20:00,
2013-01-31 07:21:00,35.3,24.0,29.53,SW,220,0.0,14.0,63,0.00,,---,0.24,VWS V14.01,2013-01-31 12:21:00,
2013-01-31 07:22:00,35.3,24.0,29.53,SW,220,5.0,14.0,63,0.00,,---,0.24,VWS V14.01,2013-01-31 12:22:00,
2013-01-31 07:23:00,35.3,24.0,29.53,West,264,6.0,6.0,63,0.00,,---,0.24,VWS V14.01,2013-01-31 12:23:00,
2013-01-31 07:24:00,35.3,24.0,29.53,West,259,3.0,8.0,63,0.00,,---,0.24,VWS V14.01,2013-01-31 12:24:00,
2013-01-31 07:25:00,35.3,24.0,29.53,SW,223,8.0,9.0,63,0.00,,---,0.24,VWS V14.01,2013-01-31 12:25:00,
2013-01-31 07:26:00,35.3,23.2,29.53,SW,225,6.0,14.0,61,0.00,,---,0.24,VWS V14.01,2013-01-31 12:26:00,
2013-01-31 07:27:00,35.3,23.2,29.53,WSW,252,7.0,14.0,61,0.00,,---,0.24,VWS V14.01,2013-01-31 12:27:00,
2013-01-31 07:28:00,35.3,22.8,29.53,West,265,5.0,7.0,60,0.00,,---,0.24,VWS V14.01,2013-01-31 12:28:00,
2013-01-31 07:29:00,35.5,23.0,29.53,SW,215,2.0,6.0,60,0.00,,---,0.24,VWS V14.01,2013-01-31 12:29:00,
2013-01-31 07:30:00,35.5,22.6,29.54,SW,225,7.0,10.0,59,0.00,,---,0.24,VWS V14.01,2013-01-31 12:30:00,
2013-01-31 07:31:00,35.5,22.6,29.54,WNW,300,4.0,7.0,59,0.00,,---,0.24,VWS V14.01,2013-01-31 12:31:00,
2013-01-31 07:32:00,35.5,22.6,29.54,SW,229,3.0,7.0,59,0.00,,---,0.24,VWS V14.01,2013-01-31 12:32:00,
2013-01-31 07:33:00,35.5,22.6,29.54,WSW,241,6.0,8.0,59,0.00,,---,0.24,VWS V14.01,2013-01-31 12:33:00,
2013-01-31 07:34:00,35.5,22.2,29.54,SSW,196,8.0,8.0,58,0.00,,---,0.24,VWS V14.01,2013-01-31 12:34:00,
2013-01-31 07:35:00,35.6,22.3,29.54,SW,233,4.0,8.0,58,0.00,,---,0.24,VWS V14.01,2013-01-31 12:35:00,
2013-01-31 07:36:00,35.6,22.3,29.54,SW,231,4.0,6.0,58,0.00,,---,0.24,VWS V14.01,2013-01-31 12:36:00,
2013-01-31 07:37:00,35.6,22.7,29.54,SW,229,6.0,6.0,59,0.00,,---,0.24,VWS V14.01,2013-01-31 12:37:00,
2013-01-31 07:38:00,35.6,21.9,29.54,SW,225,8.0,13.0,57,0.00,,---,0.24,VWS V14.01,2013-01-31 12:38:00,
2013-01-31 07:39:00,35.6,21.9,29.54,West,259,6.0,8.0,57,0.00,,---,0.24,VWS V14.01,2013-01-31 12:39:00,
2013-01-31 07:40:00,35.6,21.9,29.54,WNW,297,6.0,11.0,57,0.00,,---,0.24,VWS V14.01,2013-01-31 12:40:00,
2013-01-31 07:41:00,35.8,21.2,29.54,SSW,209,12.0,12.0,55,0.00,,---,0.24,VWS V14.01,2013-01-31 12:41:00,
2013-01-31 07:42:00,35.8,21.2,29.54,NNE,18,8.0,9.0,55,0.00,,---,0.24,VWS V14.01,2013-01-31 12:42:00,
2013-01-31 07:43:00,35.8,21.2,29.54,WNW,287,6.0,12.0,55,0.00,,---,0.24,VWS V14.01,2013-01-31 12:43:00,
2013-01-31 07:44:00,35.8,21.2,29.54,NW,317,2.0,8.0,55,0.00,,---,0.24,VWS V14.01,2013-01-31 12:44:00,
2013-01-31 07:45:00,35.9,21.3,29.56,West,281,2.0,5.0,55,0.00,,---,0.24,VWS V14.01,2013-01-31 12:45:00,
2013-01-31 07:46:00,35.9,21.3,29.56,WNW,303,2.0,5.0,55,0.00,,---,0.24,VWS V14.01,2013-01-31 12:46:00,
2013-01-31 07:47:00,35.9,21.3,29.56,WNW,303,5.0,5.0,55,0.00,,---,0.24,VWS V14.01,2013-01-31 12:47:00,
2013-01-31 07:48:00,35.9,21.8,29.56,South,184,9.0,9.0,56,0.00,,---,0.24,VWS V14.01,2013-01-31 12:48:00,
2013-01-31 07:49:00,35.9,21.3,29.56,SSW,209,2.0,9.0,55,0.00,,---,0.24,VWS V14.01,2013-01-31 12:49:00,
2013-01-31 07:50:00,35.9,21.3,29.56,South,186,3.0,7.0,55,0.00,,---,0.24,VWS V14.01,2013-01-31 12:50:00,
2013-01-31 07:51:00,35.9,21.3,29.56,South,190,2.0,5.0,55,0.00,,---,0.24,VWS V14.01,2013-01-31 12:51:00,
2013-01-31 07:52:00,35.9,21.3,29.56,South,190,2.0,5.0,55,0.00,,---,0.24,VWS V14.01,2013-01-31 12:52:00,
2013-01-31 07:53:00,35.9,21.3,29.56,SSW,192,0.0,4.0,55,0.00,,---,0.24,VWS V14.01,2013-01-31 12:53:00,
2013-01-31 07:54:00,35.9,21.8,29.56,SW,231,5.0,5.0,56,0.00,,---,0.24,VWS V14.01,2013-01-31 12:54:00,
2013-01-31 07:55:00,35.9,21.3,29.56,SW,228,0.0,7.0,55,0.00,,---,0.24,VWS V14.01,2013-01-31 12:55:00,
2013-01-31 07:56:00,35.9,21.8,29.56,SSE,157,9.0,11.0,56,0.00,,---,0.24,VWS V14.01,2013-01-31 12:56:00,
2013-01-31 07:57:00,35.9,21.8,29.56,South,172,7.0,7.0,56,0.00,,---,0.24,VWS V14.01,2013-01-31 12:57:00,
2013-01-31 07:58:00,36.0,21.8,29.56,WSW,247,5.0,10.0,56,0.01,,---,0.25,VWS V14.01,2013-01-31 12:58:00,
2013-01-31 07:59:00,36.0,21.8,29.56,South,182,5.0,7.0,56,0.01,,---,0.25,VWS V14.01,2013-01-31 12:59:00,
2013-01-31 08:00:00,35.9,22.2,29.57,West,274,6.0,8.0,57,0.01,,---,0.25,VWS V14.01,2013-01-31 13:00:00,
2013-01-31 08:01:00,36.0,22.3,29.57,WSW,257,13.0,13.0,57,0.01,,---,0.25,VWS V14.01,2013-01-31 13:01:00,
2013-01-31 08:02:00,36.0,22.3,29.57,West,265,13.0,13.0,57,0.01,,---,0.25,VWS V14.01,2013-01-31 13:02:00,
2013-01-31 08:03:00,35.9,22.2,29.57,WNW,300,6.0,11.0,57,0.01,,---,0.25,VWS V14.01,2013-01-31 13:03:00,
2013-01-31 08:04:00,35.9,22.2,29.57,WSW,244,4.0,15.0,57,0.01,,---,0.25,VWS V14.01,2013-01-31 13:04:00,
2013-01-31 08:05:00,35.9,23.0,29.57,SW,230,9.0,15.0,59,0.01,,---,0.25,VWS V14.01,2013-01-31 13:05:00,
2013-01-31 08:06:00,35.8,22.9,29.57,WSW,248,9.0,12.0,59,0.01,,---,0.25,VWS V14.01,2013-01-31 13:06:00,
2013-01-31 08:07:00,35.8,22.9,29.57,West,267,7.0,12.0,59,0.01,,---,0.25,VWS V14.01,2013-01-31 13:07:00,
2013-01-31 08:08:00,35.6,22.7,29.57,South,180,16.0,16.0,59,0.01,,---,0.25,VWS V14.01,2013-01-31 13:08:00,
2013-01-31 08:09:00,35.5,22.6,29.57,WSW,240,7.0,18.0,59,0.01,,---,0.25,VWS V14.01,2013-01-31 13:09:00,
2013-01-31 08:10:00,35.5,22.6,29.57,West,270,5.0,10.0,59,0.01,,---,0.25,VWS V14.01,2013-01-31 13:10:00,
2013-01-31 08:11:00,35.3,22.8,29.57,WSW,251,2.0,5.0,60,0.01,,---,0.25,VWS V14.01,2013-01-31 13:11:00,
2013-01-31 08:12:00,35.3,22.4,29.57,West,270,1.0,5.0,59,0.01,,---,0.25,VWS V14.01,2013-01-31 13:12:00,
2013-01-31 08:13:00,35.3,22.8,29.57,West,269,1.0,7.0,60,0.01,,---,0.25,VWS V14.01,2013-01-31 13:13:00,
2013-01-31 08:14:00,35.2,22.3,29.57,SSW,210,1.0,6.0,59,0.01,,---,0.25,VWS V14.01,2013-01-31 13:14:00,
2013-01-31 08:15:00,35.2,22.7,29.59,WSW,256,2.0,10.0,60,0.01,,---,0.25,VWS V14.01,2013-01-31 13:15:00,
2013-01-31 08:16:00,35.2,22.7,29.59,West,281,4.0,10.0,60,0.01,,---,0.25,VWS V14.01,2013-01-31 13:16:00,
2013-01-31 08:17:00,35.2,22.3,29.59,WSW,244,8.0,8.0,59,0.01,,---,0.25,VWS V14.01,2013-01-31 13:17:00,
2013-01-31 08:18:00,35.0,22.1,29.59,WNW,290,4.0,9.0,59,0.01,,---,0.25,VWS V14.01,2013-01-31 13:18:00,
2013-01-31 08:19:00,35.0,21.7,29.59,WSW,248,7.0,15.0,58,0.01,,---,0.25,VWS V14.01,2013-01-31 13:19:00,
2013-01-31 08:20:00,35.0,22.1,29.59,WNW,285,6.0,8.0,59,0.01,,---,0.25,VWS V14.01,2013-01-31 13:20:00,
2013-01-31 08:21:00,35.0,21.7,29.59,South,191,5.0,8.0,58,0.01,,---,0.25,VWS V14.01,2013-01-31 13:21:00,
2013-01-31 08:22:00,35.0,22.1,29.59,WSW,254,10.0,10.0,59,0.01,,---,0.25,VWS V14.01,2013-01-31 13:22:00,
2013-01-31 08:23:00,35.0,21.7,29.59,West,260,4.0,12.0,58,0.01,,---,0.25,VWS V14.01,2013-01-31 13:23:00,
2013-01-31 08:24:00,34.9,21.2,29.59,WSW,241,6.0,13.0,57,0.01,,---,0.25,VWS V14.01,2013-01-31 13:24:00,
2013-01-31 08:25:00,34.9,21.2,29.59,SW,225,2.0,8.0,57,0.01,,---,0.25,VWS V14.01,2013-01-31 13:25:00,
2013-01-31 08:26:00,34.9,21.6,29.59,West,280,4.0,9.0,58,0.01,,---,0.25,VWS V14.01,2013-01-31 13:26:00,
2013-01-31 08:27:00,34.9,21.6,29.59,South,180,4.0,6.0,58,0.01,,---,0.25,VWS V14.01,2013-01-31 13:27:00,
2013-01-31 08:28:00,35.0,21.7,29.59,SSW,192,7.0,12.0,58,0.01,,---,0.25,VWS V14.01,2013-01-31 13:28:00,
2013-01-31 08:29:00,35.0,21.7,29.59,SSW,202,5.0,7.0,58,0.01,,---,0.25,VWS V14.01,2013-01-31 13:29:00,
2013-01-31 08:30:00,35.0,21.7,29.59,West,278,3.0,7.0,58,0.01,,---,0.25,VWS V14.01,2013-01-31 13:30:00,
2013-01-31 08:31:00,35.0,21.7,29.59,SSW,195,6.0,7.0,58,0.01,,---,0.25,VWS V14.01,2013-01-31 13:31:00,
2013-01-31 08:32:00,35.0,21.7,29.59,South,178,8.0,8.0,58,0.01,,---,0.25,VWS V14.01,2013-01-31 13:32:00,
2013-01-31 08:33:00,34.9,21.6,29.59,SSW,198,8.0,9.0,58,0.01,,---,0.25,VWS V14.01,2013-01-31 13:33:00,
2013-01-31 08:34:00,34.9,20.8,29.59,SW,234,5.0,8.0,56,0.01,,---,0.25,VWS V14.01,2013-01-31 13:34:00,
2013-01-31 08:35:00,35.0,21.3,29.59,SW,217,8.0,10.0,57,0.01,,---,0.25,VWS V14.01,2013-01-31 13:35:00,
2013-01-31 08:36:00,35.0,21.3,29.59,SW,232,8.0,9.0,57,0.01,,---,0.25,VWS V14.01,2013-01-31 13:36:00,
2013-01-31 08:37:00,34.9,20.8,29.59,SW,223,6.0,6.0,56,0.01,,---,0.25,VWS V14.01,2013-01-31 13:37:00,
2013-01-31 08:38:00,35.0,21.3,29.59,SW,220,2.0,6.0,57,0.01,,---,0.25,VWS V14.01,2013-01-31 13:38:00,
2013-01-31 08:39:00,35.0,21.7,29.59,South,180,1.0,7.0,58,0.01,,---,0.25,VWS V14.01,2013-01-31 13:39:00,
2013-01-31 08:40:00,35.0,21.7,29.59,South,182,4.0,8.0,58,0.01,,---,0.25,VWS V14.01,2013-01-31 13:40:00,
2013-01-31 08:41:00,34.9,21.2,29.59,WSW,244,4.0,16.0,57,0.01,,---,0.25,VWS V14.01,2013-01-31 13:41:00,
2013-01-31 08:42:00,34.9,21.6,29.59,South,180,9.0,12.0,58,0.01,,---,0.25,VWS V14.01,2013-01-31 13:42:00,
2013-01-31 08:43:00,34.7,21.0,29.59,WNW,300,10.0,20.0,57,0.01,,---,0.25,VWS V14.01,2013-01-31 13:43:00,
2013-01-31 08:44:00,34.7,21.0,29.59,South,186,11.0,13.0,57,0.01,,---,0.25,VWS V14.01,2013-01-31 13:44:00,
2013-01-31 08:45:00,34.6,21.0,29.61,SSW,198,8.0,11.0,57,0.01,,---,0.25,VWS V14.01,2013-01-31 13:45:00,
2013-01-31 08:46:00,34.6,21.0,29.61,South,176,14.0,14.0,57,0.01,,---,0.25,VWS V14.01,2013-01-31 13:46:00,
2013-01-31 08:47:00,34.6,21.0,29.61,SW,232,8.0,19.0,57,0.01,,---,0.25,VWS V14.01,2013-01-31 13:47:00,
2013-01-31 08:48:00,34.7,20.6,29.61,WNW,284,5.0,14.0,56,0.01,,---,0.25,VWS V14.01,2013-01-31 13:48:00,
2013-01-31 08:49:00,34.7,21.0,29.61,WSW,244,4.0,8.0,57,0.01,,---,0.25,VWS V14.01,2013-01-31 13:49:00,
2013-01-31 08:50:00,34.7,21.0,29.61,WSW,251,4.0,10.0,57,0.01,,---,0.25,VWS V14.01,2013-01-31 13:50:00,
2013-01-31 08:51:00,34.7,21.0,29.61,SW,234,8.0,11.0,57,0.01,,---,0.25,VWS V14.01,2013-01-31 13:51:00,
2013-01-31 08:52:00,34.7,20.6,29.61,SSW,213,9.0,14.0,56,0.01,,---,0.25,VWS V14.01,2013-01-31 13:52:00,
2013-01-31 08:53:00,34.7,20.6,29.61,WSW,244,8.0,15.0,56,0.01,,---,0.25,VWS V14.01,2013-01-31 13:53:00,
2013-01-31 08:54:00,34.7,21.0,29.61,West,265,4.0,9.0,57,0.01,,---,0.25,VWS V14.01,2013-01-31 13:54:00,
2013-01-31 08:55:00,34.7,20.6,29.61,WSW,257,8.0,15.0,56,0.01,,---,0.25,VWS V14.01,2013-01-31 13:55:00,
2013-01-31 08:56:00,34.7,20.2,29.61,SW,214,5.0,11.0,55,0.01,,---,0.25,VWS V14.01,2013-01-31 13:56:00,
2013-01-31 08:57:00,34.7,20.2,29.61,SW,228,5.0,10.0,55,0.01,,---,0.25,VWS V14.01,2013-01-31 13:57:00,
2013-01-31 08:58:00,34.7,20.2,29.61,SSW,211,9.0,19.0,55,0.00,,---,0.25,VWS V14.01,2013-01-31 13:58:00,
2013-01-31 08:59:00,34.9,20.0,29.61,South,180,12.0,14.0,54,0.00,,---,0.25,VWS V14.01,2013-01-31 13:59:00,
2013-01-31 09:00:00,34.9,20.0,29.61,WSW,242,6.0,12.0,54,0.00,,---,0.25,VWS V14.01,2013-01-31 14:00:00,
2013-01-31 09:01:00,34.9,20.0,29.61,WSW,244,10.0,10.0,54,0.00,,---,0.25,VWS V14.01,2013-01-31 14:01:00,
2013-01-31 09:02:00,34.9,20.0,29.61,WSW,249,9.0,10.0,54,0.00,,---,0.25,VWS V14.01,2013-01-31 14:02:00,
2013-01-31 09:03:00,35.0,20.5,29.61,WNW,296,5.0,7.0,55,0.00,,---,0.25,VWS V14.01,2013-01-31 14:03:00,
2013-01-31 09:04:00,35.0,20.5,29.61,West,273,10.0,11.0,55,0.00,,---,0.25,VWS V14.01,2013-01-31 14:04:00,
2013-01-31 09:05:00,35.0,20.5,29.61,WNW,294,9.0,12.0,55,0.00,,---,0.25,VWS V14.01,2013-01-31 14:05:00,
2013-01-31 09:06:00,35.0,20.0,29.61,West,279,5.0,9.0,54,0.00,,---,0.25,VWS V14.01,2013-01-31 14:06:00,
2013-01-31 09:07:00,35.0,20.0,29.61,WSW,245,6.0,9.0,54,0.00,,---,0.25,VWS V14.01,2013-01-31 14:07:00,
2013-01-31 09:08:00,35.0,20.5,29.61,SW,221,5.0,10.0,55,0.00,,---,0.25,VWS V14.01,2013-01-31 14:08:00,
2013-01-31 09:09:00,35.0,20.5,29.61,NW,313,9.0,14.0,55,0.00,,---,0.25,VWS V14.01,2013-01-31 14:09:00,
2013-01-31 09:10:00,35.0,20.5,29.61,WNW,289,8.0,15.0,55,0.00,,---,0.25,VWS V14.01,2013-01-31 14:10:00,
2013-01-31 09:11:00,35.2,20.7,29.61,WNW,303,10.0,12.0,55,0.00,,---,0.25,VWS V14.01,2013-01-31 14:11:00,
2013-01-31 09:12:00,35.2,20.7,29.61,WNW,294,7.0,12.0,55,0.00,,---,0.25,VWS V14.01,2013-01-31 14:12:00,
2013-01-31 09:13:00,35.2,20.7,29.61,SW,226,7.0,12.0,55,0.00,,---,0.25,VWS V14.01,2013-01-31 14:13:00,
2013-01-31 09:14:00,35.2,20.2,29.61,WSW,254,5.0,11.0,54,0.00,,---,0.25,VWS V14.01,2013-01-31 14:14:00,
2013-01-31 09:15:00,35.3,19.9,29.61,WNW,295,6.0,8.0,53,0.00,,---,0.25,VWS V14.01,2013-01-31 14:15:00,
2013-01-31 09:16:00,35.3,20.3,29.61,West,268,6.0,9.0,54,0.00,,---,0.25,VWS V14.01,2013-01-31 14:16:00,
2013-01-31 09:17:00,35.3,20.3,29.61,WNW,298,8.0,9.0,54,0.00,,---,0.25,VWS V14.01,2013-01-31 14:17:00,
2013-01-31 09:18:00,35.5,20.5,29.61,South,171,8.0,8.0,54,0.00,,---,0.25,VWS V14.01,2013-01-31 14:18:00,
2013-01-31 09:19:00,35.5,20.1,29.61,SW,215,11.0,15.0,53,0.00,,---,0.25,VWS V14.01,2013-01-31 14:19:00,
2013-01-31 09:20:00,35.5,20.1,29.61,WSW,243,5.0,15.0,53,0.00,,---,0.25,VWS V14.01,2013-01-31 14:20:00,
2013-01-31 09:21:00,35.5,20.1,29.61,West,259,9.0,16.0,53,0.00,,---,0.25,VWS V14.01,2013-01-31 14:21:00,
2013-01-31 09:22:00,35.5,20.1,29.61,WSW,240,12.0,16.0,53,0.00,,---,0.25,VWS V14.01,2013-01-31 14:22:00,
2013-01-31 09:23:00,35.5,20.1,29.61,WSW,250,9.0,11.0,53,0.00,,---,0.25,VWS V14.01,2013-01-31 14:23:00,
2013-01-31 09:24:00,35.5,20.1,29.61,SW,217,6.0,9.0,53,0.00,,---,0.25,VWS V14.01,2013-01-31 14:24:00,
2013-01-31 09:25:00,35.5,20.5,29.61,SW,220,7.0,8.0,54,0.00,,---,0.25,VWS V14.01,2013-01-31 14:25:00,
2013-01-31 09:26:00,35.5,20.1,29.61,WNW,302,13.0,13.0,53,0.00,,---,0.25,VWS V14.01,2013-01-31 14:26:00,
2013-01-31 09:27:00,35.5,20.1,29.61,SSW,208,6.0,10.0,53,0.00,,---,0.25,VWS V14.01,2013-01-31 14:27:00,
2013-01-31 09:28:00,35.5,20.5,29.61,SW,236,7.0,11.0,54,0.00,,---,0.25,VWS V14.01,2013-01-31 14:28:00,
2013-01-31 09:29:00,35.5,20.5,29.61,SSW,193,8.0,12.0,54,0.00,,---,0.25,VWS V14.01,2013-01-31 14:29:00,
2013-01-31 09:30:00,35.3,20.8,29.63,SSW,211,2.0,8.0,55,0.00,,---,0.25,VWS V14.01,2013-01-31 14:30:00,
2013-01-31 09:31:00,35.3,20.8,29.63,SW,229,5.0,11.0,55,0.00,,---,0.25,VWS V14.01,2013-01-31 14:31:00,
2013-01-31 09:32:00,35.3,20.8,29.63,SW,215,5.0,11.0,55,0.00,,---,0.25,VWS V14.01,2013-01-31 14:32:00,
2013-01-31 09:33:00,35.2,19.8,29.63,West,262,6.0,11.0,53,0.00,,---,0.25,VWS V14.01,2013-01-31 14:33:00,
2013-01-31 09:34:00,35.0,19.6,29.63,SW,233,6.0,12.0,53,0.00,,---,0.25,VWS V14.01,2013-01-31 14:34:00,
2013-01-31 09:35:00,35.0,20.5,29.63,SW,232,10.0,10.0,55,0.00,,---,0.25,VWS V14.01,2013-01-31 14:35:00,
2013-01-31 09:36:00,35.0,20.0,29.63,West,262,9.0,10.0,54,0.00,,---,0.25,VWS V14.01,2013-01-31 14:36:00,
2013-01-31 09:37:00,35.0,20.0,29.63,SSW,207,4.0,10.0,54,0.00,,---,0.25,VWS V14.01,2013-01-31 14:37:00,
2013-01-31 09:38:00,35.0,20.0,29.63,West,259,10.0,16.0,54,0.00,,---,0.25,VWS V14.01,2013-01-31 14:38:00,
2013-01-31 09:39:00,35.0,19.6,29.63,West,259,6.0,12.0,53,0.00,,---,0.25,VWS V14.01,2013-01-31 14:39:00,
2013-01-31 09:40:00,34.9,20.0,29.63,WSW,244,5.0,9.0,54,0.00,,---,0.25,VWS V14.01,2013-01-31 14:40:00,
2013-01-31 09:41:00,35.0,20.9,29.63,SW,231,6.0,10.0,56,0.00,,---,0.25,VWS V14.01,2013-01-31 14:41:00,
2013-01-31 09:42:00,35.0,20.5,29.63,West,267,5.0,8.0,55,0.00,,---,0.25,VWS V14.01,2013-01-31 14:42:00,
2013-01-31 09:43:00,35.0,21.3,29.63,WNW,290,5.0,12.0,57,0.00,,---,0.25,VWS V14.01,2013-01-31 14:43:00,
2013-01-31 09:44:00,35.0,20.5,29.63,West,262,5.0,7.0,55,0.00,,---,0.25,VWS V14.01,2013-01-31 14:44:00,
2013-01-31 09:45:00,35.0,20.9,29.64,WSW,249,6.0,14.0,56,0.00,,---,0.25,VWS V14.01,2013-01-31 14:45:00,
2013-01-31 09:46:00,35.0,20.9,29.64,WNW,302,8.0,8.0,56,0.00,,---,0.25,VWS V14.01,2013-01-31 14:46:00,
2013-01-31 09:47:00,35.0,20.9,29.64,SW,228,7.0,9.0,56,0.00,,---,0.25,VWS V14.01,2013-01-31 14:47:00,
2013-01-31 09:48:00,35.0,20.9,29.64,SSW,210,4.0,10.0,56,0.00,,---,0.25,VWS V14.01,2013-01-31 14:48:00,
2013-01-31 09:49:00,35.0,21.3,29.64,SSW,197,1.0,5.0,57,0.00,,---,0.25,VWS V14.01,2013-01-31 14:49:00,
2013-01-31 09:50:00,35.0,21.7,29.64,WSW,247,5.0,7.0,58,0.00,,---,0.25,VWS V14.01,2013-01-31 14:50:00,
2013-01-31 09:51:00,35.0,21.7,29.64,West,260,3.0,8.0,58,0.00,,---,0.25,VWS V14.01,2013-01-31 14:51:00,
2013-01-31 09:52:00,35.0,21.3,29.64,WSW,248,5.0,9.0,57,0.00,,---,0.25,VWS V14.01,2013-01-31 14:52:00,
2013-01-31 09:53:00,35.0,21.7,29.64,WSW,248,2.0,5.0,58,0.00,,---,0.25,VWS V14.01,2013-01-31 14:53:00,
2013-01-31 09:54:00,35.2,21.9,29.64,WSW,248,1.0,4.0,58,0.00,,---,0.25,VWS V14.01,2013-01-31 14:54:00,
2013-01-31 09:55:00,35.2,21.9,29.64,WSW,248,1.0,2.0,58,0.00,,---,0.25,VWS V14.01,2013-01-31 14:55:00,
2013-01-31 09:56:00,35.3,22.4,29.64,WSW,248,5.0,6.0,59,0.00,,---,0.25,VWS V14.01,2013-01-31 14:56:00,
2013-01-31 09:57:00,35.3,22.0,29.64,WSW,251,8.0,9.0,58,0.00,,---,0.25,VWS V14.01,2013-01-31 14:57:00,
2013-01-31 09:58:00,35.5,22.2,29.64,West,269,6.0,10.0,58,0.00,,---,0.25,VWS V14.01,2013-01-31 14:58:00,
2013-01-31 09:59:00,35.5,22.2,29.64,West,260,7.0,7.0,58,0.00,,---,0.25,VWS V14.01,2013-01-31 14:59:00,
2013-01-31 10:00:00,35.5,22.6,29.65,SW,231,5.0,9.0,59,0.00,,---,0.25,VWS V14.01,2013-01-31 15:00:00,
2013-01-31 10:01:00,35.5,22.6,29.65,WNW,295,6.0,10.0,59,0.00,,---,0.25,VWS V14.01,2013-01-31 15:01:00,
2013-01-31 10:02:00,35.5,22.6,29.65,WNW,297,7.0,9.0,59,0.00,,---,0.25,VWS V14.01,2013-01-31 15:02:00,
2013-01-31 10:03:00,35.5,22.2,29.65,WSW,239,7.0,12.0,58,0.00,,---,0.25,VWS V14.01,2013-01-31 15:03:00,
2013-01-31 10:04:00,35.5,22.2,29.65,SW,235,4.0,7.0,58,0.00,,---,0.25,VWS V14.01,2013-01-31 15:04:00,
2013-01-31 10:05:00,35.5,23.0,29.65,WSW,254,5.0,6.0,60,0.00,,---,0.25,VWS V14.01,2013-01-31 15:05:00,
2013-01-31 10:06:00,35.6,22.7,29.65,SW,228,4.0,6.0,59,0.00,,---,0.25,VWS V14.01,2013-01-31 15:06:00,
2013-01-31 10:07:00,35.6,21.9,29.65,WSW,248,5.0,6.0,57,0.00,,---,0.25,VWS V14.01,2013-01-31 15:07:00,
2013-01-31 10:08:00,35.6,21.9,29.65,SSW,204,8.0,9.0,57,0.00,,---,0.25,VWS V14.01,2013-01-31 15:08:00,
2013-01-31 10:09:00,35.6,20.6,29.65,SSW,196,9.0,13.0,54,0.00,,---,0.25,VWS V14.01,2013-01-31 15:09:00,
2013-01-31 10:10:00,35.8,19.9,29.65,West,263,6.0,11.0,52,0.00,,---,0.25,VWS V14.01,2013-01-31 15:10:00,
2013-01-31 10:11:00,35.8,19.5,29.65,SW,234,9.0,19.0,51,0.00,,---,0.25,VWS V14.01,2013-01-31 15:11:00,
2013-01-31 10:12:00,35.9,20.0,29.65,WNW,294,9.0,12.0,52,0.00,,---,0.25,VWS V14.01,2013-01-31 15:12:00,
2013-01-31 10:13:00,35.9,20.0,29.65,WSW,239,9.0,13.0,52,0.00,,---,0.25,VWS V14.01,2013-01-31 15:13:00,
2013-01-31 10:14:00,36.0,20.1,29.65,SSE,163,9.0,9.0,52,0.00,,---,0.25,VWS V14.01,2013-01-31 15:14:00,
2013-01-31 10:15:00,36.2,20.3,29.66,South,180,8.0,9.0,52,0.00,,---,0.25,VWS V14.01,2013-01-31 15:15:00,
2013-01-31 10:16:00,36.3,19.5,29.66,South,184,5.0,11.0,50,0.00,,---,0.25,VWS V14.01,2013-01-31 15:16:00,
2013-01-31 10:17:00,36.5,19.2,29.66,South,172,14.0,15.0,49,0.00,,---,0.25,VWS V14.01,2013-01-31 15:17:00,
2013-01-31 10:18:00,36.5,18.2,29.66,SSW,200,14.0,18.0,47,0.00,,---,0.25,VWS V14.01,2013-01-31 15:18:00,
2013-01-31 10:19:00,36.5,18.2,29.66,SW,225,7.0,15.0,47,0.00,,---,0.25,VWS V14.01,2013-01-31 15:19:00,
2013-01-31 10:20:00,36.5,19.2,29.66,WSW,256,9.0,9.0,49,0.00,,---,0.25,VWS V14.01,2013-01-31 15:20:00,
2013-01-31 10:21:00,36.6,19.3,29.66,South,191,13.0,13.0,49,0.00,,---,0.25,VWS V14.01,2013-01-31 15:21:00,
2013-01-31 10:22:00,36.5,18.7,29.66,WSW,249,9.0,13.0,48,0.00,,---,0.25,VWS V14.01,2013-01-31 15:22:00,
2013-01-31 10:23:00,36.5,18.2,29.66,West,267,9.0,18.0,47,0.00,,---,0.25,VWS V14.01,2013-01-31 15:23:00,
2013-01-31 10:24:00,36.6,17.8,29.66,South,172,10.0,10.0,46,0.00,,---,0.25,VWS V14.01,2013-01-31 15:24:00,
2013-01-31 10:25:00,36.6,18.3,29.66,SW,235,9.0,16.0,47,0.00,,---,0.25,VWS V14.01,2013-01-31 15:25:00,
2013-01-31 10:26:00,36.6,19.3,29.66,SSE,167,11.0,12.0,49,0.00,,---,0.25,VWS V14.01,2013-01-31 15:26:00,
2013-01-31 10:27:00,36.8,17.5,29.66,WSW,244,12.0,23.0,45,0.00,,---,0.25,VWS V14.01,2013-01-31 15:27:00,
2013-01-31 10:28:00,36.8,18.0,29.66,West,273,12.0,13.0,46,0.00,,---,0.25,VWS V14.01,2013-01-31 15:28:00,
2013-01-31 10:29:00,36.9,18.1,29.66,SW,215,8.0,12.0,46,0.00,,---,0.25,VWS V14.01,2013-01-31 15:29:00,
2013-01-31 10:30:00,37.0,18.2,29.66,SSW,198,14.0,14.0,46,0.00,,---,0.25,VWS V14.01,2013-01-31 15:30:00,
2013-01-31 10:31:00,37.0,18.2,29.66,SSW,198,10.0,22.0,46,0.00,,---,0.25,VWS V14.01,2013-01-31 15:31:00,
2013-01-31 10:32:00,37.0,19.1,29.66,WNW,288,7.0,15.0,48,0.00,,---,0.25,VWS V14.01,2013-01-31 15:32:00,
2013-01-31 10:33:00,37.2,19.3,29.66,West,279,6.0,9.0,48,0.00,,---,0.25,VWS V14.01,2013-01-31 15:33:00,
2013-01-31 10:34:00,37.3,18.9,29.66,West,259,6.0,7.0,47,0.00,,---,0.25,VWS V14.01,2013-01-31 15:34:00,
2013-01-31 10:35:00,37.3,19.9,29.66,SW,223,13.0,16.0,49,0.00,,---,0.25,VWS V14.01,2013-01-31 15:35:00,
2013-01-31 10:36:00,37.5,19.1,29.66,WSW,249,8.0,13.0,47,0.00,,---,0.25,VWS V14.01,2013-01-31 15:36:00,
2013-01-31 10:37:00,37.5,19.1,29.66,SW,225,7.0,12.0,47,0.00,,---,0.25,VWS V14.01,2013-01-31 15:37:00,
2013-01-31 10:38:00,37.3,18.4,29.66,WSW,253,10.0,11.0,46,0.00,,---,0.25,VWS V14.01,2013-01-31 15:38:00,
2013-01-31 10:39:00,37.3,18.9,29.66,SE,146,10.0,13.0,47,0.00,,---,0.25,VWS V14.01,2013-01-31 15:39:00,
2013-01-31 10:40:00,37.3,18.4,29.66,WSW,255,5.0,10.0,46,0.00,,---,0.25,VWS V14.01,2013-01-31 15:40:00,
2013-01-31 10:41:00,37.3,18.9,29.66,SW,223,7.0,12.0,47,0.00,,---,0.25,VWS V14.01,2013-01-31 15:41:00,
2013-01-31 10:42:00,37.3,18.4,29.66,WSW,248,8.0,14.0,46,0.00,,---,0.25,VWS V14.01,2013-01-31 15:42:00,
2013-01-31 10:43:00,37.5,19.1,29.66,SW,234,5.0,11.0,47,0.00,,---,0.25,VWS V14.01,2013-01-31 15:43:00,
2013-01-31 10:44:00,37.6,19.2,29.66,SW,230,14.0,14.0,47,0.00,,---,0.25,VWS V14.01,2013-01-31 15:44:00,
2013-01-31 10:45:00,37.5,18.6,29.66,South,184,7.0,15.0,46,0.00,,---,0.25,VWS V14.01,2013-01-31 15:45:00,
2013-01-31 10:46:00,37.5,18.6,29.66,SSW,213,9.0,14.0,46,0.00,,---,0.25,VWS V14.01,2013-01-31 15:46:00,
2013-01-31 10:47:00,37.6,19.7,29.66,WNW,300,11.0,13.0,48,0.00,,---,0.25,VWS V14.01,2013-01-31 15:47:00,
2013-01-31 10:48:00,37.6,19.7,29.66,SW,233,7.0,11.0,48,0.00,,---,0.25,VWS V14.01,2013-01-31 15:48:00,
2013-01-31 10:49:00,37.6,20.2,29.66,SSW,206,5.0,8.0,49,0.00,,---,0.25,VWS V14.01,2013-01-31 15:49:00,
2013-01-31 10:50:00,37.6,18.7,29.66,WSW,252,7.0,18.0,46,0.00,,---,0.25,VWS V14.01,2013-01-31 15:50:00,
2013-01-31 10:51:00,37.5,18.6,29.66,West,265,9.0,12.0,46,0.00,,---,0.25,VWS V14.01,2013-01-31 15:51:00,
2013-01-31 10:52:00,37.3,19.4,29.66,SSW,208,13.0,18.0,48,0.00,,---,0.25,VWS V14.01,2013-01-31 15:52:00,
2013-01-31 10:53:00,37.2,18.3,29.66,WSW,257,11.0,13.0,46,0.00,,---,0.25,VWS V14.01,2013-01-31 15:53:00,
2013-01-31 10:54:00,37.2,18.8,29.66,West,266,12.0,12.0,47,0.00,,---,0.25,VWS V14.01,2013-01-31 15:54:00,
2013-01-31 10:55:00,37.0,18.7,29.66,South,188,6.0,13.0,47,0.00,,---,0.25,VWS V14.01,2013-01-31 15:55:00,
2013-01-31 10:56:00,37.0,18.7,29.66,SW,217,6.0,9.0,47,0.00,,---,0.25,VWS V14.01,2013-01-31 15:56:00,
2013-01-31 10:57:00,37.0,18.7,29.66,WNW,282,12.0,18.0,47,0.00,,---,0.25,VWS V14.01,2013-01-31 15:57:00,
2013-01-31 10:58:00,37.0,18.7,29.66,SSW,203,7.0,19.0,47,0.00,,---,0.25,VWS V14.01,2013-01-31 15:58:00,
2013-01-31 10:59:00,36.9,17.6,29.66,SSW,198,11.0,18.0,45,0.00,,---,0.25,VWS V14.01,2013-01-31 15:59:00,
2013-01-31 11:00:00,36.9,18.1,29.67,SSW,211,7.0,16.0,46,0.00,,---,0.25,VWS V14.01,2013-01-31 16:00:00,
2013-01-31 11:01:00,36.9,18.1,29.67,WSW,258,7.0,8.0,46,0.00,,---,0.25,VWS V14.01,2013-01-31 16:01:00,
2013-01-31 11:02:00,37.0,19.1,29.67,West,265,6.0,8.0,48,0.00,,---,0.25,VWS V14.01,2013-01-31 16:02:00,
2013-01-31 11:03:00,37.2,19.3,29.67,WSW,240,8.0,9.0,48,0.00,,---,0.25,VWS V14.01,2013-01-31 16:03:00,
2013-01-31 11:04:00,37.2,18.3,29.67,SW,232,7.0,9.0,46,0.00,,---,0.25,VWS V14.01,2013-01-31 16:04:00,
2013-01-31 11:05:00,37.2,18.8,29.67,West,265,10.0,14.0,47,0.00,,---,0.25,VWS V14.01,2013-01-31 16:05:00,
2013-01-31 11:06:00,37.2,19.3,29.67,West,263,7.0,10.0,48,0.00,,---,0.25,VWS V14.01,2013-01-31 16:06:00,
2013-01-31 11:07:00,37.3,18.4,29.67,WNW,282,6.0,11.0,46,0.00,,---,0.25,VWS V14.01,2013-01-31 16:07:00,
2013-01-31 11:08:00,37.2,18.3,29.67,WSW,252,7.0,14.0,46,0.00,,---,0.25,VWS V14.01,2013-01-31 16:08:00,
2013-01-31 11:09:00,37.2,18.3,29.67,South,180,9.0,16.0,46,0.00,,---,0.25,VWS V14.01,2013-01-31 16:09:00,
2013-01-31 11:10:00,37.0,18.2,29.67,South,174,8.0,9.0,46,0.00,,---,0.25,VWS V14.01,2013-01-31 16:10:00,
2013-01-31 11:11:00,37.2,18.8,29.67,WNW,286,9.0,13.0,47,0.00,,---,0.25,VWS V14.01,2013-01-31 16:11:00,
2013-01-31 11:12:00,37.2,19.3,29.67,WNW,297,11.0,14.0,48,0.00,,---,0.25,VWS V14.01,2013-01-31 16:12:00,
2013-01-31 11:13:00,37.2,18.8,29.67,West,277,9.0,11.0,47,0.00,,---,0.25,VWS V14.01,2013-01-31 16:13:00,
2013-01-31 11:14:00,37.2,18.3,29.67,WSW,245,6.0,13.0,46,0.00,,---,0.25,VWS V14.01,2013-01-31 16:14:00,
2013-01-31 11:15:00,37.2,17.8,29.68,SW,233,6.0,9.0,45,0.00,,---,0.25,VWS V14.01,2013-01-31 16:15:00,
2013-01-31 11:16:00,37.2,17.8,29.68,SW,218,5.0,7.0,45,0.00,,---,0.25,VWS V14.01,2013-01-31 16:16:00,
2013-01-31 11:17:00,37.2,18.3,29.68,SW,225,6.0,9.0,46,0.00,,---,0.25,VWS V14.01,2013-01-31 16:17:00,
2013-01-31 11:18:00,37.2,17.8,29.68,SSW,209,6.0,12.0,45,0.00,,---,0.25,VWS V14.01,2013-01-31 16:18:00,
2013-01-31 11:19:00,37.0,18.2,29.68,West,266,8.0,10.0,46,0.00,,---,0.25,VWS V14.01,2013-01-31 16:19:00,
2013-01-31 11:20:00,37.0,17.6,29.68,SSW,213,12.0,14.0,45,0.00,,---,0.25,VWS V14.01,2013-01-31 16:20:00,
2013-01-31 11:21:00,36.9,17.0,29.68,North,349,6.0,16.0,44,0.00,,---,0.25,VWS V14.01,2013-01-31 16:21:00,
2013-01-31 11:22:00,37.0,17.1,29.68,West,265,8.0,12.0,44,0.00,,---,0.25,VWS V14.01,2013-01-31 16:22:00,
2013-01-31 11:23:00,37.2,16.8,29.68,South,189,11.0,11.0,43,0.00,,---,0.25,VWS V14.01,2013-01-31 16:23:00,
2013-01-31 11:24:00,37.2,16.8,29.68,South,169,12.0,15.0,43,0.00,,---,0.25,VWS V14.01,2013-01-31 16:24:00,
2013-01-31 11:25:00,37.2,15.1,29.68,West,277,11.0,23.0,40,0.00,,---,0.25,VWS V14.01,2013-01-31 16:25:00,
2013-01-31 11:26:00,37.2,15.1,29.68,West,275,10.0,11.0,40,0.00,,---,0.25,VWS V14.01,2013-01-31 16:26:00,
2013-01-31 11:27:00,37.2,16.2,29.68,South,182,12.0,18.0,42,0.00,,---,0.25,VWS V14.01,2013-01-31 16:27:00,
2013-01-31 11:28:00,37.0,15.5,29.68,SW,234,11.0,19.0,41,0.00,,---,0.25,VWS V14.01,2013-01-31 16:28:00,
2013-01-31 11:29:00,36.9,15.4,29.68,West,273,9.0,15.0,41,0.00,,---,0.25,VWS V14.01,2013-01-31 16:29:00,
2013-01-31 11:30:00,36.8,16.4,29.69,SSW,196,9.0,14.0,43,0.00,,---,0.25,VWS V14.01,2013-01-31 16:30:00,
2013-01-31 11:31:00,36.8,16.4,29.69,SSW,213,16.0,19.0,43,0.00,,---,0.25,VWS V14.01,2013-01-31 16:31:00,
2013-01-31 11:32:00,36.6,16.2,29.69,West,265,8.0,11.0,43,0.00,,---,0.25,VWS V14.01,2013-01-31 16:32:00,
2013-01-31 11:33:00,36.6,15.7,29.69,SW,224,11.0,13.0,42,0.00,,---,0.25,VWS V14.01,2013-01-31 16:33:00,
2013-01-31 11:34:00,36.6,16.2,29.69,WNW,290,8.0,11.0,43,0.00,,---,0.25,VWS V14.01,2013-01-31 16:34:00,
2013-01-31 11:35:00,36.6,16.2,29.69,SW,230,6.0,19.0,43,0.00,,---,0.25,VWS V14.01,2013-01-31 16:35:00,
2013-01-31 11:36:00,36.6,16.2,29.69,SW,233,8.0,9.0,43,0.00,,---,0.25,VWS V14.01,2013-01-31 16:36:00,
2013-01-31 11:37:00,36.5,17.2,29.69,WSW,252,5.0,7.0,45,0.00,,---,0.25,VWS V14.01,2013-01-31 16:37:00,
2013-01-31 11:38:00,36.5,16.1,29.69,SW,229,14.0,16.0,43,0.00,,---,0.25,VWS V14.01,2013-01-31 16:38:00,
2013-01-31 11:39:00,36.3,15.4,29.69,West,265,6.0,14.0,42,0.00,,---,0.25,VWS V14.01,2013-01-31 16:39:00,
2013-01-31 11:40:00,36.3,15.4,29.69,West,263,5.0,10.0,42,0.00,,---,0.25,VWS V14.01,2013-01-31 16:40:00,
2013-01-31 11:41:00,36.3,16.0,29.69,NW,325,5.0,9.0,43,0.00,,---,0.25,VWS V14.01,2013-01-31 16:41:00,
2013-01-31 11:42:00,36.5,16.7,29.69,WSW,252,3.0,8.0,44,0.00,,---,0.25,VWS V14.01,2013-01-31 16:42:00,
2013-01-31 11:43:00,36.5,17.2,29.69,WSW,238,8.0,9.0,45,0.00,,---,0.25,VWS V14.01,2013-01-31 16:43:00,
2013-01-31 11:44:00,36.6,16.8,29.69,SSW,199,7.0,9.0,44,0.00,,---,0.25,VWS V14.01,2013-01-31 16:44:00,
2013-01-31 11:45:00,36.8,17.0,29.69,NW,315,12.0,12.0,44,0.00,,---,0.25,VWS V14.01,2013-01-31 16:45:00,
2013-01-31 11:46:00,36.9,18.1,29.69,SW,232,10.0,20.0,46,0.00,,---,0.25,VWS V14.01,2013-01-31 16:46:00,
2013-01-31 11:47:00,36.8,16.4,29.69,SW,225,8.0,18.0,43,0.00,,---,0.25,VWS V14.01,2013-01-31 16:47:00,
2013-01-31 11:48:00,36.8,17.0,29.69,SW,227,9.0,13.0,44,0.00,,---,0.25,VWS V14.01,2013-01-31 16:48:00,
2013-01-31 11:49:00,36.6,16.8,29.69,SSW,205,6.0,12.0,44,0.00,,---,0.25,VWS V14.01,2013-01-31 16:49:00,
2013-01-31 11:50:00,36.6,17.3,29.69,WSW,238,6.0,7.0,45,0.00,,---,0.25,VWS V14.01,2013-01-31 16:50:00,
2013-01-31 11:51:00,36.6,17.8,29.69,SSW,204,11.0,12.0,46,0.00,,---,0.25,VWS V14.01,2013-01-31 16:51:00,
2013-01-31 11:52:00,36.6,16.8,29.69,West,269,9.0,10.0,44,0.00,,---,0.25,VWS V14.01,2013-01-31 16:52:00,
2013-01-31 11:53:00,36.6,17.8,29.69,NW,304,8.0,14.0,46,0.00,,---,0.25,VWS V14.01,2013-01-31 16:53:00,
2013-01-31 11:54:00,36.5,17.2,29.69,WNW,292,13.0,14.0,45,0.00,,---,0.25,VWS V14.01,2013-01-31 16:54:00,
2013-01-31 11:55:00,36.3,18.0,29.69,SW,221,10.0,14.0,47,0.00,,---,0.25,VWS V14.01,2013-01-31 16:55:00,
2013-01-31 11:56:00,36.2,17.4,29.69,WNW,299,12.0,14.0,46,0.00,,---,0.25,VWS V14.01,2013-01-31 16:56:00,
2013-01-31 11:57:00,36.0,17.7,29.69,SSW,199,4.0,11.0,47,0.00,,---,0.25,VWS V14.01,2013-01-31 16:57:00,
2013-01-31 11:58:00,36.0,18.2,29.69,SW,232,16.0,16.0,48,0.00,,---,0.25,VWS V14.01,2013-01-31 16:58:00,
2013-01-31 11:59:00,36.0,17.7,29.69,WSW,251,12.0,16.0,47,0.00,,---,0.25,VWS V14.01,2013-01-31 16:59:00,
2013-01-31 12:00:00,35.9,17.1,29.70,NW,325,10.0,12.0,46,0.00,,---,0.25,VWS V14.01,2013-01-31 17:00:00,
2013-01-31 12:01:00,35.9,17.1,29.70,WNW,284,2.0,10.0,46,0.00,,---,0.25,VWS V14.01,2013-01-31 17:01:00,
2013-01-31 12:02:00,35.9,18.1,29.70,WSW,238,4.0,10.0,48,0.00,,---,0.25,VWS V14.01,2013-01-31 17:02:00,
2013-01-31 12:03:00,35.9,19.1,29.70,WSW,255,6.0,8.0,50,0.00,,---,0.25,VWS V14.01,2013-01-31 17:03:00,
2013-01-31 12:04:00,36.0,18.7,29.70,WNW,294,8.0,13.0,49,0.00,,---,0.25,VWS V14.01,2013-01-31 17:04:00,
2013-01-31 12:05:00,36.0,18.7,29.70,NW,309,7.0,9.0,49,0.00,,---,0.25,VWS V14.01,2013-01-31 17:05:00,
2013-01-31 12:06:00,36.2,18.9,29.70,WNW,295,2.0,7.0,49,0.00,,---,0.25,VWS V14.01,2013-01-31 17:06:00,
2013-01-31 12:07:00,36.3,19.5,29.70,SSW,211,13.0,13.0,50,0.00,,---,0.25,VWS V14.01,2013-01-31 17:07:00,
2013-01-31 12:08:00,36.3,18.5,29.70,SW,223,8.0,20.0,48,0.00,,---,0.25,VWS V14.01,2013-01-31 17:08:00,
2013-01-31 12:09:00,36.3,17.5,29.70,WSW,247,7.0,13.0,46,0.00,,---,0.25,VWS V14.01,2013-01-31 17:09:00,
2013-01-31 12:10:00,36.3,18.0,29.70,SW,234,12.0,21.0,47,0.00,,---,0.25,VWS V14.01,2013-01-31 17:10:00,
2013-01-31 12:11:00,36.5,17.7,29.70,West,274,12.0,18.0,46,0.00,,---,0.25,VWS V14.01,2013-01-31 17:11:00,
2013-01-31 12:12:00,36.5,18.2,29.70,WNW,292,7.0,19.0,47,0.00,,---,0.25,VWS V14.01,2013-01-31 17:12:00,
2013-01-31 12:13:00,36.5,17.7,29.70,NW,305,9.0,15.0,46,0.00,,---,0.25,VWS V14.01,2013-01-31 17:13:00,
2013-01-31 12:14:00,36.5,18.7,29.70,SSE,166,9.0,12.0,48,0.00,,---,0.25,VWS V14.01,2013-01-31 17:14:00,
2013-01-31 12:15:00,36.5,17.7,29.69,WNW,294,13.0,14.0,46,0.00,,---,0.25,VWS V14.01,2013-01-31 17:15:00,
2013-01-31 12:16:00,36.5,17.7,29.69,WNW,290,15.0,18.0,46,0.00,,---,0.25,VWS V14.01,2013-01-31 17:16:00,
2013-01-31 12:17:00,36.5,15.6,29.69,WSW,247,11.0,13.0,42,0.00,,---,0.25,VWS V14.01,2013-01-31 17:17:00,
2013-01-31 12:18:00,36.2,15.9,29.69,SW,220,6.0,12.0,43,0.00,,---,0.25,VWS V14.01,2013-01-31 17:18:00,
2013-01-31 12:19:00,36.0,15.7,29.69,WNW,284,10.0,11.0,43,0.00,,---,0.25,VWS V14.01,2013-01-31 17:19:00,
2013-01-31 12:20:00,36.0,15.7,29.69,WSW,248,4.0,14.0,43,0.00,,---,0.25,VWS V14.01,2013-01-31 17:20:00,
2013-01-31 12:21:00,35.9,15.6,29.69,West,280,9.0,10.0,43,0.00,,---,0.25,VWS V14.01,2013-01-31 17:21:00,
2013-01-31 12:22:00,35.9,15.6,29.69,WSW,242,7.0,8.0,43,0.00,,---,0.25,VWS V14.01,2013-01-31 17:22:00,
2013-01-31 12:23:00,35.8,16.0,29.69,West,266,6.0,9.0,44,0.00,,---,0.25,VWS V14.01,2013-01-31 17:23:00,
2013-01-31 12:24:00,35.8,17.1,29.69,WSW,250,7.0,13.0,46,0.00,,---,0.25,VWS V14.01,2013-01-31 17:24:00,
2013-01-31 12:25:00,35.8,16.0,29.69,SW,217,5.0,15.0,44,0.00,,---,0.25,VWS V14.01,2013-01-31 17:25:00,
2013-01-31 12:26:00,35.6,16.9,29.69,NW,317,8.0,8.0,46,0.00,,---,0.25,VWS V14.01,2013-01-31 17:26:00,
2013-01-31 12:27:00,35.6,15.9,29.69,NW,310,1.0,13.0,44,0.00,,---,0.25,VWS V14.01,2013-01-31 17:27:00,
2013-01-31 12:28:00,35.6,16.4,29.69,West,278,8.0,12.0,45,0.00,,---,0.25,VWS V14.01,2013-01-31 17:28:00,
2013-01-31 12:29:00,35.5,15.8,29.69,WSW,257,8.0,15.0,44,0.00,,---,0.25,VWS V14.01,2013-01-31 17:29:00,
2013-01-31 12:30:00,35.5,16.3,29.69,SSW,211,7.0,14.0,45,0.00,,---,0.25,VWS V14.01,2013-01-31 17:30:00,
2013-01-31 12:31:00,35.5,16.3,29.69,SW,227,5.0,9.0,45,0.00,,---,0.25,VWS V14.01,2013-01-31 17:31:00,
2013-01-31 12:32:00,35.6,16.9,29.69,SW,232,9.0,9.0,46,0.00,,---,0.25,VWS V14.01,2013-01-31 17:32:00,
2013-01-31 12:33:00,35.6,15.9,29.69,SW,236,8.0,9.0,44,0.00,,---,0.25,VWS V14.01,2013-01-31 17:33:00,
2013-01-31 12:34:00,35.6,16.4,29.69,WNW,300,6.0,14.0,45,0.00,,---,0.25,VWS V14.01,2013-01-31 17:34:00,
2013-01-31 12:35:00,35.6,16.4,29.69,WSW,239,8.0,8.0,45,0.00,,---,0.25,VWS V14.01,2013-01-31 17:35:00,
2013-01-31 12:36:00,35.8,16.5,29.69,SW,221,10.0,10.0,45,0.00,,---,0.25,VWS V14.01,2013-01-31 17:36:00,
2013-01-31 12:37:00,35.8,16.5,29.69,SSW,210,8.0,10.0,45,0.00,,---,0.25,VWS V14.01,2013-01-31 17:37:00,
2013-01-31 12:38:00,35.8,17.1,29.69,West,267,6.0,11.0,46,0.00,,---,0.25,VWS V14.01,2013-01-31 17:38:00,
2013-01-31 12:39:00,35.8,16.5,29.69,NW,304,9.0,10.0,45,0.00,,---,0.25,VWS V14.01,2013-01-31 17:39:00,
2013-01-31 12:40:00,35.8,16.5,29.69,WNW,295,6.0,13.0,45,0.00,,---,0.25,VWS V14.01,2013-01-31 17:40:00,
2013-01-31 12:41:00,35.9,16.1,29.69,SW,227,5.0,7.0,44,0.00,,---,0.25,VWS V14.01,2013-01-31 17:41:00,
2013-01-31 12:42:00,35.9,16.6,29.69,WSW,240,6.0,8.0,45,0.00,,---,0.25,VWS V14.01,2013-01-31 17:42:00,
2013-01-31 12:43:00,35.9,16.6,29.69,West,271,5.0,13.0,45,0.00,,---,0.25,VWS V14.01,2013-01-31 17:43:00,
2013-01-31 12:44:00,36.0,17.2,29.69,WSW,246,6.0,9.0,46,0.00,,---,0.25,VWS V14.01,2013-01-31 17:44:00,
2013-01-31 12:45:00,36.2,17.4,29.69,West,275,4.0,13.0,46,0.00,,---,0.25,VWS V14.01,2013-01-31 17:45:00,
2013-01-31 12:46:00,36.2,16.9,29.69,West,279,5.0,6.0,45,0.00,,---,0.25,VWS V14.01,2013-01-31 17:46:00,
2013-01-31 12:47:00,36.3,17.5,29.69,WNW,286,6.0,8.0,46,0.00,,---,0.25,VWS V14.01,2013-01-31 17:47:00,
2013-01-31 12:48:00,36.5,17.2,29.69,SW,235,7.0,11.0,45,0.00,,---,0.25,VWS V14.01,2013-01-31 17:48:00,
2013-01-31 12:49:00,36.5,17.2,29.69,NW,312,12.0,12.0,45,0.00,,---,0.25,VWS V14.01,2013-01-31 17:49:00,
2013-01-31 12:50:00,36.5,16.7,29.69,West,277,7.0,13.0,44,0.00,,---,0.25,VWS V14.01,2013-01-31 17:50:00,
2013-01-31 12:51:00,36.5,16.1,29.69,WNW,298,11.0,13.0,43,0.00,,---,0.25,VWS V14.01,2013-01-31 17:51:00,
2013-01-31 12:52:00,36.3,15.4,29.69,West,277,5.0,14.0,42,0.00,,---,0.25,VWS V14.01,2013-01-31 17:52:00,
2013-01-31 12:53:00,36.3,16.0,29.69,NW,308,6.0,16.0,43,0.00,,---,0.25,VWS V14.01,2013-01-31 17:53:00,
2013-01-31 12:54:00,36.2,15.9,29.69,WNW,289,6.0,14.0,43,0.00,,---,0.25,VWS V14.01,2013-01-31 17:54:00,
2013-01-31 12:55:00,36.2,16.4,29.69,WNW,289,7.0,12.0,44,0.00,,---,0.25,VWS V14.01,2013-01-31 17:55:00,
2013-01-31 12:56:00,36.2,16.4,29.69,WNW,294,10.0,14.0,44,0.00,,---,0.25,VWS V14.01,2013-01-31 17:56:00,
2013-01-31 12:57:00,36.0,15.7,29.69,West,272,5.0,9.0,43,0.00,,---,0.25,VWS V14.01,2013-01-31 17:57:00,
2013-01-31 12:58:00,36.2,15.9,29.69,SW,226,4.0,9.0,43,0.00,,---,0.25,VWS V14.01,2013-01-31 17:58:00,
2013-01-31 12:59:00,36.2,17.4,29.69,NW,304,5.0,9.0,46,0.00,,---,0.25,VWS V14.01,2013-01-31 17:59:00,
2013-01-31 13:00:00,36.2,16.4,29.68,WSW,242,11.0,12.0,44,0.00,,---,0.25,VWS V14.01,2013-01-31 18:00:00,
2013-01-31 13:01:00,36.2,15.9,29.68,WSW,253,7.0,13.0,43,0.00,,---,0.25,VWS V14.01,2013-01-31 18:01:00,
2013-01-31 13:02:00,36.2,17.4,29.68,WNW,287,8.0,8.0,46,0.00,,---,0.25,VWS V14.01,2013-01-31 18:02:00,
2013-01-31 13:03:00,36.2,17.4,29.68,West,259,8.0,12.0,46,0.00,,---,0.25,VWS V14.01,2013-01-31 18:03:00,
2013-01-31 13:04:00,36.2,16.9,29.68,WNW,293,13.0,13.0,45,0.00,,---,0.25,VWS V14.01,2013-01-31 18:04:00,
2013-01-31 13:05:00,36.2,16.9,29.68,WNW,289,7.0,13.0,45,0.00,,---,0.25,VWS V14.01,2013-01-31 18:05:00,
2013-01-31 13:06:00,36.2,16.9,29.68,West,281,5.0,8.0,45,0.00,,---,0.25,VWS V14.01,2013-01-31 18:06:00,
2013-01-31 13:07:00,36.5,18.7,29.68,SSE,168,3.0,5.0,48,0.00,,---,0.25,VWS V14.01,2013-01-31 18:07:00,
2013-01-31 13:08:00,36.6,18.3,29.68,South,176,11.0,11.0,47,0.00,,---,0.25,VWS V14.01,2013-01-31 18:08:00,
2013-01-31 13:09:00,36.9,18.6,29.68,NW,323,5.0,12.0,47,0.00,,---,0.25,VWS V14.01,2013-01-31 18:09:00,
2013-01-31 13:10:00,37.0,18.7,29.68,WSW,240,5.0,8.0,47,0.00,,---,0.25,VWS V14.01,2013-01-31 18:10:00,
2013-01-31 13:11:00,37.0,18.7,29.68,South,185,5.0,8.0,47,0.00,,---,0.25,VWS V14.01,2013-01-31 18:11:00,
2013-01-31 13:12:00,37.0,18.2,29.68,SSE,160,7.0,12.0,46,0.00,,---,0.25,VWS V14.01,2013-01-31 18:12:00,
2013-01-31 13:13:00,37.0,18.7,29.68,SSW,193,8.0,9.0,47,0.00,,---,0.25,VWS V14.01,2013-01-31 18:13:00,
2013-01-31 13:14:00,37.0,19.1,29.68,SW,236,4.0,11.0,48,0.00,,---,0.25,VWS V14.01,2013-01-31 18:14:00,
2013-01-31 13:15:00,37.0,19.6,29.68,WSW,248,7.0,10.0,49,0.00,,---,0.25,VWS V14.01,2013-01-31 18:15:00,
2013-01-31 13:16:00,36.9,18.6,29.68,WNW,292,5.0,7.0,47,0.00,,---,0.25,VWS V14.01,2013-01-31 18:16:00,
2013-01-31 13:17:00,36.9,19.5,29.68,West,264,5.0,11.0,49,0.00,,---,0.25,VWS V14.01,2013-01-31 18:17:00,
2013-01-31 13:18:00,36.9,19.5,29.68,WNW,300,12.0,12.0,49,0.00,,---,0.25,VWS V14.01,2013-01-31 18:18:00,
2013-01-31 13:19:00,36.9,19.5,29.68,West,271,6.0,12.0,49,0.00,,---,0.25,VWS V14.01,2013-01-31 18:19:00,
2013-01-31 13:20:00,36.9,19.5,29.68,WNW,295,9.0,13.0,49,0.00,,---,0.25,VWS V14.01,2013-01-31 18:20:00,
2013-01-31 13:21:00,36.8,19.0,29.68,WNW,290,8.0,13.0,48,0.00,,---,0.25,VWS V14.01,2013-01-31 18:21:00,
2013-01-31 13:22:00,36.6,17.3,29.68,WNW,298,12.0,14.0,45,0.00,,---,0.25,VWS V14.01,2013-01-31 18:22:00,
2013-01-31 13:23:00,36.5,16.7,29.68,WSW,244,6.0,12.0,44,0.00,,---,0.25,VWS V14.01,2013-01-31 18:23:00,
2013-01-31 13:24:00,36.3,16.0,29.68,West,264,9.0,14.0,43,0.00,,---,0.25,VWS V14.01,2013-01-31 18:24:00,
2013-01-31 13:25:00,36.2,13.6,29.68,SSW,196,7.0,12.0,39,0.00,,---,0.25,VWS V14.01,2013-01-31 18:25:00,
2013-01-31 13:26:00,36.0,14.0,29.68,West,266,8.0,11.0,40,0.00,,---,0.25,VWS V14.01,2013-01-31 18:26:00,
2013-01-31 13:27:00,35.9,13.9,29.68,NW,304,14.0,25.0,40,0.00,,---,0.25,VWS V14.01,2013-01-31 18:27:00,
2013-01-31 13:28:00,35.6,13.7,29.68,WNW,294,9.0,22.0,40,0.00,,---,0.25,VWS V14.01,2013-01-31 18:28:00,
2013-01-31 13:29:00,35.5,14.1,29.68,SSW,213,14.0,18.0,41,0.00,,---,0.25,VWS V14.01,2013-01-31 18:29:00,
2013-01-31 13:30:00,35.3,14.0,29.69,WSW,237,10.0,20.0,41,0.00,,---,0.25,VWS V14.01,2013-01-31 18:30:00,
2013-01-31 13:31:00,35.3,14.5,29.69,West,276,12.0,21.0,42,0.00,,---,0.25,VWS V14.01,2013-01-31 18:31:00,
2013-01-31 13:32:00,35.2,14.4,29.69,NW,323,18.0,20.0,42,0.00,,---,0.25,VWS V14.01,2013-01-31 18:32:00,
2013-01-31 13:33:00,35.2,15.0,29.69,SSW,210,14.0,18.0,43,0.00,,---,0.25,VWS V14.01,2013-01-31 18:33:00,
2013-01-31 13:34:00,35.3,14.5,29.69,West,269,6.0,20.0,42,0.00,,---,0.25,VWS V14.01,2013-01-31 18:34:00,
2013-01-31 13:35:00,35.5,15.8,29.69,WSW,250,12.0,12.0,44,0.00,,---,0.25,VWS V14.01,2013-01-31 18:35:00,
2013-01-31 13:36:00,35.5,15.8,29.69,West,265,12.0,15.0,44,0.00,,---,0.25,VWS V14.01,2013-01-31 18:36:00,
2013-01-31 13:37:00,35.8,15.5,29.69,WSW,241,15.0,15.0,43,0.00,,---,0.25,VWS V14.01,2013-01-31 18:37:00,
2013-01-31 13:38:00,35.8,13.9,29.69,SSW,210,9.0,18.0,40,0.00,,---,0.25,VWS V14.01,2013-01-31 18:38:00,
2013-01-31 13:39:00,35.6,14.2,29.69,West,268,9.0,16.0,41,0.00,,---,0.25,VWS V14.01,2013-01-31 18:39:00,
2013-01-31 13:40:00,35.6,14.2,29.69,West,262,10.0,21.0,41,0.00,,---,0.25,VWS V14.01,2013-01-31 18:40:00,
2013-01-31 13:41:00,35.6,14.2,29.69,SSW,193,24.0,24.0,41,0.00,,---,0.25,VWS V14.01,2013-01-31 18:41:00,
2013-01-31 13:42:00,35.2,13.3,29.69,WNW,298,8.0,24.0,40,0.00,,---,0.25,VWS V14.01,2013-01-31 18:42:00,
2013-01-31 13:43:00,35.0,14.2,29.69,WNW,288,12.0,20.0,42,0.00,,---,0.25,VWS V14.01,2013-01-31 18:43:00,
2013-01-31 13:44:00,34.9,13.0,29.69,West,270,7.0,19.0,40,0.00,,---,0.25,VWS V14.01,2013-01-31 18:44:00,
2013-01-31 13:45:00,34.9,14.1,29.70,West,280,7.0,19.0,42,0.00,,---,0.25,VWS V14.01,2013-01-31 18:45:00,
2013-01-31 13:46:00,34.9,14.1,29.70,SW,233,9.0,14.0,42,0.00,,---,0.25,VWS V14.01,2013-01-31 18:46:00,
2013-01-31 13:47:00,34.9,15.7,29.70,SW,222,3.0,10.0,45,0.00,,---,0.25,VWS V14.01,2013-01-31 18:47:00,
2013-01-31 13:48:00,34.9,15.7,29.70,West,267,8.0,11.0,45,0.00,,---,0.25,VWS V14.01,2013-01-31 18:48:00,
2013-01-31 13:49:00,34.9,14.1,29.70,WNW,286,13.0,13.0,42,0.00,,---,0.25,VWS V14.01,2013-01-31 18:49:00,
2013-01-31 13:50:00,35.0,14.2,29.70,West,271,7.0,14.0,42,0.00,,---,0.25,VWS V14.01,2013-01-31 18:50:00,
2013-01-31 13:51:00,34.9,14.1,29.70,West,270,9.0,14.0,42,0.00,,---,0.25,VWS V14.01,2013-01-31 18:51:00,
2013-01-31 13:52:00,34.9,14.7,29.70,WNW,284,6.0,10.0,43,0.00,,---,0.25,VWS V14.01,2013-01-31 18:52:00,
2013-01-31 13:53:00,35.0,14.8,29.70,WNW,299,4.0,10.0,43,0.00,,---,0.25,VWS V14.01,2013-01-31 18:53:00,
2013-01-31 13:54:00,35.0,15.3,29.70,West,269,4.0,6.0,44,0.00,,---,0.25,VWS V14.01,2013-01-31 18:54:00,
2013-01-31 13:55:00,35.2,16.5,29.70,WSW,252,6.0,9.0,46,0.00,,---,0.25,VWS V14.01,2013-01-31 18:55:00,
2013-01-31 13:56:00,35.2,15.0,29.70,SSW,211,6.0,7.0,43,0.00,,---,0.25,VWS V14.01,2013-01-31 18:56:00,
2013-01-31 13:57:00,35.2,15.5,29.70,NNW,331,9.0,11.0,44,0.00,,---,0.25,VWS V14.01,2013-01-31 18:57:00,
2013-01-31 13:58:00,35.2,15.0,29.70,SW,230,7.0,15.0,43,0.00,,---,0.25,VWS V14.01,2013-01-31 18:58:00,
2013-01-31 13:59:00,35.3,15.6,29.70,WNW,282,6.0,9.0,44,0.00,,---,0.25,VWS V14.01,2013-01-31 18:59:00,
2013-01-31 14:00:00,35.3,15.1,29.71,West,267,7.0,18.0,43,0.00,,---,0.25,VWS V14.01,2013-01-31 19:00:00,
2013-01-31 14:01:00,35.3,15.6,29.71,WSW,237,5.0,7.0,44,0.00,,---,0.25,VWS V14.01,2013-01-31 19:01:00,
2013-01-31 14:02:00,35.3,14.5,29.71,WSW,244,6.0,13.0,42,0.00,,---,0.25,VWS V14.01,2013-01-31 19:02:00,
2013-01-31 14:03:00,35.3,15.6,29.71,West,260,6.0,10.0,44,0.00,,---,0.25,VWS V14.01,2013-01-31 19:03:00,
2013-01-31 14:04:00,35.3,14.5,29.71,West,264,5.0,10.0,42,0.00,,---,0.25,VWS V14.01,2013-01-31 19:04:00,
2013-01-31 14:05:00,35.3,14.5,29.71,SW,236,3.0,11.0,42,0.00,,---,0.25,VWS V14.01,2013-01-31 19:05:00,
2013-01-31 14:06:00,35.5,14.7,29.71,SSW,195,7.0,7.0,42,0.00,,---,0.25,VWS V14.01,2013-01-31 19:06:00,
2013-01-31 14:07:00,35.5,14.7,29.71,WSW,246,6.0,14.0,42,0.00,,---,0.25,VWS V14.01,2013-01-31 19:07:00,
2013-01-31 14:08:00,35.6,15.3,29.71,South,180,6.0,8.0,43,0.00,,---,0.25,VWS V14.01,2013-01-31 19:08:00,
2013-01-31 14:09:00,35.6,14.8,29.71,WSW,256,6.0,12.0,42,0.00,,---,0.25,VWS V14.01,2013-01-31 19:09:00,
2013-01-31 14:10:00,35.6,13.7,29.71,SW,230,7.0,12.0,40,0.00,,---,0.25,VWS V14.01,2013-01-31 19:10:00,
2013-01-31 14:11:00,35.5,13.6,29.71,WSW,252,12.0,14.0,40,0.00,,---,0.25,VWS V14.01,2013-01-31 19:11:00,
2013-01-31 14:12:00,35.5,13.6,29.71,West,266,15.0,18.0,40,0.00,,---,0.25,VWS V14.01,2013-01-31 19:12:00,
2013-01-31 14:13:00,35.5,12.4,29.71,WSW,244,8.0,19.0,38,0.00,,---,0.25,VWS V14.01,2013-01-31 19:13:00,
2013-01-31 14:14:00,35.6,14.2,29.71,NW,315,12.0,12.0,41,0.00,,---,0.25,VWS V14.01,2013-01-31 19:14:00,
2013-01-31 14:15:00,35.6,14.8,29.71,WNW,296,6.0,14.0,42,0.00,,---,0.25,VWS V14.01,2013-01-31 19:15:00,
2013-01-31 14:16:00,35.6,14.8,29.71,West,277,4.0,8.0,42,0.00,,---,0.25,VWS V14.01,2013-01-31 19:16:00,
2013-01-31 14:17:00,35.9,16.1,29.71,NW,307,12.0,12.0,44,0.00,,---,0.25,VWS V14.01,2013-01-31 19:17:00,
2013-01-31 14:18:00,35.9,14.5,29.71,WSW,252,11.0,14.0,41,0.00,,---,0.25,VWS V14.01,2013-01-31 19:18:00,
2013-01-31 14:19:00,35.9,13.9,29.71,West,271,9.0,19.0,40,0.00,,---,0.25,VWS V14.01,2013-01-31 19:19:00,
2013-01-31 14:20:00,35.9,13.9,29.71,WSW,253,6.0,11.0,40,0.00,,---,0.25,VWS V14.01,2013-01-31 19:20:00,
2013-01-31 14:21:00,35.8,13.9,29.71,SW,232,6.0,6.0,40,0.00,,---,0.25,VWS V14.01,2013-01-31 19:21:00,
2013-01-31 14:22:00,35.9,15.1,29.71,WSW,245,4.0,7.0,42,0.00,,---,0.25,VWS V14.01,2013-01-31 19:22:00,
2013-01-31 14:23:00,35.9,14.5,29.71,West,265,4.0,10.0,41,0.00,,---,0.25,VWS V14.01,2013-01-31 19:23:00,
2013-01-31 14:24:00,35.9,14.5,29.71,SSW,203,5.0,7.0,41,0.00,,---,0.25,VWS V14.01,2013-01-31 19:24:00,
2013-01-31 14:25:00,36.0,15.1,29.71,WSW,238,7.0,11.0,42,0.00,,---,0.25,VWS V14.01,2013-01-31 19:25:00,
2013-01-31 14:26:00,36.0,14.6,29.71,SW,223,8.0,18.0,41,0.00,,---,0.25,VWS V14.01,2013-01-31 19:26:00,
2013-01-31 14:27:00,35.9,13.9,29.71,West,279,9.0,13.0,40,0.00,,---,0.25,VWS V14.01,2013-01-31 19:27:00,
2013-01-31 14:28:00,35.8,13.9,29.71,South,181,20.0,20.0,40,0.00,,---,0.25,VWS V14.01,2013-01-31 19:28:00,
2013-01-31 14:29:00,35.6,13.7,29.71,WNW,296,7.0,20.0,40,0.00,,---,0.25,VWS V14.01,2013-01-31 19:29:00,
2013-01-31 14:30:00,35.6,14.8,29.72,West,268,10.0,16.0,42,0.00,,---,0.25,VWS V14.01,2013-01-31 19:30:00,
2013-01-31 14:31:00,35.6,14.2,29.72,WSW,248,9.0,14.0,41,0.00,,---,0.25,VWS V14.01,2013-01-31 19:31:00,
2013-01-31 14:32:00,35.5,14.7,29.72,West,279,6.0,7.0,42,0.00,,---,0.25,VWS V14.01,2013-01-31 19:32:00,
2013-01-31 14:33:00,35.5,14.7,29.72,West,263,7.0,11.0,42,0.00,,---,0.25,VWS V14.01,2013-01-31 19:33:00,
2013-01-31 14:34:00,35.5,15.2,29.72,West,270,7.0,8.0,43,0.00,,---,0.25,VWS V14.01,2013-01-31 19:34:00,
2013-01-31 14:35:00,35.6,15.3,29.72,West,261,5.0,10.0,43,0.00,,---,0.25,VWS V14.01,2013-01-31 19:35:00,
2013-01-31 14:36:00,35.8,15.5,29.72,SSW,206,4.0,6.0,43,0.00,,---,0.25,VWS V14.01,2013-01-31 19:36:00,
2013-01-31 14:37:00,36.0,15.7,29.72,South,173,13.0,18.0,43,0.00,,---,0.25,VWS V14.01,2013-01-31 19:37:00,
2013-01-31 14:38:00,36.0,13.5,29.72,WSW,257,6.0,20.0,39,0.00,,---,0.25,VWS V14.01,2013-01-31 19:38:00,
2013-01-31 14:39:00,35.9,13.4,29.72,WSW,241,10.0,18.0,39,0.00,,---,0.25,VWS V14.01,2013-01-31 19:39:00,
2013-01-31 14:40:00,35.9,13.9,29.72,SW,217,3.0,13.0,40,0.00,,---,0.25,VWS V14.01,2013-01-31 19:40:00,
2013-01-31 14:41:00,35.9,13.9,29.72,West,265,13.0,21.0,40,0.00,,---,0.25,VWS V14.01,2013-01-31 19:41:00,
2013-01-31 14:42:00,35.6,13.7,29.72,SSE,161,6.0,12.0,40,0.00,,---,0.25,VWS V14.01,2013-01-31 19:42:00,
2013-01-31 14:43:00,35.6,13.7,29.72,WSW,250,9.0,24.0,40,0.00,,---,0.25,VWS V14.01,2013-01-31 19:43:00,
2013-01-31 14:44:00,35.5,14.1,29.72,SW,221,11.0,11.0,41,0.00,,---,0.25,VWS V14.01,2013-01-31 19:44:00,
2013-01-31 14:45:00,35.5,13.0,29.73,West,259,12.0,12.0,39,0.00,,---,0.25,VWS V14.01,2013-01-31 19:45:00,
2013-01-31 14:46:00,35.5,13.0,29.73,WSW,254,9.0,12.0,39,0.00,,---,0.25,VWS V14.01,2013-01-31 19:46:00,
2013-01-31 14:47:00,35.3,12.2,29.73,SW,227,10.0,14.0,38,0.00,,---,0.25,VWS V14.01,2013-01-31 19:47:00,
2013-01-31 14:48:00,35.2,12.7,29.73,SW,234,12.0,21.0,39,0.00,,---,0.25,VWS V14.01,2013-01-31 19:48:00,
2013-01-31 14:49:00,35.0,12.0,29.73,SSW,198,6.0,18.0,38,0.00,,---,0.25,VWS V14.01,2013-01-31 19:49:00,
2013-01-31 14:50:00,35.0,12.0,29.73,SSW,211,12.0,20.0,38,0.00,,---,0.25,VWS V14.01,2013-01-31 19:50:00,
2013-01-31 14:51:00,35.0,12.0,29.73,WSW,251,9.0,12.0,38,0.00,,---,0.25,VWS V14.01,2013-01-31 19:51:00,
2013-01-31 14:52:00,35.0,13.1,29.73,SW,219,10.0,21.0,40,0.00,,---,0.25,VWS V14.01,2013-01-31 19:52:00,
2013-01-31 14:53:00,35.0,12.0,29.73,SSW,202,8.0,21.0,38,0.00,,---,0.25,VWS V14.01,2013-01-31 19:53:00,
2013-01-31 14:54:00,35.0,11.4,29.73,SSW,196,24.0,24.0,37,0.00,,---,0.25,VWS V14.01,2013-01-31 19:54:00,
2013-01-31 14:55:00,34.9,10.7,29.73,SW,217,10.0,27.0,36,0.00,,---,0.25,VWS V14.01,2013-01-31 19:55:00,
2013-01-31 14:56:00,34.7,10.5,29.73,West,267,6.0,11.0,36,0.00,,---,0.25,VWS V14.01,2013-01-31 19:56:00,
2013-01-31 14:57:00,34.7,11.1,29.73,WSW,254,12.0,15.0,37,0.00,,---,0.25,VWS V14.01,2013-01-31 19:57:00,
2013-01-31 14:58:00,34.6,11.6,29.73,SW,236,23.0,24.0,38,0.00,,---,0.25,VWS V14.01,2013-01-31 19:58:00,
2013-01-31 14:59:00,34.6,11.0,29.73,SW,234,4.0,23.0,37,0.00,,---,0.25,VWS V14.01,2013-01-31 19:59:00,
2013-01-31 15:00:00,34.4,11.4,29.75,WNW,289,8.0,14.0,38,0.00,,---,0.25,VWS V14.01,2013-01-31 20:00:00,
2013-01-31 15:01:00,34.4,11.4,29.75,SW,224,9.0,11.0,38,0.00,,---,0.25,VWS V14.01,2013-01-31 20:01:00,
2013-01-31 15:02:00,34.4,11.4,29.75,WSW,240,8.0,13.0,38,0.00,,---,0.25,VWS V14.01,2013-01-31 20:02:00,
2013-01-31 15:03:00,34.4,10.8,29.75,West,266,9.0,19.0,37,0.00,,---,0.25,VWS V14.01,2013-01-31 20:03:00,
2013-01-31 15:04:00,34.4,11.4,29.75,WNW,296,9.0,14.0,38,0.00,,---,0.25,VWS V14.01,2013-01-31 20:04:00,
2013-01-31 15:05:00,34.4,12.0,29.75,West,263,12.0,15.0,39,0.00,,---,0.25,VWS V14.01,2013-01-31 20:05:00,
2013-01-31 15:06:00,34.4,10.8,29.75,SSE,165,12.0,13.0,37,0.00,,---,0.25,VWS V14.01,2013-01-31 20:06:00,
2013-01-31 15:07:00,34.4,11.4,29.75,West,263,8.0,13.0,38,0.00,,---,0.25,VWS V14.01,2013-01-31 20:07:00,
2013-01-31 15:08:00,34.4,11.4,29.75,SSW,208,8.0,15.0,38,0.00,,---,0.25,VWS V14.01,2013-01-31 20:08:00,
2013-01-31 15:09:00,34.4,12.0,29.75,West,273,9.0,13.0,39,0.00,,---,0.25,VWS V14.01,2013-01-31 20:09:00,
2013-01-31 15:10:00,34.4,12.0,29.75,SSE,155,12.0,18.0,39,0.00,,---,0.25,VWS V14.01,2013-01-31 20:10:00,
2013-01-31 15:11:00,34.3,11.9,29.75,SSW,194,8.0,12.0,39,0.00,,---,0.25,VWS V14.01,2013-01-31 20:11:00,
2013-01-31 15:12:00,34.3,12.5,29.75,West,273,5.0,12.0,40,0.00,,---,0.25,VWS V14.01,2013-01-31 20:12:00,
2013-01-31 15:13:00,34.3,12.5,29.75,WSW,246,10.0,11.0,40,0.00,,---,0.25,VWS V14.01,2013-01-31 20:13:00,
2013-01-31 15:14:00,34.3,12.5,29.75,WSW,251,6.0,14.0,40,0.00,,---,0.25,VWS V14.01,2013-01-31 20:14:00,
2013-01-31 15:15:00,34.3,13.1,29.75,WSW,251,10.0,10.0,41,0.00,,---,0.25,VWS V14.01,2013-01-31 20:15:00,
2013-01-31 15:16:00,34.3,13.1,29.75,WSW,244,8.0,10.0,41,0.00,,---,0.25,VWS V14.01,2013-01-31 20:16:00,
2013-01-31 15:17:00,34.3,13.6,29.75,South,180,5.0,7.0,42,0.00,,---,0.25,VWS V14.01,2013-01-31 20:17:00,
2013-01-31 15:18:00,34.1,13.4,29.75,SW,215,5.0,8.0,42,0.00,,---,0.25,VWS V14.01,2013-01-31 20:18:00,
2013-01-31 15:19:00,34.1,13.4,29.75,WSW,250,5.0,9.0,42,0.00,,---,0.25,VWS V14.01,2013-01-31 20:19:00,
2013-01-31 15:20:00,34.1,13.4,29.75,SW,234,6.0,9.0,42,0.00,,---,0.25,VWS V14.01,2013-01-31 20:20:00,
2013-01-31 15:21:00,34.1,13.4,29.75,WSW,241,6.0,7.0,42,0.00,,---,0.25,VWS V14.01,2013-01-31 20:21:00,
2013-01-31 15:22:00,34.1,12.9,29.75,SW,219,8.0,10.0,41,0.00,,---,0.25,VWS V14.01,2013-01-31 20:22:00,
2013-01-31 15:23:00,34.1,12.3,29.75,WSW,250,5.0,8.0,40,0.00,,---,0.25,VWS V14.01,2013-01-31 20:23:00,
2013-01-31 15:24:00,34.1,12.9,29.75,SSW,201,5.0,7.0,41,0.00,,---,0.25,VWS V14.01,2013-01-31 20:24:00,
2013-01-31 15:25:00,34.1,12.3,29.75,West,259,0.0,9.0,40,0.00,,---,0.25,VWS V14.01,2013-01-31 20:25:00,
2013-01-31 15:26:00,34.1,12.3,29.75,SSW,205,11.0,13.0,40,0.00,,---,0.25,VWS V14.01,2013-01-31 20:26:00,
2013-01-31 15:27:00,34.0,12.8,29.75,SSW,207,4.0,6.0,41,0.00,,---,0.25,VWS V14.01,2013-01-31 20:27:00,
2013-01-31 15:28:00,34.0,13.3,29.75,South,189,8.0,11.0,42,0.00,,---,0.25,VWS V14.01,2013-01-31 20:28:00,
2013-01-31 15:29:00,34.1,13.4,29.75,West,275,9.0,14.0,42,0.00,,---,0.25,VWS V14.01,2013-01-31 20:29:00,
2013-01-31 15:30:00,34.1,14.0,29.75,WSW,242,7.0,9.0,43,0.00,,---,0.25,VWS V14.01,2013-01-31 20:30:00,
2013-01-31 15:31:00,34.1,14.0,29.75,SW,229,5.0,8.0,43,0.00,,---,0.25,VWS V14.01,2013-01-31 20:31:00,
2013-01-31 15:32:00,34.1,14.5,29.75,SSW,208,6.0,6.0,44,0.00,,---,0.25,VWS V14.01,2013-01-31 20:32:00,
2013-01-31 15:33:00,34.1,14.0,29.75,WSW,252,6.0,9.0,43,0.00,,---,0.25,VWS V14.01,2013-01-31 20:33:00,
2013-01-31 15:34:00,34.3,14.1,29.75,WSW,252,1.0,6.0,43,0.00,,---,0.25,VWS V14.01,2013-01-31 20:34:00,
2013-01-31 15:35:00,34.3,15.2,29.75,SW,233,5.0,6.0,45,0.00,,---,0.25,VWS V14.01,2013-01-31 20:35:00,
2013-01-31 15:36:00,34.3,14.1,29.75,West,267,4.0,5.0,43,0.00,,---,0.25,VWS V14.01,2013-01-31 20:36:00,
2013-01-31 15:37:00,34.3,14.1,29.75,WSW,258,4.0,7.0,43,0.00,,---,0.25,VWS V14.01,2013-01-31 20:37:00,
2013-01-31 15:38:00,34.1,14.0,29.75,WSW,240,7.0,13.0,43,0.00,,---,0.25,VWS V14.01,2013-01-31 20:38:00,
2013-01-31 15:39:00,34.1,14.0,29.75,WSW,248,9.0,14.0,43,0.00,,---,0.25,VWS V14.01,2013-01-31 20:39:00,
2013-01-31 15:40:00,34.0,13.3,29.75,WSW,252,6.0,13.0,42,0.00,,---,0.25,VWS V14.01,2013-01-31 20:40:00,
2013-01-31 15:41:00,34.0,13.3,29.75,SW,217,5.0,8.0,42,0.00,,---,0.25,VWS V14.01,2013-01-31 20:41:00,
2013-01-31 15:42:00,34.0,13.9,29.75,West,267,4.0,9.0,43,0.00,,---,0.25,VWS V14.01,2013-01-31 20:42:00,
2013-01-31 15:43:00,34.0,13.9,29.75,WSW,257,4.0,7.0,43,0.00,,---,0.25,VWS V14.01,2013-01-31 20:43:00,
2013-01-31 15:44:00,34.0,13.9,29.75,SW,225,5.0,6.0,43,0.00,,---,0.25,VWS V14.01,2013-01-31 20:44:00,
2013-01-31 15:45:00,34.0,14.4,29.77,WSW,243,8.0,9.0,44,0.00,,---,0.25,VWS V14.01,2013-01-31 20:45:00,
2013-01-31 15:46:00,34.0,14.9,29.77,South,171,6.0,9.0,45,0.00,,---,0.25,VWS V14.01,2013-01-31 20:46:00,
2013-01-31 15:47:00,34.0,15.4,29.77,SW,217,8.0,8.0,46,0.00,,---,0.25,VWS V14.01,2013-01-31 20:47:00,
2013-01-31 15:48:00,34.0,14.4,29.77,WSW,244,7.0,11.0,44,0.00,,---,0.25,VWS V14.01,2013-01-31 20:48:00,
2013-01-31 15:49:00,34.0,13.9,29.77,SW,232,4.0,11.0,43,0.00,,---,0.25,VWS V14.01,2013-01-31 20:49:00,
2013-01-31 15:50:00,34.0,13.9,29.77,South,189,1.0,8.0,43,0.00,,---,0.25,VWS V14.01,2013-01-31 20:50:00,
2013-01-31 15:51:00,34.0,13.9,29.77,ESE,117,4.0,8.0,43,0.00,,---,0.25,VWS V14.01,2013-01-31 20:51:00,
2013-01-31 15:52:00,34.0,14.4,29.77,WSW,244,4.0,8.0,44,0.00,,---,0.25,VWS V14.01,2013-01-31 20:52:00,
2013-01-31 15:53:00,34.0,14.4,29.77,West,261,8.0,11.0,44,0.00,,---,0.25,VWS V14.01,2013-01-31 20:53:00,
2013-01-31 15:54:00,34.1,14.0,29.77,West,263,6.0,11.0,43,0.00,,---,0.25,VWS V14.01,2013-01-31 20:54:00,
2013-01-31 15:55:00,34.1,14.0,29.77,South,181,4.0,8.0,43,0.00,,---,0.25,VWS V14.01,2013-01-31 20:55:00,
2013-01-31 15:56:00,34.1,14.0,29.77,South,181,2.0,4.0,43,0.00,,---,0.25,VWS V14.01,2013-01-31 20:56:00,
2013-01-31 15:57:00,34.3,15.2,29.77,SW,227,5.0,9.0,45,0.00,,---,0.25,VWS V14.01,2013-01-31 20:57:00,
2013-01-31 15:58:00,34.3,14.1,29.77,South,188,11.0,13.0,43,0.00,,---,0.25,VWS V14.01,2013-01-31 20:58:00,
2013-01-31 15:59:00,34.3,14.1,29.77,South,186,4.0,11.0,43,0.00,,---,0.25,VWS V14.01,2013-01-31 20:59:00,
2013-01-31 16:00:00,34.3,14.1,29.77,WNW,288,8.0,11.0,43,0.00,,---,0.25,VWS V14.01,2013-01-31 21:00:00,
2013-01-31 16:01:00,34.3,14.1,29.77,WSW,253,4.0,9.0,43,0.00,,---,0.25,VWS V14.01,2013-01-31 21:01:00,
2013-01-31 16:02:00,34.3,14.1,29.77,WNW,291,6.0,8.0,43,0.00,,---,0.25,VWS V14.01,2013-01-31 21:02:00,
2013-01-31 16:03:00,34.4,14.2,29.77,WSW,246,5.0,7.0,43,0.00,,---,0.25,VWS V14.01,2013-01-31 21:03:00,
2013-01-31 16:04:00,34.4,14.8,29.77,WSW,245,5.0,10.0,44,0.00,,---,0.25,VWS V14.01,2013-01-31 21:04:00,
2013-01-31 16:05:00,34.4,14.2,29.77,WNW,286,10.0,12.0,43,0.00,,---,0.25,VWS V14.01,2013-01-31 21:05:00,
2013-01-31 16:06:00,34.4,13.7,29.77,West,261,5.0,10.0,42,0.00,,---,0.25,VWS V14.01,2013-01-31 21:06:00,
2013-01-31 16:07:00,34.3,13.6,29.77,SW,234,3.0,12.0,42,0.00,,---,0.25,VWS V14.01,2013-01-31 21:07:00,
2013-01-31 16:08:00,34.3,14.1,29.77,SSW,200,12.0,12.0,43,0.00,,---,0.25,VWS V14.01,2013-01-31 21:08:00,
2013-01-31 16:09:00,34.3,14.1,29.77,SW,214,12.0,13.0,43,0.00,,---,0.25,VWS V14.01,2013-01-31 21:09:00,
2013-01-31 16:10:00,34.3,13.6,29.77,WSW,240,10.0,12.0,42,0.00,,---,0.25,VWS V14.01,2013-01-31 21:10:00,
2013-01-31 16:11:00,34.3,13.6,29.77,WSW,258,9.0,12.0,42,0.00,,---,0.25,VWS V14.01,2013-01-31 21:11:00,
2013-01-31 16:12:00,34.3,13.6,29.77,ESE,123,3.0,13.0,42,0.00,,---,0.25,VWS V14.01,2013-01-31 21:12:00,
2013-01-31 16:13:00,34.3,13.6,29.77,WSW,255,4.0,7.0,42,0.00,,---,0.25,VWS V14.01,2013-01-31 21:13:00,
2013-01-31 16:14:00,34.3,14.1,29.77,WSW,251,2.0,5.0,43,0.00,,---,0.25,VWS V14.01,2013-01-31 21:14:00,
2013-01-31 16:15:00,34.3,14.7,29.77,NW,304,4.0,6.0,44,0.00,,---,0.25,VWS V14.01,2013-01-31 21:15:00,
2013-01-31 16:16:00,34.3,14.1,29.77,SW,229,5.0,7.0,43,0.00,,---,0.25,VWS V14.01,2013-01-31 21:16:00,
2013-01-31 16:17:00,34.3,14.1,29.77,WSW,246,6.0,9.0,43,0.00,,---,0.25,VWS V14.01,2013-01-31 21:17:00,
2013-01-31 16:18:00,34.3,13.6,29.77,SW,227,8.0,11.0,42,0.00,,---,0.25,VWS V14.01,2013-01-31 21:18:00,
2013-01-31 16:19:00,34.3,14.1,29.77,West,273,6.0,8.0,43,0.00,,---,0.25,VWS V14.01,2013-01-31 21:19:00,
2013-01-31 16:20:00,34.3,14.1,29.77,South,188,4.0,7.0,43,0.00,,---,0.25,VWS V14.01,2013-01-31 21:20:00,
2013-01-31 16:21:00,34.3,14.1,29.77,SSW,194,8.0,10.0,43,0.00,,---,0.25,VWS V14.01,2013-01-31 21:21:00,
2013-01-31 16:22:00,34.1,14.0,29.77,West,261,6.0,10.0,43,0.00,,---,0.25,VWS V14.01,2013-01-31 21:22:00,
2013-01-31 16:23:00,34.1,14.0,29.77,SSW,192,8.0,19.0,43,0.00,,---,0.25,VWS V14.01,2013-01-31 21:23:00,
2013-01-31 16:24:00,34.0,14.4,29.77,South,191,6.0,14.0,44,0.00,,---,0.25,VWS V14.01,2013-01-31 21:24:00,
2013-01-31 16:25:00,34.0,14.9,29.77,WSW,239,9.0,9.0,45,0.00,,---,0.25,VWS V14.01,2013-01-31 21:25:00,
2013-01-31 16:26:00,34.0,14.9,29.77,West,275,5.0,12.0,45,0.00,,---,0.25,VWS V14.01,2013-01-31 21:26:00,
2013-01-31 16:27:00,33.8,14.7,29.77,West,271,5.0,12.0,45,0.00,,---,0.25,VWS V14.01,2013-01-31 21:27:00,
2013-01-31 16:28:00,33.8,14.7,29.77,South,170,7.0,12.0,45,0.00,,---,0.25,VWS V14.01,2013-01-31 21:28:00,
2013-01-31 16:29:00,33.8,14.2,29.77,West,262,9.0,12.0,44,0.00,,---,0.25,VWS V14.01,2013-01-31 21:29:00,
2013-01-31 16:30:00,33.7,14.6,29.78,SSW,198,6.0,10.0,45,0.00,,---,0.25,VWS V14.01,2013-01-31 21:30:00,
2013-01-31 16:31:00,33.7,14.6,29.78,WSW,242,9.0,11.0,45,0.00,,---,0.25,VWS V14.01,2013-01-31 21:31:00,
2013-01-31 16:32:00,33.7,14.6,29.78,SW,224,6.0,8.0,45,0.00,,---,0.25,VWS V14.01,2013-01-31 21:32:00,
2013-01-31 16:33:00,33.7,14.6,29.78,SSE,167,10.0,11.0,45,0.00,,---,0.25,VWS V14.01,2013-01-31 21:33:00,
2013-01-31 16:34:00,33.7,14.6,29.78,West,263,8.0,13.0,45,0.00,,---,0.25,VWS V14.01,2013-01-31 21:34:00,
2013-01-31 16:35:00,33.5,15.9,29.78,WNW,290,6.0,13.0,48,0.00,,---,0.25,VWS V14.01,2013-01-31 21:35:00,
2013-01-31 16:36:00,33.5,15.9,29.78,South,177,4.0,6.0,48,0.00,,---,0.25,VWS V14.01,2013-01-31 21:36:00,
2013-01-31 16:37:00,33.4,15.8,29.78,SSW,194,4.0,10.0,48,0.00,,---,0.25,VWS V14.01,2013-01-31 21:37:00,
2013-01-31 16:38:00,33.4,15.8,29.78,SSW,213,1.0,6.0,48,0.00,,---,0.25,VWS V14.01,2013-01-31 21:38:00,
2013-01-31 16:39:00,33.2,16.1,29.78,WSW,257,2.0,8.0,49,0.00,,---,0.25,VWS V14.01,2013-01-31 21:39:00,
2013-01-31 16:40:00,33.2,16.1,29.78,SSW,193,15.0,15.0,49,0.00,,---,0.25,VWS V14.01,2013-01-31 21:40:00,
2013-01-31 16:41:00,33.2,16.1,29.78,South,175,8.0,15.0,49,0.00,,---,0.25,VWS V14.01,2013-01-31 21:41:00,
2013-01-31 16:42:00,33.1,16.0,29.78,West,279,7.0,11.0,49,0.00,,---,0.25,VWS V14.01,2013-01-31 21:42:00,
2013-01-31 16:43:00,33.1,16.5,29.78,SSW,206,5.0,8.0,50,0.00,,---,0.25,VWS V14.01,2013-01-31 21:43:00,
2013-01-31 16:44:00,32.9,16.8,29.78,SW,216,4.0,6.0,51,0.00,,---,0.25,VWS V14.01,2013-01-31 21:44:00,
2013-01-31 16:45:00,32.9,16.8,29.79,West,272,7.0,8.0,51,0.00,,---,0.25,VWS V14.01,2013-01-31 21:45:00,
2013-01-31 16:46:00,32.9,16.8,29.79,WSW,242,7.0,10.0,51,0.00,,---,0.25,VWS V14.01,2013-01-31 21:46:00,
2013-01-31 16:47:00,32.9,16.3,29.79,WNW,291,6.0,10.0,50,0.00,,---,0.25,VWS V14.01,2013-01-31 21:47:00,
2013-01-31 16:48:00,32.8,16.7,29.79,WSW,242,3.0,8.0,51,0.00,,---,0.25,VWS V14.01,2013-01-31 21:48:00,
2013-01-31 16:49:00,32.8,16.7,29.79,West,266,4.0,5.0,51,0.00,,---,0.25,VWS V14.01,2013-01-31 21:49:00,
2013-01-31 16:50:00,32.8,16.7,29.79,West,275,5.0,5.0,51,0.00,,---,0.25,VWS V14.01,2013-01-31 21:50:00,
2013-01-31 16:51:00,32.8,16.7,29.79,West,273,5.0,6.0,51,0.00,,---,0.25,VWS V14.01,2013-01-31 21:51:00,
2013-01-31 16:52:00,32.8,17.1,29.79,WNW,282,6.0,8.0,52,0.00,,---,0.25,VWS V14.01,2013-01-31 21:52:00,
2013-01-31 16:53:00,32.8,17.1,29.79,WNW,303,5.0,8.0,52,0.00,,---,0.25,VWS V14.01,2013-01-31 21:53:00,
2013-01-31 16:54:00,32.8,18.0,29.79,West,263,5.0,10.0,54,0.00,,---,0.25,VWS V14.01,2013-01-31 21:54:00,
2013-01-31 16:55:00,32.7,17.9,29.79,NW,324,18.0,18.0,54,0.00,,---,0.25,VWS V14.01,2013-01-31 21:55:00,
2013-01-31 16:56:00,32.7,17.9,29.79,WNW,294,6.0,18.0,54,0.00,,---,0.25,VWS V14.01,2013-01-31 21:56:00,
2013-01-31 16:57:00,32.5,18.1,29.79,SW,232,5.0,9.0,55,0.00,,---,0.25,VWS V14.01,2013-01-31 21:57:00,
2013-01-31 16:58:00,32.5,19.4,29.79,WSW,247,2.0,11.0,58,0.00,,---,0.25,VWS V14.01,2013-01-31 21:58:00,
2013-01-31 16:59:00,32.4,19.3,29.79,West,265,7.0,10.0,58,0.00,,---,0.25,VWS V14.01,2013-01-31 21:59:00,
2013-01-31 17:01:00,32.2,19.5,29.81,SSW,213,7.0,8.0,59,0.00,,---,0.25,VWS V14.01,2013-01-31 22:01:00,
2013-01-31 17:02:00,32.1,19.8,29.81,WSW,238,4.0,7.0,60,0.00,,---,0.25,VWS V14.01,2013-01-31 22:02:00,
2013-01-31 17:03:00,31.9,20.0,29.81,WNW,286,10.0,10.0,61,0.00,,---,0.25,VWS V14.01,2013-01-31 22:03:00,
2013-01-31 17:04:00,31.9,20.0,29.81,WNW,290,7.0,12.0,61,0.00,,---,0.25,VWS V14.01,2013-01-31 22:04:00,
2013-01-31 17:05:00,31.8,19.9,29.81,SW,217,5.0,7.0,61,0.00,,---,0.25,VWS V14.01,2013-01-31 22:05:00,
2013-01-31 17:06:00,31.8,19.9,29.81,SW,218,1.0,5.0,61,0.00,,---,0.25,VWS V14.01,2013-01-31 22:06:00,
2013-01-31 17:07:00,31.8,21.0,29.81,WNW,301,10.0,10.0,64,0.00,,---,0.25,VWS V14.01,2013-01-31 22:07:00,
2013-01-31 17:08:00,31.6,20.8,29.81,SW,228,6.0,10.0,64,0.00,,---,0.25,VWS V14.01,2013-01-31 22:08:00,
2013-01-31 17:09:00,31.5,20.7,29.81,SW,229,7.0,10.0,64,0.00,,---,0.25,VWS V14.01,2013-01-31 22:09:00,
2013-01-31 17:10:00,31.5,21.1,29.81,WNW,292,4.0,7.0,65,0.00,,---,0.25,VWS V14.01,2013-01-31 22:10:00,
2013-01-31 17:11:00,31.3,20.9,29.81,WNW,300,5.0,11.0,65,0.00,,---,0.25,VWS V14.01,2013-01-31 22:11:00,
2013-01-31 17:12:00,31.2,20.8,29.81,WNW,299,8.0,13.0,65,0.00,,---,0.25,VWS V14.01,2013-01-31 22:12:00,
2013-01-31 17:13:00,31.0,21.0,29.81,WNW,293,4.0,8.0,66,0.00,,---,0.25,VWS V14.01,2013-01-31 22:13:00,
2013-01-31 17:14:00,31.0,21.0,29.81,WSW,258,7.0,8.0,66,0.00,,---,0.25,VWS V14.01,2013-01-31 22:14:00,
2013-01-31 17:15:00,30.9,20.9,29.82,WSW,244,3.0,10.0,66,0.00,,---,0.25,VWS V14.01,2013-01-31 22:15:00,
2013-01-31 17:16:00,30.9,21.2,29.82,WSW,244,2.0,3.0,67,0.00,,---,0.25,VWS V14.01,2013-01-31 22:16:00,
2013-01-31 17:17:00,30.7,21.1,29.82,SW,223,1.0,6.0,67,0.00,,---,0.25,VWS V14.01,2013-01-31 22:17:00,
2013-01-31 17:18:00,30.7,21.4,29.82,SSW,207,5.0,5.0,68,0.00,,---,0.25,VWS V14.01,2013-01-31 22:18:00,
2013-01-31 17:19:00,30.6,21.0,29.82,South,180,9.0,9.0,67,0.00,,---,0.25,VWS V14.01,2013-01-31 22:19:00,
2013-01-31 17:20:00,30.6,21.0,29.82,South,177,0.0,9.0,67,0.00,,---,0.25,VWS V14.01,2013-01-31 22:20:00,
2013-01-31 17:21:00,30.6,21.0,29.82,South,177,2.0,2.0,67,0.00,,---,0.25,VWS V14.01,2013-01-31 22:21:00,
2013-01-31 17:22:00,30.4,20.8,29.82,South,178,4.0,5.0,67,0.00,,---,0.25,VWS V14.01,2013-01-31 22:22:00,
2013-01-31 17:23:00,30.4,20.8,29.82,South,178,0.0,4.0,67,0.00,,---,0.25,VWS V14.01,2013-01-31 22:23:00,
2013-01-31 17:24:00,30.4,20.8,29.82,South,178,0.0,1.0,67,0.00,,---,0.25,VWS V14.01,2013-01-31 22:24:00,
2013-01-31 17:25:00,30.4,20.8,29.82,South,178,0.0,0.0,67,0.00,,---,0.25,VWS V14.01,2013-01-31 22:25:00,
2013-01-31 17:26:00,30.4,21.1,29.82,SE,144,6.0,6.0,68,0.00,,---,0.25,VWS V14.01,2013-01-31 22:26:00,
2013-01-31 17:27:00,30.3,21.0,29.82,SE,144,0.0,4.0,68,0.00,,---,0.25,VWS V14.01,2013-01-31 22:27:00,
2013-01-31 17:28:00,30.3,20.7,29.82,SE,144,1.0,2.0,67,0.00,,---,0.25,VWS V14.01,2013-01-31 22:28:00,
2013-01-31 17:29:00,30.3,20.7,29.82,SE,144,0.0,1.0,67,0.00,,---,0.25,VWS V14.01,2013-01-31 22:29:00,
2013-01-31 17:30:00,30.3,20.7,29.83,SE,144,0.0,1.0,67,0.00,,---,0.25,VWS V14.01,2013-01-31 22:30:00,
2013-01-31 17:31:00,30.3,20.7,29.83,SE,144,0.0,0.0,67,0.00,,---,0.25,VWS V14.01,2013-01-31 22:31:00,
2013-01-31 17:32:00,30.3,20.3,29.83,SE,144,1.0,1.0,66,0.00,,---,0.25,VWS V14.01,2013-01-31 22:32:00,
2013-01-31 17:33:00,30.3,20.3,29.83,SE,144,0.0,2.0,66,0.00,,---,0.25,VWS V14.01,2013-01-31 22:33:00,
2013-01-31 17:34:00,30.4,20.4,29.83,SE,144,0.0,2.0,66,0.00,,---,0.25,VWS V14.01,2013-01-31 22:34:00,
2013-01-31 17:35:00,30.4,20.4,29.83,SE,144,1.0,4.0,66,0.00,,---,0.25,VWS V14.01,2013-01-31 22:35:00,
2013-01-31 17:36:00,30.4,20.4,29.83,SE,144,0.0,1.0,66,0.00,,---,0.25,VWS V14.01,2013-01-31 22:36:00,
2013-01-31 17:37:00,30.4,20.1,29.83,SE,144,0.0,0.0,65,0.00,,---,0.25,VWS V14.01,2013-01-31 22:37:00,
2013-01-31 17:38:00,30.4,20.1,29.83,SE,144,0.0,0.0,65,0.00,,---,0.25,VWS V14.01,2013-01-31 22:38:00,
2013-01-31 17:39:00,30.4,20.1,29.83,SE,144,0.0,0.0,65,0.00,,---,0.25,VWS V14.01,2013-01-31 22:39:00,
2013-01-31 17:40:00,30.4,20.1,29.83,SE,144,0.0,0.0,65,0.00,,---,0.25,VWS V14.01,2013-01-31 22:40:00,
2013-01-31 17:41:00,30.4,20.1,29.83,SE,144,0.0,0.0,65,0.00,,---,0.25,VWS V14.01,2013-01-31 22:41:00,
2013-01-31 17:42:00,30.6,19.9,29.83,SE,144,0.0,1.0,64,0.00,,---,0.25,VWS V14.01,2013-01-31 22:42:00,
2013-01-31 17:43:00,30.6,19.9,29.83,SE,144,0.0,1.0,64,0.00,,---,0.25,VWS V14.01,2013-01-31 22:43:00,
2013-01-31 17:44:00,30.6,19.9,29.83,SE,144,0.0,0.0,64,0.00,,---,0.25,VWS V14.01,2013-01-31 22:44:00,
2013-01-31 17:45:00,30.6,19.9,29.83,SE,144,0.0,0.0,64,0.00,,---,0.25,VWS V14.01,2013-01-31 22:45:00,
2013-01-31 17:46:00,30.6,19.9,29.83,SE,144,0.0,0.0,64,0.00,,---,0.25,VWS V14.01,2013-01-31 22:46:00,
2013-01-31 17:47:00,30.6,19.9,29.83,SE,144,0.0,0.0,64,0.00,,---,0.25,VWS V14.01,2013-01-31 22:47:00,
2013-01-31 17:48:00,30.6,19.9,29.83,SE,144,0.0,0.0,64,0.00,,---,0.25,VWS V14.01,2013-01-31 22:48:00,
2013-01-31 17:49:00,30.6,19.5,29.83,SE,144,0.0,1.0,63,0.00,,---,0.25,VWS V14.01,2013-01-31 22:49:00,
2013-01-31 17:50:00,30.6,18.8,29.83,SSE,164,2.0,4.0,61,0.00,,---,0.25,VWS V14.01,2013-01-31 22:50:00,
2013-01-31 17:51:00,30.6,18.4,29.83,SSW,209,1.0,5.0,60,0.00,,---,0.25,VWS V14.01,2013-01-31 22:51:00,
2013-01-31 17:52:00,30.7,18.1,29.83,SSW,208,0.0,4.0,59,0.00,,---,0.25,VWS V14.01,2013-01-31 22:52:00,
2013-01-31 17:53:00,30.7,18.1,29.83,West,259,4.0,7.0,59,0.00,,---,0.25,VWS V14.01,2013-01-31 22:53:00,
2013-01-31 17:54:00,30.9,17.9,29.83,SW,222,1.0,8.0,58,0.00,,---,0.25,VWS V14.01,2013-01-31 22:54:00,
2013-01-31 17:55:00,31.0,18.0,29.83,SW,222,0.0,1.0,58,0.00,,---,0.25,VWS V14.01,2013-01-31 22:55:00,
2013-01-31 17:56:00,31.0,18.0,29.83,SW,221,5.0,5.0,58,0.00,,---,0.25,VWS V14.01,2013-01-31 22:56:00,
2013-01-31 17:57:00,31.0,17.6,29.83,WNW,302,5.0,5.0,57,0.00,,---,0.25,VWS V14.01,2013-01-31 22:57:00,
2013-01-31 17:58:00,31.2,17.8,29.83,WNW,301,6.0,6.0,57,0.00,,---,0.25,VWS V14.01,2013-01-31 22:58:00,
2013-01-31 17:59:00,31.2,17.8,29.83,WNW,301,2.0,6.0,57,0.00,,---,0.25,VWS V14.01,2013-01-31 22:59:00,
2013-01-31 18:00:00,31.2,17.8,29.83,SSW,207,1.0,4.0,57,0.00,,---,0.25,VWS V14.01,2013-01-31 23:00:00,
2013-01-31 18:01:00,31.3,17.4,29.83,SW,219,4.0,6.0,56,0.00,,---,0.25,VWS V14.01,2013-01-31 23:01:00,
2013-01-31 18:02:00,31.3,17.9,29.83,NNW,348,0.0,8.0,57,0.00,,---,0.25,VWS V14.01,2013-01-31 23:02:00,
2013-01-31 18:03:00,31.3,17.4,29.83,South,179,0.0,7.0,56,0.00,,---,0.25,VWS V14.01,2013-01-31 23:03:00,
2013-01-31 18:04:00,31.3,17.0,29.83,SW,236,5.0,8.0,55,0.00,,---,0.25,VWS V14.01,2013-01-31 23:04:00,
2013-01-31 18:05:00,31.3,17.0,29.83,WSW,237,6.0,6.0,55,0.00,,---,0.25,VWS V14.01,2013-01-31 23:05:00,
2013-01-31 18:06:00,31.3,17.0,29.83,WSW,238,5.0,6.0,55,0.00,,---,0.25,VWS V14.01,2013-01-31 23:06:00,
2013-01-31 18:07:00,31.3,16.6,29.83,SSW,192,4.0,10.0,54,0.00,,---,0.25,VWS V14.01,2013-01-31 23:07:00,
2013-01-31 18:08:00,31.5,16.4,29.83,WSW,238,6.0,10.0,53,0.00,,---,0.25,VWS V14.01,2013-01-31 23:08:00,
2013-01-31 18:09:00,31.5,15.9,29.83,SW,219,2.0,9.0,52,0.00,,---,0.25,VWS V14.01,2013-01-31 23:09:00,
2013-01-31 18:10:00,31.5,16.4,29.83,WSW,239,1.0,6.0,53,0.00,,---,0.25,VWS V14.01,2013-01-31 23:10:00,
2013-01-31 18:11:00,31.5,16.4,29.83,SW,225,5.0,5.0,53,0.00,,---,0.25,VWS V14.01,2013-01-31 23:11:00,
2013-01-31 18:12:00,31.5,15.9,29.83,West,272,9.0,15.0,52,0.00,,---,0.25,VWS V14.01,2013-01-31 23:12:00,
2013-01-31 18:13:00,31.5,15.0,29.83,WSW,242,7.0,11.0,50,0.00,,---,0.25,VWS V14.01,2013-01-31 23:13:00,
2013-01-31 18:14:00,31.6,14.6,29.83,West,262,6.0,7.0,49,0.00,,---,0.25,VWS V14.01,2013-01-31 23:14:00,
2013-01-31 18:15:00,31.6,15.1,29.83,SW,227,5.0,6.0,50,0.00,,---,0.25,VWS V14.01,2013-01-31 23:15:00,
2013-01-31 18:16:00,31.6,15.1,29.83,SW,234,4.0,6.0,50,0.00,,---,0.25,VWS V14.01,2013-01-31 23:16:00,
2013-01-31 18:17:00,31.6,15.1,29.83,WSW,249,3.0,7.0,50,0.00,,---,0.25,VWS V14.01,2013-01-31 23:17:00,
2013-01-31 18:18:00,31.6,14.6,29.83,West,264,4.0,7.0,49,0.00,,---,0.25,VWS V14.01,2013-01-31 23:18:00,
2013-01-31 18:19:00,31.6,15.1,29.83,SSW,203,7.0,9.0,50,0.00,,---,0.25,VWS V14.01,2013-01-31 23:19:00,
2013-01-31 18:20:00,31.6,14.6,29.83,SW,233,3.0,9.0,49,0.00,,---,0.25,VWS V14.01,2013-01-31 23:20:00,
2013-01-31 18:21:00,31.6,14.6,29.83,SSW,203,4.0,5.0,49,0.00,,---,0.25,VWS V14.01,2013-01-31 23:21:00,
2013-01-31 18:22:00,31.6,14.6,29.83,SW,217,4.0,8.0,49,0.00,,---,0.25,VWS V14.01,2013-01-31 23:22:00,
2013-01-31 18:23:00,31.6,14.6,29.83,SW,216,4.0,4.0,49,0.00,,---,0.25,VWS V14.01,2013-01-31 23:23:00,
2013-01-31 18:24:00,31.6,14.6,29.83,WSW,244,2.0,5.0,49,0.00,,---,0.25,VWS V14.01,2013-01-31 23:24:00,
2013-01-31 18:25:00,31.6,14.2,29.83,West,263,2.0,6.0,48,0.00,,---,0.25,VWS V14.01,2013-01-31 23:25:00,
2013-01-31 18:26:00,31.6,14.6,29.83,West,263,5.0,6.0,49,0.00,,---,0.25,VWS V14.01,2013-01-31 23:26:00,
2013-01-31 18:27:00,31.6,14.6,29.83,WSW,243,3.0,6.0,49,0.00,,---,0.25,VWS V14.01,2013-01-31 23:27:00,
2013-01-31 18:28:00,31.6,14.6,29.83,West,276,2.0,6.0,49,0.00,,---,0.25,VWS V14.01,2013-01-31 23:28:00,
2013-01-31 18:29:00,31.6,14.6,29.83,SW,227,1.0,4.0,49,0.00,,---,0.25,VWS V14.01,2013-01-31 23:29:00,
2013-01-31 18:30:00,31.5,14.6,29.83,SW,227,0.0,2.0,49,0.00,,---,0.25,VWS V14.01,2013-01-31 23:30:00,
2013-01-31 18:31:00,31.5,14.6,29.83,SW,227,0.0,1.0,49,0.00,,---,0.25,VWS V14.01,2013-01-31 23:31:00,
2013-01-31 18:32:00,31.5,14.1,29.83,West,259,8.0,11.0,48,0.00,,---,0.25,VWS V14.01,2013-01-31 23:32:00,
2013-01-31 18:33:00,31.5,14.1,29.83,SW,223,5.0,10.0,48,0.00,,---,0.25,VWS V14.01,2013-01-31 23:33:00,
2013-01-31 18:34:00,31.5,14.1,29.83,SW,215,5.0,7.0,48,0.00,,---,0.25,VWS V14.01,2013-01-31 23:34:00,
2013-01-31 18:35:00,31.5,13.6,29.83,SSW,205,5.0,13.0,47,0.00,,---,0.25,VWS V14.01,2013-01-31 23:35:00,
2013-01-31 18:36:00,31.5,13.6,29.83,WSW,251,8.0,9.0,47,0.00,,---,0.25,VWS V14.01,2013-01-31 23:36:00,
2013-01-31 18:37:00,31.6,13.2,29.83,WSW,242,5.0,7.0,46,0.00,,---,0.25,VWS V14.01,2013-01-31 23:37:00,
2013-01-31 18:38:00,31.6,13.2,29.83,WSW,242,5.0,6.0,46,0.00,,---,0.25,VWS V14.01,2013-01-31 23:38:00,
2013-01-31 18:39:00,31.6,13.2,29.83,WSW,244,5.0,8.0,46,0.00,,---,0.25,VWS V14.01,2013-01-31 23:39:00,
2013-01-31 18:40:00,31.8,13.4,29.83,SSW,204,6.0,6.0,46,0.00,,---,0.25,VWS V14.01,2013-01-31 23:40:00,
2013-01-31 18:41:00,31.8,13.4,29.83,SSW,196,4.0,8.0,46,0.00,,---,0.25,VWS V14.01,2013-01-31 23:41:00,
2013-01-31 18:42:00,31.8,13.4,29.83,West,277,6.0,9.0,46,0.00,,---,0.25,VWS V14.01,2013-01-31 23:42:00,
2013-01-31 18:43:00,31.8,13.4,29.83,WSW,242,5.0,6.0,46,0.00,,---,0.25,VWS V14.01,2013-01-31 23:43:00,
2013-01-31 18:44:00,31.8,13.4,29.83,WSW,240,5.0,6.0,46,0.00,,---,0.25,VWS V14.01,2013-01-31 23:44:00,
2013-01-31 18:45:00,31.8,13.4,29.84,WSW,241,2.0,7.0,46,0.00,,---,0.25,VWS V14.01,2013-01-31 23:45:00,
2013-01-31 18:46:00,31.8,13.4,29.84,SW,232,7.0,7.0,46,0.00,,---,0.25,VWS V14.01,2013-01-31 23:46:00,
2013-01-31 18:47:00,31.8,13.4,29.84,West,273,6.0,9.0,46,0.00,,---,0.25,VWS V14.01,2013-01-31 23:47:00,
2013-01-31 18:48:00,31.8,12.9,29.84,WSW,247,5.0,7.0,45,0.00,,---,0.25,VWS V14.01,2013-01-31 23:48:00,
2013-01-31 18:49:00,31.8,13.4,29.84,SSW,201,2.0,9.0,46,0.00,,---,0.25,VWS V14.01,2013-01-31 23:49:00,
2013-01-31 18:50:00,31.8,13.4,29.84,WSW,257,2.0,6.0,46,0.00,,---,0.25,VWS V14.01,2013-01-31 23:50:00,
2013-01-31 18:51:00,31.8,13.4,29.84,West,274,5.0,6.0,46,0.00,,---,0.25,VWS V14.01,2013-01-31 23:51:00,
2013-01-31 18:52:00,31.8,13.4,29.84,WNW,284,1.0,9.0,46,0.00,,---,0.25,VWS V14.01,2013-01-31 23:52:00,
2013-01-31 18:53:00,31.8,13.4,29.84,SW,229,6.0,6.0,46,0.00,,---,0.25,VWS V14.01,2013-01-31 23:53:00,
2013-01-31 18:54:00,31.8,13.4,29.84,SW,227,3.0,6.0,46,0.00,,---,0.25,VWS V14.01,2013-01-31 23:54:00,
2013-01-31 18:55:00,31.8,13.4,29.84,SW,217,3.0,6.0,46,0.00,,---,0.25,VWS V14.01,2013-01-31 23:55:00,
2013-01-31 18:56:00,31.8,13.4,29.84,SSE,165,4.0,8.0,46,0.00,,---,0.25,VWS V14.01,2013-01-31 23:56:00,
2013-01-31 18:57:00,31.8,13.4,29.84,South,181,2.0,5.0,46,0.00,,---,0.25,VWS V14.01,2013-01-31 23:57:00,
2013-01-31 18:58:00,31.8,13.9,29.84,South,188,3.0,5.0,47,0.00,,---,0.25,VWS V14.01,2013-01-31 23:58:00,
2013-01-31 18:59:00,31.6,14.2,29.84,WSW,237,7.0,7.0,48,0.00,,---,0.25,VWS V14.01,2013-01-31 23:59:00,
2013-01-31 19:00:00,31.6,13.7,29.85,SW,225,1.0,8.0,47,0.00,,---,0.25,VWS V14.01,2013-02-01 00:00:00,
2013-01-31 19:01:00,31.6,13.2,29.85,WSW,237,1.0,6.0,46,0.00,,---,0.25,VWS V14.01,2013-02-01 00:01:00,
2013-01-31 19:02:00,31.6,13.7,29.85,SW,236,1.0,5.0,47,0.00,,---,0.25,VWS V14.01,2013-02-01 00:02:00,
2013-01-31 19:03:00,31.6,13.7,29.85,SW,215,7.0,7.0,47,0.00,,---,0.25,VWS V14.01,2013-02-01 00:03:00,
2013-01-31 19:04:00,31.6,13.7,29.85,SW,215,1.0,7.0,47,0.00,,---,0.25,VWS V14.01,2013-02-01 00:04:00,
2013-01-31 19:05:00,31.6,13.7,29.85,SW,235,5.0,5.0,47,0.00,,---,0.25,VWS V14.01,2013-02-01 00:05:00,
2013-01-31 19:06:00,31.6,14.2,29.85,SW,235,3.0,5.0,48,0.00,,---,0.25,VWS V14.01,2013-02-01 00:06:00,
2013-01-31 19:07:00,31.6,14.2,29.85,WSW,241,3.0,5.0,48,0.00,,---,0.25,VWS V14.01,2013-02-01 00:07:00,
2013-01-31 19:08:00,31.6,14.2,29.85,WSW,241,2.0,5.0,48,0.00,,---,0.25,VWS V14.01,2013-02-01 00:08:00,
2013-01-31 19:09:00,31.6,14.2,29.85,WSW,248,2.0,5.0,48,0.00,,---,0.25,VWS V14.01,2013-02-01 00:09:00,
2013-01-31 19:10:00,31.5,14.1,29.85,WSW,248,2.0,5.0,48,0.00,,---,0.25,VWS V14.01,2013-02-01 00:10:00,
2013-01-31 19:11:00,31.5,14.1,29.85,WSW,248,1.0,2.0,48,0.00,,---,0.25,VWS V14.01,2013-02-01 00:11:00,
2013-01-31 19:12:00,31.5,14.6,29.85,SW,223,0.0,5.0,49,0.00,,---,0.25,VWS V14.01,2013-02-01 00:12:00,
2013-01-31 19:13:00,31.5,14.6,29.85,SW,223,2.0,4.0,49,0.00,,---,0.25,VWS V14.01,2013-02-01 00:13:00,
2013-01-31 19:14:00,31.5,14.1,29.85,SW,223,0.0,5.0,48,0.00,,---,0.25,VWS V14.01,2013-02-01 00:14:00,
2013-01-31 19:15:00,31.5,14.6,29.85,SW,223,2.0,3.0,49,0.00,,---,0.25,VWS V14.01,2013-02-01 00:15:00,
2013-01-31 19:16:00,31.5,14.6,29.85,SW,223,2.0,4.0,49,0.00,,---,0.25,VWS V14.01,2013-02-01 00:16:00,
2013-01-31 19:17:00,31.5,14.6,29.85,SW,223,2.0,2.0,49,0.00,,---,0.25,VWS V14.01,2013-02-01 00:17:00,
2013-01-31 19:18:00,31.3,14.4,29.85,SW,223,0.0,4.0,49,0.00,,---,0.25,VWS V14.01,2013-02-01 00:18:00,
2013-01-31 19:19:00,31.3,14.4,29.85,SW,223,2.0,2.0,49,0.00,,---,0.25,VWS V14.01,2013-02-01 00:19:00,
2013-01-31 19:20:00,31.3,14.4,29.85,SW,228,5.0,5.0,49,0.00,,---,0.25,VWS V14.01,2013-02-01 00:20:00,
2013-01-31 19:21:00,31.3,14.4,29.85,SW,232,4.0,8.0,49,0.00,,---,0.25,VWS V14.01,2013-02-01 00:21:00,
2013-01-31 19:22:00,31.3,14.4,29.85,SSW,206,2.0,9.0,49,0.00,,---,0.25,VWS V14.01,2013-02-01 00:22:00,
2013-01-31 19:23:00,31.3,14.4,29.85,SSW,207,0.0,5.0,49,0.00,,---,0.25,VWS V14.01,2013-02-01 00:23:00,
2013-01-31 19:24:00,31.3,14.4,29.85,SSW,204,1.0,6.0,49,0.00,,---,0.25,VWS V14.01,2013-02-01 00:24:00,
2013-01-31 19:25:00,31.3,14.8,29.85,SSW,204,4.0,5.0,50,0.00,,---,0.25,VWS V14.01,2013-02-01 00:25:00,
2013-01-31 19:26:00,31.3,14.8,29.85,SSW,204,2.0,4.0,50,0.00,,---,0.25,VWS V14.01,2013-02-01 00:26:00,
2013-01-31 19:27:00,31.3,14.8,29.85,SSW,204,2.0,2.0,50,0.00,,---,0.25,VWS V14.01,2013-02-01 00:27:00,
2013-01-31 19:28:00,31.3,14.4,29.85,SSW,192,10.0,12.0,49,0.00,,---,0.25,VWS V14.01,2013-02-01 00:28:00,
2013-01-31 19:29:00,31.3,14.4,29.85,SSW,207,5.0,10.0,49,0.00,,---,0.25,VWS V14.01,2013-02-01 00:29:00,
2013-01-31 19:30:00,31.3,14.4,29.85,SW,224,5.0,8.0,49,0.00,,---,0.25,VWS V14.01,2013-02-01 00:30:00,
2013-01-31 19:31:00,31.3,14.4,29.85,SSW,210,2.0,5.0,49,0.00,,---,0.25,VWS V14.01,2013-02-01 00:31:00,
2013-01-31 19:32:00,31.5,14.6,29.85,SSW,210,0.0,1.0,49,0.00,,---,0.25,VWS V14.01,2013-02-01 00:32:00,
2013-01-31 19:33:00,31.3,14.8,29.85,SSW,210,1.0,1.0,50,0.00,,---,0.25,VWS V14.01,2013-02-01 00:33:00,
2013-01-31 19:34:00,31.3,14.8,29.85,SSW,210,0.0,2.0,50,0.00,,---,0.25,VWS V14.01,2013-02-01 00:34:00,
2013-01-31 19:35:00,31.3,14.8,29.85,SSW,210,2.0,4.0,50,0.00,,---,0.25,VWS V14.01,2013-02-01 00:35:00,
2013-01-31 19:36:00,31.3,14.8,29.85,SSW,210,4.0,4.0,50,0.00,,---,0.25,VWS V14.01,2013-02-01 00:36:00,
2013-01-31 19:37:00,31.3,14.8,29.85,WNW,284,3.0,7.0,50,0.00,,---,0.25,VWS V14.01,2013-02-01 00:37:00,
2013-01-31 19:38:00,31.3,14.8,29.85,SW,220,3.0,7.0,50,0.00,,---,0.25,VWS V14.01,2013-02-01 00:38:00,
2013-01-31 19:39:00,31.3,15.3,29.85,SW,226,2.0,7.0,51,0.00,,---,0.25,VWS V14.01,2013-02-01 00:39:00,
2013-01-31 19:40:00,31.3,15.3,29.85,SW,226,2.0,4.0,51,0.00,,---,0.25,VWS V14.01,2013-02-01 00:40:00,
2013-01-31 19:41:00,31.3,15.7,29.85,WSW,240,4.0,4.0,52,0.00,,---,0.25,VWS V14.01,2013-02-01 00:41:00,
2013-01-31 19:42:00,31.2,15.6,29.85,WSW,250,3.0,7.0,52,0.00,,---,0.25,VWS V14.01,2013-02-01 00:42:00,
2013-01-31 19:43:00,31.2,14.7,29.85,South,191,9.0,11.0,50,0.00,,---,0.25,VWS V14.01,2013-02-01 00:43:00,
2013-01-31 19:44:00,31.2,14.7,29.85,WSW,255,7.0,9.0,50,0.00,,---,0.25,VWS V14.01,2013-02-01 00:44:00,
2013-01-31 19:45:00,31.2,13.8,29.86,SW,232,5.0,8.0,48,0.00,,---,0.25,VWS V14.01,2013-02-01 00:45:00,
2013-01-31 19:46:00,31.2,13.8,29.86,WSW,257,7.0,7.0,48,0.00,,---,0.25,VWS V14.01,2013-02-01 00:46:00,
2013-01-31 19:47:00,31.2,14.3,29.86,WNW,288,10.0,23.0,49,0.00,,---,0.25,VWS V14.01,2013-02-01 00:47:00,
2013-01-31 19:48:00,31.2,13.3,29.86,NW,319,14.0,15.0,47,0.00,,---,0.25,VWS V14.01,2013-02-01 00:48:00,
2013-01-31 19:49:00,31.2,13.8,29.86,West,272,4.0,14.0,48,0.00,,---,0.25,VWS V14.01,2013-02-01 00:49:00,
2013-01-31 19:50:00,31.2,12.8,29.86,West,261,6.0,15.0,46,0.00,,---,0.25,VWS V14.01,2013-02-01 00:50:00,
2013-01-31 19:51:00,31.2,12.8,29.86,West,259,7.0,8.0,46,0.00,,---,0.25,VWS V14.01,2013-02-01 00:51:00,
2013-01-31 19:52:00,31.2,12.8,29.86,WSW,239,6.0,9.0,46,0.00,,---,0.25,VWS V14.01,2013-02-01 00:52:00,
2013-01-31 19:53:00,31.2,12.8,29.86,WSW,258,6.0,10.0,46,0.00,,---,0.25,VWS V14.01,2013-02-01 00:53:00,
2013-01-31 19:54:00,31.2,13.3,29.86,WSW,245,8.0,11.0,47,0.00,,---,0.25,VWS V14.01,2013-02-01 00:54:00,
2013-01-31 19:55:00,31.2,12.8,29.86,South,187,10.0,12.0,46,0.00,,---,0.25,VWS V14.01,2013-02-01 00:55:00,
2013-01-31 19:56:00,31.2,12.8,29.86,NW,314,7.0,10.0,46,0.00,,---,0.25,VWS V14.01,2013-02-01 00:56:00,
2013-01-31 19:57:00,31.2,13.3,29.86,WSW,257,5.0,9.0,47,0.00,,---,0.25,VWS V14.01,2013-02-01 00:57:00,
2013-01-31 19:58:00,31.2,12.8,29.86,WSW,254,7.0,8.0,46,0.00,,---,0.25,VWS V14.01,2013-02-01 00:58:00,
2013-01-31 19:59:00,31.2,12.8,29.86,West,261,5.0,9.0,46,0.00,,---,0.25,VWS V14.01,2013-02-01 00:59:00,
2013-01-31 20:00:00,31.2,12.8,29.86,WSW,247,6.0,8.0,46,0.00,,---,0.25,VWS V14.01,2013-02-01 01:00:00,
2013-01-31 20:01:00,31.2,12.8,29.86,WSW,254,6.0,6.0,46,0.00,,---,0.25,VWS V14.01,2013-02-01 01:01:00,
2013-01-31 20:02:00,31.2,13.3,29.86,South,186,6.0,11.0,47,0.00,,---,0.25,VWS V14.01,2013-02-01 01:02:00,
2013-01-31 20:03:00,31.2,13.3,29.86,SW,215,5.0,8.0,47,0.00,,---,0.25,VWS V14.01,2013-02-01 01:03:00,
2013-01-31 20:04:00,31.2,13.8,29.86,SSW,202,4.0,5.0,48,0.00,,---,0.25,VWS V14.01,2013-02-01 01:04:00,
2013-01-31 20:05:00,31.2,13.8,29.86,SSW,202,4.0,4.0,48,0.00,,---,0.25,VWS V14.01,2013-02-01 01:05:00,
2013-01-31 20:06:00,31.2,14.3,29.86,South,186,12.0,13.0,49,0.00,,---,0.25,VWS V14.01,2013-02-01 01:06:00,
2013-01-31 20:07:00,31.0,14.1,29.86,SSW,200,5.0,12.0,49,0.00,,---,0.25,VWS V14.01,2013-02-01 01:07:00,
2013-01-31 20:08:00,31.0,13.6,29.86,South,179,9.0,15.0,48,0.00,,---,0.25,VWS V14.01,2013-02-01 01:08:00,
2013-01-31 20:09:00,31.0,13.6,29.86,WSW,255,7.0,9.0,48,0.00,,---,0.25,VWS V14.01,2013-02-01 01:09:00,
2013-01-31 20:10:00,31.0,13.6,29.86,West,281,8.0,10.0,48,0.00,,---,0.25,VWS V14.01,2013-02-01 01:10:00,
2013-01-31 20:11:00,31.0,13.6,29.86,West,269,7.0,8.0,48,0.00,,---,0.25,VWS V14.01,2013-02-01 01:11:00,
2013-01-31 20:12:00,31.0,14.1,29.86,West,280,4.0,10.0,49,0.00,,---,0.25,VWS V14.01,2013-02-01 01:12:00,
2013-01-31 20:13:00,31.0,13.6,29.86,West,260,7.0,7.0,48,0.00,,---,0.25,VWS V14.01,2013-02-01 01:13:00,
2013-01-31 20:14:00,31.0,14.1,29.86,SW,230,5.0,8.0,49,0.00,,---,0.25,VWS V14.01,2013-02-01 01:14:00,
2013-01-31 20:15:00,31.0,14.1,29.87,SSW,202,2.0,6.0,49,0.00,,---,0.25,VWS V14.01,2013-02-01 01:15:00,
2013-01-31 20:16:00,31.0,14.1,29.87,SSW,205,2.0,3.0,49,0.00,,---,0.25,VWS V14.01,2013-02-01 01:16:00,
2013-01-31 20:17:00,31.0,14.1,29.87,WSW,240,1.0,6.0,49,0.00,,---,0.25,VWS V14.01,2013-02-01 01:17:00,
2013-01-31 20:18:00,31.0,14.6,29.87,WSW,240,0.0,4.0,50,0.00,,---,0.25,VWS V14.01,2013-02-01 01:18:00,
2013-01-31 20:19:00,31.0,14.1,29.87,WSW,240,1.0,1.0,49,0.00,,---,0.25,VWS V14.01,2013-02-01 01:19:00,
2013-01-31 20:20:00,31.0,14.6,29.87,SW,229,5.0,6.0,50,0.00,,---,0.25,VWS V14.01,2013-02-01 01:20:00,
2013-01-31 20:21:00,31.0,14.6,29.87,SW,232,5.0,6.0,50,0.00,,---,0.25,VWS V14.01,2013-02-01 01:21:00,
2013-01-31 20:22:00,30.9,14.0,29.87,SW,234,2.0,3.0,49,0.00,,---,0.25,VWS V14.01,2013-02-01 01:22:00,
2013-01-31 20:23:00,30.9,14.5,29.87,SW,234,0.0,2.0,50,0.00,,---,0.25,VWS V14.01,2013-02-01 01:23:00,
2013-01-31 20:24:00,30.9,14.0,29.87,SW,228,2.0,5.0,49,0.00,,---,0.25,VWS V14.01,2013-02-01 01:24:00,
2013-01-31 20:25:00,30.9,14.0,29.87,SW,228,1.0,5.0,49,0.00,,---,0.25,VWS V14.01,2013-02-01 01:25:00,
2013-01-31 20:26:00,30.9,14.0,29.87,SW,228,0.0,1.0,49,0.00,,---,0.25,VWS V14.01,2013-02-01 01:26:00,
2013-01-31 20:27:00,30.9,14.0,29.87,South,183,2.0,6.0,49,0.00,,---,0.25,VWS V14.01,2013-02-01 01:27:00,
2013-01-31 20:28:00,30.7,14.3,29.87,South,184,2.0,4.0,50,0.00,,---,0.25,VWS V14.01,2013-02-01 01:28:00,
2013-01-31 20:29:00,30.7,13.8,29.87,SSW,192,1.0,5.0,49,0.00,,---,0.25,VWS V14.01,2013-02-01 01:29:00,
2013-01-31 20:30:00,30.7,14.3,29.86,SW,216,5.0,5.0,50,0.00,,---,0.25,VWS V14.01,2013-02-01 01:30:00,
2013-01-31 20:31:00,30.7,14.3,29.86,SW,217,4.0,7.0,50,0.00,,---,0.25,VWS V14.01,2013-02-01 01:31:00,
2013-01-31 20:32:00,30.7,13.8,29.86,West,279,1.0,7.0,49,0.00,,---,0.25,VWS V14.01,2013-02-01 01:32:00,
2013-01-31 20:33:00,30.7,14.3,29.86,West,279,1.0,2.0,50,0.00,,---,0.25,VWS V14.01,2013-02-01 01:33:00,
2013-01-31 20:34:00,30.7,14.3,29.86,SSW,192,6.0,6.0,50,0.00,,---,0.25,VWS V14.01,2013-02-01 01:34:00,
2013-01-31 20:35:00,30.7,13.8,29.86,SSW,192,1.0,6.0,49,0.00,,---,0.25,VWS V14.01,2013-02-01 01:35:00,
2013-01-31 20:36:00,30.7,13.8,29.86,SSW,192,0.0,1.0,49,0.00,,---,0.25,VWS V14.01,2013-02-01 01:36:00,
2013-01-31 20:37:00,30.6,14.2,29.86,WSW,241,5.0,7.0,50,0.00,,---,0.25,VWS V14.01,2013-02-01 01:37:00,
2013-01-31 20:38:00,30.6,13.7,29.86,SSW,194,5.0,6.0,49,0.00,,---,0.25,VWS V14.01,2013-02-01 01:38:00,
2013-01-31 20:39:00,30.6,13.3,29.86,WSW,255,5.0,7.0,48,0.00,,---,0.25,VWS V14.01,2013-02-01 01:39:00,
2013-01-31 20:40:00,30.6,13.3,29.86,West,275,5.0,7.0,48,0.00,,---,0.25,VWS V14.01,2013-02-01 01:40:00,
2013-01-31 20:41:00,30.6,13.3,29.86,WSW,250,5.0,5.0,48,0.00,,---,0.25,VWS V14.01,2013-02-01 01:41:00,
2013-01-31 20:42:00,30.6,13.3,29.86,West,264,2.0,6.0,48,0.00,,---,0.25,VWS V14.01,2013-02-01 01:42:00,
2013-01-31 20:43:00,30.7,13.8,29.86,West,264,1.0,4.0,49,0.00,,---,0.25,VWS V14.01,2013-02-01 01:43:00,
2013-01-31 20:44:00,30.7,13.8,29.86,West,264,0.0,2.0,49,0.00,,---,0.25,VWS V14.01,2013-02-01 01:44:00,
2013-01-31 20:45:00,30.6,13.7,29.86,SSW,192,1.0,6.0,49,0.00,,---,0.25,VWS V14.01,2013-02-01 01:45:00,
2013-01-31 20:46:00,30.6,13.3,29.86,SSW,192,0.0,1.0,48,0.00,,---,0.25,VWS V14.01,2013-02-01 01:46:00,
2013-01-31 20:47:00,30.6,13.7,29.86,SSW,192,4.0,4.0,49,0.00,,---,0.25,VWS V14.01,2013-02-01 01:47:00,
2013-01-31 20:48:00,30.6,13.7,29.86,SSW,192,3.0,5.0,49,0.00,,---,0.25,VWS V14.01,2013-02-01 01:48:00,
2013-01-31 20:49:00,30.6,13.3,29.86,SSW,192,0.0,5.0,48,0.00,,---,0.25,VWS V14.01,2013-02-01 01:49:00,
2013-01-31 20:50:00,30.6,13.7,29.86,SSW,192,0.0,0.0,49,0.00,,---,0.25,VWS V14.01,2013-02-01 01:50:00,
2013-01-31 20:51:00,30.6,13.7,29.86,SSW,192,0.0,1.0,49,0.00,,---,0.25,VWS V14.01,2013-02-01 01:51:00,
2013-01-31 20:52:00,30.6,13.3,29.86,South,182,4.0,6.0,48,0.00,,---,0.25,VWS V14.01,2013-02-01 01:52:00,
2013-01-31 20:53:00,30.6,13.3,29.86,South,181,0.0,5.0,48,0.00,,---,0.25,VWS V14.01,2013-02-01 01:53:00,
2013-01-31 20:54:00,30.6,13.7,29.86,South,180,2.0,6.0,49,0.00,,---,0.25,VWS V14.01,2013-02-01 01:54:00,
2013-01-31 20:55:00,30.4,13.5,29.86,SW,225,5.0,8.0,49,0.00,,---,0.25,VWS V14.01,2013-02-01 01:55:00,
2013-01-31 20:56:00,30.4,13.5,29.86,SW,225,4.0,6.0,49,0.00,,---,0.25,VWS V14.01,2013-02-01 01:56:00,
2013-01-31 20:57:00,30.4,13.1,29.86,SW,225,2.0,5.0,48,0.00,,---,0.25,VWS V14.01,2013-02-01 01:57:00,
2013-01-31 20:58:00,30.4,13.5,29.86,SW,225,5.0,8.0,49,0.00,,---,0.25,VWS V14.01,2013-02-01 01:58:00,
2013-01-31 20:59:00,30.6,13.3,29.86,SSW,202,2.0,7.0,48,0.00,,---,0.25,VWS V14.01,2013-02-01 01:59:00,
2013-01-31 21:00:00,30.6,13.3,29.87,SSW,202,2.0,5.0,48,0.00,,---,0.25,VWS V14.01,2013-02-01 02:00:00,
2013-01-31 21:01:00,30.6,13.3,29.87,SSW,202,0.0,1.0,48,0.00,,---,0.25,VWS V14.01,2013-02-01 02:01:00,
2013-01-31 21:02:00,30.6,13.7,29.87,South,180,3.0,7.0,49,0.00,,---,0.25,VWS V14.01,2013-02-01 02:02:00,
2013-01-31 21:03:00,30.6,13.3,29.87,SW,225,7.0,15.0,48,0.00,,---,0.25,VWS V14.01,2013-02-01 02:03:00,
2013-01-31 21:04:00,30.6,13.3,29.87,SSW,202,5.0,8.0,48,0.00,,---,0.25,VWS V14.01,2013-02-01 02:04:00,
2013-01-31 21:05:00,30.6,13.3,29.87,South,180,3.0,8.0,48,0.00,,---,0.25,VWS V14.01,2013-02-01 02:05:00,
2013-01-31 21:06:00,30.7,13.4,29.87,South,180,2.0,4.0,48,0.00,,---,0.25,VWS V14.01,2013-02-01 02:06:00,
2013-01-31 21:07:00,30.7,13.4,29.87,South,180,2.0,4.0,48,0.00,,---,0.25,VWS V14.01,2013-02-01 02:07:00,
2013-01-31 21:08:00,30.6,13.3,29.87,South,180,0.0,1.0,48,0.00,,---,0.25,VWS V14.01,2013-02-01 02:08:00,
2013-01-31 21:09:00,30.6,13.7,29.87,South,180,1.0,2.0,49,0.00,,---,0.25,VWS V14.01,2013-02-01 02:09:00,
2013-01-31 21:10:00,30.6,13.7,29.87,South,180,2.0,5.0,49,0.00,,---,0.25,VWS V14.01,2013-02-01 02:10:00,
2013-01-31 21:11:00,30.6,13.7,29.87,SSW,202,3.0,5.0,49,0.00,,---,0.25,VWS V14.01,2013-02-01 02:11:00,
2013-01-31 21:12:00,30.6,13.7,29.87,SSW,202,0.0,1.0,49,0.00,,---,0.25,VWS V14.01,2013-02-01 02:12:00,
2013-01-31 21:13:00,30.4,13.5,29.87,SSW,202,1.0,2.0,49,0.00,,---,0.25,VWS V14.01,2013-02-01 02:13:00,
2013-01-31 21:14:00,30.4,13.5,29.87,SSW,202,3.0,7.0,49,0.00,,---,0.25,VWS V14.01,2013-02-01 02:14:00,
2013-01-31 21:15:00,30.4,13.1,29.85,South,180,4.0,7.0,48,0.00,,---,0.25,VWS V14.01,2013-02-01 02:15:00,
2013-01-31 21:16:00,30.4,14.0,29.85,South,180,3.0,6.0,50,0.00,,---,0.25,VWS V14.01,2013-02-01 02:16:00,
2013-01-31 21:17:00,30.4,13.5,29.85,South,180,3.0,6.0,49,0.00,,---,0.25,VWS V14.01,2013-02-01 02:17:00,
2013-01-31 21:18:00,30.4,13.5,29.85,West,270,3.0,6.0,49,0.00,,---,0.25,VWS V14.01,2013-02-01 02:18:00,
2013-01-31 21:19:00,30.4,13.5,29.85,NNW,338,6.0,11.0,49,0.00,,---,0.25,VWS V14.01,2013-02-01 02:19:00,
2013-01-31 21:20:00,30.4,13.5,29.85,WSW,248,5.0,8.0,49,0.00,,---,0.25,VWS V14.01,2013-02-01 02:20:00,
2013-01-31 21:21:00,30.4,13.5,29.85,WSW,248,5.0,8.0,49,0.00,,---,0.25,VWS V14.01,2013-02-01 02:21:00,
2013-01-31 21:22:00,30.4,13.5,29.85,SW,225,3.0,6.0,49,0.00,,---,0.25,VWS V14.01,2013-02-01 02:22:00,
2013-01-31 21:23:00,30.4,13.5,29.85,SW,225,5.0,6.0,49,0.00,,---,0.25,VWS V14.01,2013-02-01 02:23:00,
2013-01-31 21:24:00,30.4,13.5,29.85,South,180,5.0,7.0,49,0.00,,---,0.25,VWS V14.01,2013-02-01 02:24:00,
2013-01-31 21:25:00,30.4,13.5,29.85,SSW,202,4.0,6.0,49,0.00,,---,0.25,VWS V14.01,2013-02-01 02:25:00,
2013-01-31 21:26:00,30.6,13.7,29.85,NW,315,5.0,7.0,49,0.00,,---,0.25,VWS V14.01,2013-02-01 02:26:00,
2013-01-31 21:27:00,30.6,13.3,29.85,NW,315,2.0,5.0,48,0.00,,---,0.25,VWS V14.01,2013-02-01 02:27:00,
2013-01-31 21:28:00,30.6,13.7,29.85,SSW,202,4.0,6.0,49,0.00,,---,0.25,VWS V14.01,2013-02-01 02:28:00,
2013-01-31 21:29:00,30.6,13.7,29.85,West,270,4.0,8.0,49,0.00,,---,0.25,VWS V14.01,2013-02-01 02:29:00,
2013-01-31 21:30:00,30.6,13.7,29.86,WSW,248,7.0,11.0,49,0.00,,---,0.25,VWS V14.01,2013-02-01 02:30:00,
2013-01-31 21:31:00,30.6,13.3,29.86,SSW,202,6.0,9.0,48,0.00,,---,0.25,VWS V14.01,2013-02-01 02:31:00,
2013-01-31 21:32:00,30.6,14.2,29.86,SW,225,5.0,9.0,50,0.00,,---,0.25,VWS V14.01,2013-02-01 02:32:00,
2013-01-31 21:33:00,30.6,13.7,29.86,SW,225,6.0,11.0,49,0.00,,---,0.25,VWS V14.01,2013-02-01 02:33:00,
2013-01-31 21:34:00,30.6,13.3,29.86,SW,225,5.0,8.0,48,0.00,,---,0.25,VWS V14.01,2013-02-01 02:34:00,
2013-01-31 21:35:00,30.6,13.7,29.86,SSW,202,4.0,5.0,49,0.00,,---,0.25,VWS V14.01,2013-02-01 02:35:00,
2013-01-31 21:36:00,30.6,13.7,29.86,SSW,202,1.0,4.0,49,0.00,,---,0.25,VWS V14.01,2013-02-01 02:36:00,
2013-01-31 21:37:00,30.6,13.7,29.86,SSW,202,2.0,6.0,49,0.00,,---,0.25,VWS V14.01,2013-02-01 02:37:00,
2013-01-31 21:38:00,30.6,13.7,29.86,WSW,248,5.0,9.0,49,0.00,,---,0.25,VWS V14.01,2013-02-01 02:38:00,
2013-01-31 21:39:00,30.6,13.7,29.86,SW,225,7.0,9.0,49,0.00,,---,0.25,VWS V14.01,2013-02-01 02:39:00,
2013-01-31 21:40:00,30.6,13.3,29.86,South,180,6.0,10.0,48,0.00,,---,0.25,VWS V14.01,2013-02-01 02:40:00,
2013-01-31 21:41:00,30.7,13.8,29.86,SSW,202,7.0,12.0,49,0.00,,---,0.25,VWS V14.01,2013-02-01 02:41:00,
2013-01-31 21:42:00,30.7,13.4,29.86,WSW,248,6.0,8.0,48,0.00,,---,0.25,VWS V14.01,2013-02-01 02:42:00,
2013-01-31 21:43:00,30.7,13.4,29.86,SW,225,5.0,8.0,48,0.00,,---,0.25,VWS V14.01,2013-02-01 02:43:00,
2013-01-31 21:44:00,30.7,13.4,29.86,SSW,202,4.0,8.0,48,0.00,,---,0.25,VWS V14.01,2013-02-01 02:44:00,
2013-01-31 21:45:00,30.7,13.8,29.86,WSW,248,2.0,6.0,49,0.00,,---,0.25,VWS V14.01,2013-02-01 02:45:00,
2013-01-31 21:46:00,30.7,13.4,29.86,SSW,202,2.0,5.0,48,0.00,,---,0.25,VWS V14.01,2013-02-01 02:46:00,
2013-01-31 21:47:00,30.7,13.4,29.86,SW,225,4.0,6.0,48,0.00,,---,0.25,VWS V14.01,2013-02-01 02:47:00,
2013-01-31 21:48:00,30.7,13.4,29.86,SW,225,3.0,4.0,48,0.00,,---,0.25,VWS V14.01,2013-02-01 02:48:00,
2013-01-31 21:49:00,30.7,13.4,29.86,SW,225,1.0,2.0,48,0.00,,---,0.25,VWS V14.01,2013-02-01 02:49:00,
2013-01-31 21:50:00,30.7,13.8,29.86,SW,225,1.0,2.0,49,0.00,,---,0.25,VWS V14.01,2013-02-01 02:50:00,
2013-01-31 21:51:00,30.7,14.3,29.86,SW,225,0.0,1.0,50,0.00,,---,0.25,VWS V14.01,2013-02-01 02:51:00,
2013-01-31 21:52:00,30.6,14.2,29.86,SW,225,1.0,2.0,50,0.00,,---,0.25,VWS V14.01,2013-02-01 02:52:00,
2013-01-31 21:53:00,30.6,14.2,29.86,SW,225,0.0,1.0,50,0.00,,---,0.25,VWS V14.01,2013-02-01 02:53:00,
2013-01-31 21:54:00,30.6,14.6,29.86,SW,225,0.0,0.0,51,0.00,,---,0.25,VWS V14.01,2013-02-01 02:54:00,
2013-01-31 21:55:00,30.4,14.4,29.86,SW,225,0.0,0.0,51,0.00,,---,0.25,VWS V14.01,2013-02-01 02:55:00,
2013-01-31 21:56:00,30.4,14.0,29.86,SW,225,3.0,7.0,50,0.00,,---,0.25,VWS V14.01,2013-02-01 02:56:00,
2013-01-31 21:57:00,30.3,13.9,29.86,SSW,202,6.0,9.0,50,0.00,,---,0.25,VWS V14.01,2013-02-01 02:57:00,
2013-01-31 21:58:00,30.4,13.1,29.86,WSW,248,8.0,10.0,48,0.00,,---,0.25,VWS V14.01,2013-02-01 02:58:00,
2013-01-31 21:59:00,30.6,13.3,29.86,SW,225,5.0,7.0,48,0.00,,---,0.25,VWS V14.01,2013-02-01 02:59:00,
2013-01-31 22:00:00,30.6,13.7,29.86,SW,225,1.0,4.0,49,0.00,,---,0.25,VWS V14.01,2013-02-01 03:00:00,
2013-01-31 22:01:00,30.6,13.7,29.86,SW,225,3.0,6.0,49,0.00,,---,0.25,VWS V14.01,2013-02-01 03:01:00,
2013-01-31 22:02:00,30.6,13.7,29.86,WSW,248,5.0,7.0,49,0.00,,---,0.25,VWS V14.01,2013-02-01 03:02:00,
2013-01-31 22:03:00,30.7,13.8,29.86,WSW,248,1.0,4.0,49,0.00,,---,0.25,VWS V14.01,2013-02-01 03:03:00,
2013-01-31 22:04:00,30.7,13.8,29.86,WSW,248,1.0,2.0,49,0.00,,---,0.25,VWS V14.01,2013-02-01 03:04:00,
2013-01-31 22:05:00,30.7,13.8,29.86,WSW,248,0.0,1.0,49,0.00,,---,0.25,VWS V14.01,2013-02-01 03:05:00,
2013-01-31 22:06:00,30.7,13.8,29.86,WSW,248,1.0,5.0,49,0.00,,---,0.25,VWS V14.01,2013-02-01 03:06:00,
2013-01-31 22:07:00,30.6,13.7,29.86,WSW,248,3.0,4.0,49,0.00,,---,0.25,VWS V14.01,2013-02-01 03:07:00,
2013-01-31 22:08:00,30.6,13.7,29.86,SW,225,1.0,2.0,49,0.00,,---,0.25,VWS V14.01,2013-02-01 03:08:00,
2013-01-31 22:09:00,30.6,13.7,29.86,SW,225,3.0,6.0,49,0.00,,---,0.25,VWS V14.01,2013-02-01 03:09:00,
2013-01-31 22:10:00,30.6,13.7,29.86,South,180,4.0,6.0,49,0.00,,---,0.25,VWS V14.01,2013-02-01 03:10:00,
2013-01-31 22:11:00,30.6,13.7,29.86,South,180,2.0,4.0,49,0.00,,---,0.25,VWS V14.01,2013-02-01 03:11:00,
2013-01-31 22:12:00,30.6,13.7,29.86,South,180,2.0,5.0,49,0.00,,---,0.25,VWS V14.01,2013-02-01 03:12:00,
2013-01-31 22:13:00,30.4,13.5,29.86,South,180,1.0,2.0,49,0.00,,---,0.25,VWS V14.01,2013-02-01 03:13:00,
2013-01-31 22:14:00,30.4,13.5,29.86,South,180,2.0,4.0,49,0.00,,---,0.25,VWS V14.01,2013-02-01 03:14:00,
2013-01-31 22:15:00,30.4,13.5,29.86,South,180,0.0,0.0,49,0.00,,---,0.25,VWS V14.01,2013-02-01 03:15:00,
2013-01-31 22:16:00,30.4,13.5,29.86,South,180,1.0,2.0,49,0.00,,---,0.25,VWS V14.01,2013-02-01 03:16:00,
2013-01-31 22:17:00,30.3,13.4,29.86,South,180,0.0,1.0,49,0.00,,---,0.25,VWS V14.01,2013-02-01 03:17:00,
2013-01-31 22:18:00,30.3,13.9,29.86,South,180,0.0,0.0,50,0.00,,---,0.25,VWS V14.01,2013-02-01 03:18:00,
2013-01-31 22:19:00,30.3,13.4,29.86,South,180,1.0,2.0,49,0.00,,---,0.25,VWS V14.01,2013-02-01 03:19:00,
2013-01-31 22:20:00,30.3,13.4,29.86,South,180,1.0,2.0,49,0.00,,---,0.25,VWS V14.01,2013-02-01 03:20:00,
2013-01-31 22:21:00,30.3,13.4,29.86,South,180,1.0,2.0,49,0.00,,---,0.25,VWS V14.01,2013-02-01 03:21:00,
2013-01-31 22:22:00,30.1,13.7,29.86,South,180,0.0,2.0,50,0.00,,---,0.25,VWS V14.01,2013-02-01 03:22:00,
2013-01-31 22:23:00,30.1,13.7,29.86,South,180,1.0,3.0,50,0.00,,---,0.25,VWS V14.01,2013-02-01 03:23:00,
2013-01-31 22:24:00,30.1,13.7,29.86,South,180,2.0,5.0,50,0.00,,---,0.25,VWS V14.01,2013-02-01 03:24:00,
2013-01-31 22:25:00,30.1,13.7,29.86,South,180,4.0,6.0,50,0.00,,---,0.25,VWS V14.01,2013-02-01 03:25:00,
2013-01-31 22:26:00,30.1,13.7,29.86,South,180,3.0,5.0,50,0.00,,---,0.25,VWS V14.01,2013-02-01 03:26:00,
2013-01-31 22:27:00,30.1,13.7,29.86,South,180,2.0,4.0,50,0.00,,---,0.25,VWS V14.01,2013-02-01 03:27:00,
2013-01-31 22:28:00,30.1,13.7,29.86,South,180,1.0,2.0,50,0.00,,---,0.25,VWS V14.01,2013-02-01 03:28:00,
2013-01-31 22:29:00,30.1,13.7,29.86,South,180,0.0,1.0,50,0.00,,---,0.25,VWS V14.01,2013-02-01 03:29:00,
2013-01-31 22:30:00,30.1,13.7,29.87,South,180,1.0,2.0,50,0.00,,---,0.25,VWS V14.01,2013-02-01 03:30:00,
2013-01-31 22:31:00,30.1,13.7,29.87,South,180,1.0,3.0,50,0.00,,---,0.25,VWS V14.01,2013-02-01 03:31:00,
2013-01-31 22:32:00,30.1,14.2,29.87,South,180,1.0,4.0,51,0.00,,---,0.25,VWS V14.01,2013-02-01 03:32:00,
2013-01-31 22:33:00,30.1,14.2,29.87,South,180,1.0,5.0,51,0.00,,---,0.25,VWS V14.01,2013-02-01 03:33:00,
2013-01-31 22:34:00,30.1,14.2,29.87,South,180,2.0,4.0,51,0.00,,---,0.25,VWS V14.01,2013-02-01 03:34:00,
2013-01-31 22:35:00,30.1,14.2,29.87,South,180,4.0,8.0,51,0.00,,---,0.25,VWS V14.01,2013-02-01 03:35:00,
2013-01-31 22:36:00,30.3,14.4,29.87,SSW,202,4.0,6.0,51,0.00,,---,0.25,VWS V14.01,2013-02-01 03:36:00,
2013-01-31 22:37:00,30.3,14.4,29.87,SSW,202,1.0,2.0,51,0.00,,---,0.25,VWS V14.01,2013-02-01 03:37:00,
2013-01-31 22:38:00,30.4,14.4,29.87,SSW,202,1.0,4.0,51,0.00,,---,0.25,VWS V14.01,2013-02-01 03:38:00,
2013-01-31 22:39:00,30.4,14.4,29.87,SSW,202,3.0,6.0,51,0.00,,---,0.25,VWS V14.01,2013-02-01 03:39:00,
2013-01-31 22:40:00,30.4,14.4,29.87,South,180,1.0,3.0,51,0.00,,---,0.25,VWS V14.01,2013-02-01 03:40:00,
2013-01-31 22:41:00,30.4,14.4,29.87,South,180,0.0,1.0,51,0.00,,---,0.25,VWS V14.01,2013-02-01 03:41:00,
2013-01-31 22:42:00,30.4,14.4,29.87,South,180,0.0,1.0,51,0.00,,---,0.25,VWS V14.01,2013-02-01 03:42:00,
2013-01-31 22:43:00,30.4,14.4,29.87,South,180,0.0,2.0,51,0.00,,---,0.25,VWS V14.01,2013-02-01 03:43:00,
2013-01-31 22:44:00,30.6,14.6,29.87,South,180,2.0,4.0,51,0.00,,---,0.25,VWS V14.01,2013-02-01 03:44:00,
2013-01-31 22:45:00,30.6,14.6,29.86,South,180,0.0,1.0,51,0.00,,---,0.25,VWS V14.01,2013-02-01 03:45:00,
2013-01-31 22:46:00,30.6,14.6,29.86,South,180,3.0,6.0,51,0.00,,---,0.25,VWS V14.01,2013-02-01 03:46:00,
2013-01-31 22:47:00,30.6,14.2,29.86,South,180,2.0,5.0,50,0.00,,---,0.25,VWS V14.01,2013-02-01 03:47:00,
2013-01-31 22:48:00,30.6,14.6,29.86,South,180,3.0,5.0,51,0.00,,---,0.25,VWS V14.01,2013-02-01 03:48:00,
2013-01-31 22:49:00,30.6,14.6,29.86,South,180,3.0,5.0,51,0.00,,---,0.25,VWS V14.01,2013-02-01 03:49:00,
2013-01-31 22:50:00,30.6,14.6,29.86,South,180,1.0,2.0,51,0.00,,---,0.25,VWS V14.01,2013-02-01 03:50:00,
2013-01-31 22:51:00,30.6,14.6,29.86,South,180,0.0,0.0,51,0.00,,---,0.25,VWS V14.01,2013-02-01 03:51:00,
2013-01-31 22:52:00,30.6,14.6,29.86,South,180,0.0,1.0,51,0.00,,---,0.25,VWS V14.01,2013-02-01 03:52:00,
2013-01-31 22:53:00,30.6,14.6,29.86,South,180,0.0,1.0,51,0.00,,---,0.25,VWS V14.01,2013-02-01 03:53:00,
2013-01-31 22:54:00,30.6,14.6,29.86,South,180,1.0,2.0,51,0.00,,---,0.25,VWS V14.01,2013-02-01 03:54:00,
2013-01-31 22:55:00,30.6,14.6,29.86,South,180,1.0,2.0,51,0.00,,---,0.25,VWS V14.01,2013-02-01 03:55:00,
2013-01-31 22:56:00,30.6,14.6,29.86,South,180,0.0,0.0,51,0.00,,---,0.25,VWS V14.01,2013-02-01 03:56:00,
2013-01-31 22:57:00,30.6,14.6,29.86,South,180,0.0,1.0,51,0.00,,---,0.25,VWS V14.01,2013-02-01 03:57:00,
2013-01-31 22:58:00,30.6,14.6,29.86,South,180,1.0,4.0,51,0.00,,---,0.25,VWS V14.01,2013-02-01 03:58:00,
2013-01-31 22:59:00,30.6,14.6,29.86,South,180,1.0,4.0,51,0.00,,---,0.25,VWS V14.01,2013-02-01 03:59:00,
2013-01-31 23:00:00,30.6,15.1,29.85,South,180,1.0,2.0,52,0.00,,---,0.25,VWS V14.01,2013-02-01 04:00:00,
2013-01-31 23:01:00,30.4,14.9,29.85,South,180,1.0,4.0,52,0.00,,---,0.25,VWS V14.01,2013-02-01 04:01:00,
2013-01-31 23:02:00,30.4,14.9,29.85,South,180,1.0,4.0,52,0.00,,---,0.25,VWS V14.01,2013-02-01 04:02:00,
2013-01-31 23:03:00,30.4,14.9,29.85,SE,135,3.0,8.0,52,0.00,,---,0.25,VWS V14.01,2013-02-01 04:03:00,
2013-01-31 23:04:00,30.4,14.9,29.85,SSE,158,3.0,5.0,52,0.00,,---,0.25,VWS V14.01,2013-02-01 04:04:00,
2013-01-31 23:05:00,30.4,14.9,29.85,SSE,158,1.0,4.0,52,0.00,,---,0.25,VWS V14.01,2013-02-01 04:05:00,
2013-01-31 23:06:00,30.4,14.9,29.85,SSE,158,1.0,2.0,52,0.00,,---,0.25,VWS V14.01,2013-02-01 04:06:00,
2013-01-31 23:07:00,30.4,15.3,29.85,South,180,4.0,6.0,53,0.00,,---,0.25,VWS V14.01,2013-02-01 04:07:00,
2013-01-31 23:08:00,30.6,15.5,29.85,South,180,4.0,5.0,53,0.00,,---,0.25,VWS V14.01,2013-02-01 04:08:00,
2013-01-31 23:09:00,30.6,15.5,29.85,South,180,1.0,4.0,53,0.00,,---,0.25,VWS V14.01,2013-02-01 04:09:00,
2013-01-31 23:10:00,30.6,15.5,29.85,South,180,1.0,4.0,53,0.00,,---,0.25,VWS V14.01,2013-02-01 04:10:00,
2013-01-31 23:11:00,30.6,15.5,29.85,South,180,1.0,2.0,53,0.00,,---,0.25,VWS V14.01,2013-02-01 04:11:00,
2013-01-31 23:12:00,30.6,15.5,29.85,South,180,1.0,4.0,53,0.00,,---,0.25,VWS V14.01,2013-02-01 04:12:00,
2013-01-31 23:13:00,30.6,15.5,29.85,SSE,158,4.0,6.0,53,0.00,,---,0.25,VWS V14.01,2013-02-01 04:13:00,
2013-01-31 23:14:00,30.6,15.5,29.85,SSE,158,3.0,5.0,53,0.00,,---,0.25,VWS V14.01,2013-02-01 04:14:00,
2013-01-31 23:15:00,30.6,15.5,29.85,SSE,158,3.0,7.0,53,0.00,,---,0.25,VWS V14.01,2013-02-01 04:15:00,
2013-01-31 23:16:00,30.6,15.5,29.85,South,180,3.0,6.0,53,0.00,,---,0.25,VWS V14.01,2013-02-01 04:16:00,
2013-01-31 23:17:00,30.6,15.5,29.85,SSE,158,2.0,4.0,53,0.00,,---,0.25,VWS V14.01,2013-02-01 04:17:00,
2013-01-31 23:18:00,30.6,15.5,29.85,SSE,158,0.0,2.0,53,0.00,,---,0.25,VWS V14.01,2013-02-01 04:18:00,
2013-01-31 23:19:00,30.6,15.5,29.85,SSE,158,0.0,1.0,53,0.00,,---,0.25,VWS V14.01,2013-02-01 04:19:00,
2013-01-31 23:20:00,30.4,15.3,29.85,SSE,158,1.0,3.0,53,0.00,,---,0.25,VWS V14.01,2013-02-01 04:20:00,
2013-01-31 23:21:00,30.4,15.3,29.85,SSE,158,1.0,2.0,53,0.00,,---,0.25,VWS V14.01,2013-02-01 04:21:00,
2013-01-31 23:22:00,30.4,15.8,29.85,SSE,158,1.0,2.0,54,0.00,,---,0.25,VWS V14.01,2013-02-01 04:22:00,
2013-01-31 23:23:00,30.4,15.8,29.85,SSE,158,1.0,2.0,54,0.00,,---,0.25,VWS V14.01,2013-02-01 04:23:00,
2013-01-31 23:24:00,30.4,15.8,29.85,SSE,158,2.0,6.0,54,0.00,,---,0.25,VWS V14.01,2013-02-01 04:24:00,
2013-01-31 23:25:00,30.4,15.8,29.85,SSE,158,2.0,5.0,54,0.00,,---,0.25,VWS V14.01,2013-02-01 04:25:00,
2013-01-31 23:26:00,30.4,15.8,29.85,SSE,158,1.0,3.0,54,0.00,,---,0.25,VWS V14.01,2013-02-01 04:26:00,
2013-01-31 23:27:00,30.3,16.1,29.85,South,180,2.0,5.0,55,0.00,,---,0.25,VWS V14.01,2013-02-01 04:27:00,
2013-01-31 23:28:00,30.3,16.1,29.85,South,180,2.0,5.0,55,0.00,,---,0.25,VWS V14.01,2013-02-01 04:28:00,
2013-01-31 23:29:00,30.3,16.1,29.85,South,180,2.0,3.0,55,0.00,,---,0.25,VWS V14.01,2013-02-01 04:29:00,
2013-01-31 23:30:00,30.3,16.1,29.84,South,180,1.0,2.0,55,0.00,,---,0.25,VWS V14.01,2013-02-01 04:30:00,
2013-01-31 23:31:00,30.3,16.1,29.84,South,180,1.0,5.0,55,0.00,,---,0.25,VWS V14.01,2013-02-01 04:31:00,
2013-01-31 23:32:00,30.3,16.1,29.84,SE,135,1.0,3.0,55,0.00,,---,0.25,VWS V14.01,2013-02-01 04:32:00,
2013-01-31 23:33:00,30.3,16.1,29.84,SSE,158,4.0,6.0,55,0.00,,---,0.25,VWS V14.01,2013-02-01 04:33:00,
2013-01-31 23:34:00,30.3,16.1,29.84,SSE,158,2.0,4.0,55,0.00,,---,0.25,VWS V14.01,2013-02-01 04:34:00,
2013-01-31 23:35:00,30.3,16.1,29.84,SSE,158,3.0,5.0,55,0.00,,---,0.25,VWS V14.01,2013-02-01 04:35:00,
2013-01-31 23:36:00,30.3,16.1,29.84,SSE,158,1.0,4.0,55,0.00,,---,0.25,VWS V14.01,2013-02-01 04:36:00,
2013-01-31 23:37:00,30.3,16.1,29.84,SSE,158,1.0,5.0,55,0.00,,---,0.25,VWS V14.01,2013-02-01 04:37:00,
2013-01-31 23:38:00,30.3,16.1,29.84,SSE,158,3.0,5.0,55,0.00,,---,0.25,VWS V14.01,2013-02-01 04:38:00,
2013-01-31 23:39:00,30.3,16.5,29.84,South,180,0.0,2.0,56,0.00,,---,0.25,VWS V14.01,2013-02-01 04:39:00,
2013-01-31 23:40:00,30.3,16.5,29.84,South,180,2.0,4.0,56,0.00,,---,0.25,VWS V14.01,2013-02-01 04:40:00,
2013-01-31 23:41:00,30.1,16.3,29.84,South,180,0.0,2.0,56,0.00,,---,0.25,VWS V14.01,2013-02-01 04:41:00,
2013-01-31 23:42:00,30.1,16.3,29.84,South,180,1.0,4.0,56,0.00,,---,0.25,VWS V14.01,2013-02-01 04:42:00,
2013-01-31 23:43:00,30.1,16.3,29.84,South,180,0.0,0.0,56,0.00,,---,0.25,VWS V14.01,2013-02-01 04:43:00,
2013-01-31 23:44:00,30.1,16.3,29.84,South,180,0.0,1.0,56,0.00,,---,0.25,VWS V14.01,2013-02-01 04:44:00,
2013-01-31 23:45:00,30.1,16.3,29.84,SE,135,1.0,3.0,56,0.00,,---,0.25,VWS V14.01,2013-02-01 04:45:00,
2013-01-31 23:46:00,30.1,16.3,29.84,SE,135,0.0,1.0,56,0.00,,---,0.25,VWS V14.01,2013-02-01 04:46:00,
2013-01-31 23:47:00,30.1,16.3,29.84,SE,135,0.0,0.0,56,0.00,,---,0.25,VWS V14.01,2013-02-01 04:47:00,
2013-01-31 23:48:00,30.1,16.7,29.84,SE,135,0.0,0.0,57,0.00,,---,0.25,VWS V14.01,2013-02-01 04:48:00,
2013-01-31 23:49:00,30.0,16.6,29.84,SE,135,0.0,0.0,57,0.00,,---,0.25,VWS V14.01,2013-02-01 04:49:00,
2013-01-31 23:50:00,30.0,16.6,29.84,SE,135,4.0,6.0,57,0.00,,---,0.25,VWS V14.01,2013-02-01 04:50:00,
2013-01-31 23:51:00,30.0,16.6,29.84,SE,135,3.0,6.0,57,0.00,,---,0.25,VWS V14.01,2013-02-01 04:51:00,
2013-01-31 23:52:00,30.0,16.6,29.84,South,180,1.0,4.0,57,0.00,,---,0.25,VWS V14.01,2013-02-01 04:52:00,
2013-01-31 23:53:00,30.0,16.6,29.84,South,180,0.0,0.0,57,0.00,,---,0.25,VWS V14.01,2013-02-01 04:53:00,
2013-01-31 23:54:00,30.0,17.0,29.84,South,180,0.0,2.0,58,0.00,,---,0.25,VWS V14.01,2013-02-01 04:54:00,
2013-01-31 23:55:00,30.0,17.0,29.84,South,180,0.0,2.0,58,0.00,,---,0.25,VWS V14.01,2013-02-01 04:55:00,
2013-01-31 23:56:00,29.8,16.4,29.84,South,180,0.0,0.0,57,0.00,,---,0.25,VWS V14.01,2013-02-01 04:56:00,
2013-01-31 23:57:00,29.8,16.4,29.84,South,180,0.0,0.0,57,0.00,,---,0.25,VWS V14.01,2013-02-01 04:57:00,
2013-01-31 23:58:00,29.8,16.8,29.84,South,180,1.0,5.0,58,0.00,,---,0.25,VWS V14.01,2013-02-01 04:58:00,
2013-01-31 23:59:00,29.8,16.8,29.84,South,180,1.0,1.0,58,0.00,,---,0.25,VWS V14.01,2013-02-01 04:59:00,